[[{"header":{"parameterUnit":"m.s-1","parameterCategory":1,"la1":30.6,"la2":28.766,"lo1":-90.7593,"lo2":-88.6598,"dy":0.0162,"dx":0.0183,"nx":116,"ny":114,"refTime":"2024-03-30T12:00:00:Z","depth":0,"parameterNumber":2,"parameterNumberName":"U-component_of_WINDS"},"data":[0.0,0.0,0.0,0.0,0.0,0.0,0.0,0.0,0.0,0.0,0.0,0.0,0.0,0.0,0.0,0.0,0.0,0.0,0.0,0.0,0.0,0.0,0.0,0.0,0.0,0.0,0.0,0.0,0.0,0.0,0.0,0.0,0.0,0.0,0.0,0.0,0.0,0.0,0.0,0.0,0.0,0.0,0.0,0.0,0.0,0.0,0.0,0.0,0.0,0.0,0.0,0.0,0.0,0.0,0.0,0.0,0.0,0.0,0.0,0.0,0.0,0.0,0.0,0.0,0.0,0.0,0.0,0.0,0.0,0.0,0.0,0.0,0.0,0.0,0.0,0.0,0.0,0.0,0.0,0.0,0.0,0.0,0.0,0.0,0.0,0.0,0.0,0.0,0.0,0.0,0.0,0.0,0.0,0.0,0.0,0.0,0.0,0.0,0.0,0.0,0.0,0.0,0.0,0.0,0.0,0.0,0.0,0.0,0.0,0.0,0.0,0.0,0.0,0.0,0.0,0.0,0.0,0.0,0.0,0.0,0.0,0.0,0.0,0.0,0.0,0.0,0.0,0.0,0.0,0.0,0.0,0.0,0.0,0.0,0.0,0.0,0.0,0.0,0.0,0.0,0.0,0.0,0.0,0.0,0.0,0.0,0.0,0.0,0.0,0.0,0.0,0.0,0.0,0.0,0.0,0.0,0.0,0.0,0.0,0.0,0.0,0.0,0.0,0.0,0.0,0.0,0.0,0.0,0.0,0.0,0.0,0.0,0.0,0.0,0.0,0.0,0.0,0.0,0.0,0.0,0.0,0.0,0.0,0.0,0.0,0.0,0.0,0.0,0.0,0.0,0.0,0.0,0.0,0.0,0.0,0.0,0.0,0.0,0.0,0.0,0.0,0.0,0.0,0.0,0.0,0.0,0.0,0.0,0.0,0.0,0.0,0.0,0.0,0.0,0.0,0.0,0.0,0.0,0.0,0.0,0.0,0.0,0.0,0.0,0.0,0.0,0.0,0.0,0.0,0.0,0.0,0.0,0.0,0.0,0.0,0.0,0.0,0.0,0.0,0.0,0.0,0.0,0.0,0.0,0.0,0.0,0.0,0.0,0.0,0.0,0.0,0.0,0.0,0.0,0.0,0.0,0.0,0.0,0.0,0.0,0.0,0.0,0.0,0.0,0.0,0.0,0.0,0.0,0.0,0.0,0.0,0.0,0.0,0.0,0.0,0.0,0.0,0.0,0.0,0.0,0.0,0.0,0.0,0.0,0.0,0.0,0.0,0.0,0.0,0.0,0.0,0.0,0.0,0.0,0.0,0.0,0.0,0.0,0.0,0.0,0.0,0.0,0.0,0.0,0.0,0.0,0.0,0.0,0.0,0.0,0.0,0.0,0.0,0.0,0.0,0.0,0.0,0.0,0.0,0.0,0.0,0.0,0.0,0.0,0.0,0.0,0.0,0.0,0.0,0.0,0.0,0.0,0.0,0.0,0.0,0.0,0.0,0.0,0.0,0.0,0.0,0.0,0.0,0.0,0.0,0.0,0.0,0.0,0.0,0.0,0.0,0.0,0.0,0.0,0.0,0.0,0.0,0.0,0.0,0.0,0.0,0.0,0.0,0.0,0.0,0.0,0.0,0.0,0.0,0.0,0.0,0.0,0.0,0.0,0.0,0.0,0.0,0.0,0.0,0.0,0.0,0.0,0.0,0.0,0.0,0.0,0.0,0.0,0.0,0.0,0.0,0.0,0.0,0.0,0.0,0.0,0.0,0.0,0.0,0.0,0.0,0.0,0.0,0.0,0.0,0.0,0.0,0.0,0.0,0.0,0.0,0.0,0.0,0.0,0.0,0.0,0.0,0.0,0.0,0.0,0.0,0.0,0.0,0.0,0.0,0.0,0.0,0.0,0.0,0.0,0.0,0.0,0.0,0.0,0.0,0.0,0.0,0.0,0.0,0.0,0.0,0.0,0.0,0.0,0.0,0.0,0.0,0.0,0.0,0.0,0.0,0.0,0.0,0.0,0.0,0.0,0.0,0.0,0.0,0.0,0.0,0.0,0.0,0.0,0.0,0.0,0.0,0.0,0.0,0.0,0.0,0.0,0.0,0.0,0.0,0.0,0.0,0.0,0.0,0.0,0.0,0.0,0.0,0.0,0.0,0.0,0.0,0.0,0.0,0.0,0.0,0.0,0.0,0.0,0.0,0.0,0.0,0.0,0.0,0.0,0.0,0.0,0.0,0.0,0.0,0.0,0.0,0.0,0.0,0.0,0.0,0.0,0.0,0.0,0.0,0.0,0.0,0.0,0.0,0.0,0.0,0.0,0.0,0.0,0.0,0.0,0.0,0.0,0.0,0.0,0.0,0.0,0.0,0.0,0.0,0.0,0.0,0.0,0.0,0.0,0.0,0.0,0.0,0.0,0.0,0.0,0.0,0.0,0.0,0.0,0.0,0.0,0.0,0.0,0.0,0.0,0.0,0.0,0.0,0.0,0.0,0.0,0.0,0.0,0.0,0.0,0.0,0.0,0.0,0.0,0.0,0.0,0.0,0.0,0.0,0.0,0.0,0.0,0.0,0.0,0.0,0.0,0.0,0.0,0.0,0.0,0.0,0.0,0.0,0.0,0.0,0.0,0.0,0.0,0.0,0.0,0.0,0.0,0.0,0.0,0.0,0.0,0.0,0.0,0.0,0.0,0.0,0.0,0.0,0.0,0.0,0.0,0.0,0.0,0.0,0.0,0.0,0.0,0.0,0.0,0.0,0.0,0.0,0.0,0.0,0.0,0.0,0.0,0.0,0.0,0.0,0.0,0.0,0.0,0.0,0.0,0.0,0.0,0.0,0.0,0.0,0.0,0.0,0.0,0.0,0.0,0.0,0.0,0.0,0.0,0.0,0.0,0.0,0.0,0.0,0.0,0.0,0.0,0.0,0.0,0.0,0.0,0.0,0.0,0.0,0.0,0.0,0.0,0.0,0.0,0.0,0.0,0.0,0.0,0.0,0.0,0.0,0.0,0.0,0.0,0.0,0.0,0.0,0.0,0.0,0.0,0.0,0.0,0.0,0.0,0.0,0.0,0.0,0.0,0.0,0.0,0.0,0.0,0.0,0.0,0.0,0.0,0.0,0.0,0.0,0.0,0.0,0.0,0.0,0.0,0.0,0.0,0.0,0.0,0.0,0.0,0.0,0.0,0.0,0.0,0.0,0.0,0.0,0.0,0.0,0.0,0.0,0.0,0.0,0.0,0.0,0.0,0.0,0.0,0.0,0.0,0.0,0.0,0.0,0.0,0.0,0.0,0.0,0.0,0.0,0.0,0.0,0.0,0.0,0.0,0.0,0.0,0.0,0.0,0.0,0.0,0.0,0.0,0.0,0.0,0.0,0.0,0.0,0.0,0.0,0.0,0.0,0.0,0.0,0.0,0.0,0.0,0.0,0.0,0.0,0.0,0.0,0.0,0.0,0.0,0.0,0.0,0.0,0.0,0.0,0.0,0.0,0.0,0.0,0.0,0.0,0.0,0.0,0.0,0.0,0.0,0.0,0.0,0.0,0.0,0.0,0.0,0.0,0.0,0.0,0.0,0.0,0.0,0.0,0.0,0.0,0.0,0.0,0.0,0.0,0.0,0.0,0.0,0.0,0.0,0.0,0.0,0.0,0.0,0.0,0.0,0.0,0.0,0.0,0.0,0.0,0.0,0.0,0.0,0.0,0.0,0.0,0.0,0.0,0.0,0.0,0.0,0.0,0.0,0.0,0.0,0.0,0.0,0.0,0.0,0.0,0.0,0.0,0.0,0.0,0.0,0.0,0.0,0.0,0.0,0.0,0.0,0.0,0.0,0.0,0.0,0.0,0.0,0.0,0.0,0.0,0.0,0.0,0.0,0.0,0.0,0.0,0.0,0.0,0.0,0.0,0.0,0.0,0.0,0.0,0.0,0.0,0.0,0.0,0.0,0.0,0.0,0.0,0.0,0.0,0.0,0.0,0.0,0.0,0.0,0.0,0.0,0.0,0.0,0.0,0.0,0.0,0.0,0.0,0.0,0.0,0.0,0.0,0.0,0.0,0.0,0.0,0.0,0.0,0.0,0.0,0.0,0.0,0.0,0.0,0.0,0.0,0.0,0.0,0.0,0.0,0.0,0.0,0.0,0.0,0.0,0.0,0.0,0.0,0.0,0.0,0.0,0.0,0.0,0.0,0.0,0.0,0.0,0.0,0.0,0.0,0.0,0.0,0.0,0.0,0.0,0.0,0.0,0.0,0.0,0.0,0.0,0.0,0.0,0.0,0.0,0.0,0.0,0.0,0.0,0.0,0.0,0.0,0.0,0.0,0.0,0.0,0.0,0.0,0.0,0.0,0.0,0.0,0.0,0.0,0.0,0.0,0.0,0.0,0.0,0.0,0.0,0.0,0.0,0.0,0.0,0.0,0.0,0.0,0.0,0.0,0.0,0.0,0.0,0.0,0.0,0.0,0.0,0.0,0.0,0.0,0.0,0.0,0.0,0.0,0.0,0.0,0.0,0.0,0.0,0.0,0.0,0.0,0.0,0.0,0.0,0.0,0.0,0.0,0.0,0.0,0.0,0.0,0.0,0.0,0.0,0.0,0.0,0.0,0.0,0.0,0.0,0.0,0.0,0.0,0.0,0.0,0.0,0.0,0.0,0.0,0.0,0.0,0.0,0.0,0.0,0.0,0.0,0.0,0.0,0.0,0.0,0.0,0.0,0.0,0.0,0.0,0.0,0.0,0.0,0.0,0.0,0.0,0.0,0.0,0.0,0.0,0.0,0.0,0.0,0.0,0.0,0.0,0.0,0.0,0.0,0.0,0.0,0.0,0.0,0.0,0.0,0.0,0.0,0.0,0.0,0.0,0.0,0.0,0.0,0.0,0.0,0.0,0.0,0.0,0.0,0.0,0.0,0.0,0.0,0.0,0.0,0.0,0.0,0.0,0.0,0.0,0.0,0.0,0.0,0.0,0.0,0.0,0.0,0.0,0.0,0.0,0.0,0.0,0.0,0.0,0.0,0.0,0.0,0.0,0.0,0.0,0.0,0.0,0.0,0.0,0.0,0.0,0.0,0.0,0.0,0.0,0.0,0.0,0.0,0.0,0.0,0.0,0.0,0.0,0.0,0.0,0.0,0.0,0.0,0.0,0.0,0.0,0.0,0.0,0.0,0.0,0.0,0.0,0.0,0.0,0.0,0.0,0.0,0.0,0.0,0.0,0.0,0.0,0.0,0.0,0.0,0.0,0.0,0.0,0.0,0.0,0.0,0.0,0.0,0.0,0.0,0.0,0.0,0.0,0.0,0.0,0.0,0.0,0.0,0.0,0.0,0.0,0.0,0.0,0.0,0.0,0.0,0.0,0.0,0.0,0.0,0.0,0.0,0.0,0.0,0.0,0.0,0.0,0.0,0.0,0.0,0.0,0.0,0.0,0.0,0.0,0.0,0.0,0.0,0.0,0.0,0.0,0.0,0.0,0.0,0.0,0.0,0.0,0.0,0.0,0.0,0.0,0.0,0.0,0.0,0.0,0.0,0.0,0.0,0.0,0.0,0.0,0.0,0.0,0.0,0.0,0.0,0.0,0.0,0.0,0.0,0.0,0.0,0.0,0.0,0.0,0.0,0.0,0.0,0.0,0.0,0.0,0.0,0.0,0.0,0.0,0.0,0.0,0.0,0.0,0.0,0.0,0.0,0.0,0.0,0.0,0.0,0.0,0.0,0.0,0.0,0.0,0.0,0.0,0.0,0.0,0.0,0.0,0.0,0.0,0.0,0.0,0.0,0.0,0.0,0.0,0.0,0.0,0.0,0.0,0.0,0.0,0.0,0.0,0.0,0.0,0.0,0.0,0.0,0.0,0.0,0.0,0.0,0.0,0.0,0.0,0.0,0.0,0.0,0.0,0.0,0.0,0.0,0.0,0.0,0.0,0.0,0.0,0.0,0.0,0.0,0.0,0.0,0.0,0.0,0.0,0.0,0.0,0.0,0.0,0.0,0.0,0.0,0.0,0.0,0.0,0.0,0.0,0.0,0.0,0.0,0.0,0.0,0.0,0.0,0.0,0.0,0.0,0.0,0.0,0.0,0.0,0.0,0.0,0.0,0.0,0.0,0.0,0.0,-5.2904,-5.3705,0.0,0.0,0.0,0.0,0.0,0.0,0.0,0.0,0.0,0.0,0.0,0.0,0.0,0.0,0.0,0.0,0.0,0.0,0.0,0.0,0.0,0.0,0.0,-5.5994,-5.6314,-5.6785,-5.6859,-5.6859,-5.6859,0.0,0.0,0.0,0.0,0.0,-5.5075,-5.5075,-5.506,-5.5023,-5.5023,-5.5023,-5.4987,-5.3902,-5.3334,-5.3156,0.0,0.0,0.0,0.0,0.0,0.0,0.0,0.0,0.0,0.0,0.0,0.0,0.0,0.0,0.0,0.0,0.0,0.0,0.0,0.0,0.0,0.0,0.0,0.0,0.0,0.0,0.0,0.0,0.0,0.0,0.0,0.0,0.0,0.0,0.0,0.0,0.0,0.0,0.0,0.0,0.0,0.0,0.0,0.0,0.0,0.0,0.0,0.0,0.0,0.0,0.0,0.0,0.0,0.0,0.0,0.0,0.0,0.0,0.0,0.0,0.0,0.0,0.0,0.0,0.0,0.0,0.0,0.0,0.0,0.0,-5.2618,-5.3014,0.0,0.0,0.0,0.0,0.0,0.0,0.0,0.0,0.0,0.0,0.0,0.0,0.0,0.0,0.0,0.0,0.0,0.0,0.0,0.0,0.0,-5.4848,-5.5017,-5.5221,-5.5427,-5.5574,-5.5596,-5.5559,-5.539,-5.462,0.0,0.0,-5.3408,-5.3004,-5.3004,-5.3004,-5.3298,-5.398,-5.4148,-5.4222,-5.4201,-5.354,-5.3346,-5.3549,-5.3479,0.0,0.0,0.0,0.0,0.0,0.0,0.0,0.0,0.0,0.0,0.0,0.0,0.0,0.0,0.0,0.0,0.0,0.0,0.0,0.0,0.0,0.0,0.0,0.0,0.0,0.0,0.0,0.0,0.0,0.0,0.0,0.0,0.0,0.0,0.0,0.0,0.0,0.0,0.0,0.0,0.0,0.0,0.0,0.0,0.0,0.0,0.0,0.0,0.0,0.0,0.0,0.0,0.0,0.0,0.0,0.0,0.0,0.0,0.0,0.0,0.0,0.0,0.0,-5.185,-5.2111,-5.2689,-5.2539,-5.2465,-5.2447,-5.2287,-5.2401,-5.2661,-5.2512,0.0,0.0,0.0,0.0,0.0,0.0,0.0,0.0,0.0,0.0,0.0,0.0,0.0,0.0,0.0,0.0,0.0,0.0,0.0,-5.3411,-5.4253,-5.4459,-5.484,-5.5559,-5.5596,-5.528,-5.4583,-5.3812,-5.3371,-5.3371,-5.2601,-5.216,-5.216,-5.216,-5.2259,-5.2397,-5.3216,-5.3584,-5.3445,-5.3334,-5.3293,-5.334,-5.3271,-5.2893,-5.2268,0.0,0.0,0.0,0.0,0.0,0.0,0.0,0.0,0.0,0.0,0.0,0.0,0.0,0.0,0.0,0.0,0.0,0.0,0.0,0.0,0.0,0.0,0.0,0.0,0.0,0.0,0.0,0.0,0.0,0.0,0.0,0.0,0.0,0.0,0.0,0.0,0.0,0.0,0.0,0.0,0.0,-5.5521,-5.4749,0.0,0.0,0.0,0.0,0.0,0.0,0.0,0.0,0.0,0.0,0.0,0.0,0.0,-5.0895,-5.1493,-5.2203,-5.2614,-5.2726,-5.2726,-5.239,-5.1737,-5.1065,-5.0729,-5.0729,-5.0712,0.0,-5.2823,-5.2021,0.0,0.0,0.0,0.0,0.0,0.0,0.0,0.0,0.0,0.0,0.0,0.0,0.0,0.0,0.0,0.0,0.0,0.0,0.0,0.0,0.0,-5.3674,-5.3885,-5.4216,-5.4252,-5.4106,-5.3739,-5.2564,-5.1867,-5.1867,-5.0618,-4.9921,-4.9921,-4.998,-5.0537,-5.1539,-5.287,-5.3461,-5.34,-5.34,-5.338,-5.3297,-5.3256,-5.3088,-5.2806,-5.2291,0.0,0.0,0.0,0.0,0.0,0.0,0.0,0.0,0.0,0.0,0.0,0.0,0.0,0.0,0.0,0.0,0.0,0.0,0.0,0.0,0.0,0.0,0.0,0.0,0.0,0.0,0.0,0.0,0.0,0.0,0.0,0.0,0.0,0.0,0.0,0.0,0.0,0.0,0.0,-5.5035,-5.487,-5.4833,-5.3989,-5.3246,0.0,0.0,0.0,0.0,0.0,0.0,0.0,0.0,0.0,-5.2452,-5.1665,-5.189,-5.3219,-5.264,-5.3052,-5.44,-5.3518,-5.3314,-5.3838,-5.3014,-5.264,-5.2602,-5.1665,-5.1928,-5.2977,-5.1527,-5.0637,-5.0213,0.0,0.0,0.0,0.0,-4.9864,-4.9474,0.0,0.0,0.0,0.0,0.0,0.0,0.0,0.0,0.0,0.0,0.0,0.0,-5.3039,-5.3124,-5.3203,-5.3203,-5.3203,-5.3041,-5.2637,-5.1463,-5.0618,-5.0178,-4.8967,-4.8306,-4.8306,-4.866,-4.9601,-5.1117,-5.2579,-5.3356,-5.3558,-5.3558,-5.3461,-5.3359,-5.3318,-5.3235,-5.3146,-5.2649,-5.2102,-5.1479,0.0,0.0,0.0,0.0,0.0,0.0,0.0,0.0,0.0,0.0,0.0,0.0,0.0,0.0,0.0,0.0,0.0,0.0,0.0,0.0,0.0,0.0,0.0,0.0,0.0,0.0,0.0,0.0,0.0,0.0,0.0,0.0,0.0,0.0,0.0,0.0,0.0,-5.4435,-5.456,-5.4365,-5.3883,-5.3218,0.0,0.0,0.0,0.0,0.0,0.0,-5.0932,-5.0997,-5.1668,-5.3149,-5.2569,-5.2944,-5.4409,-5.317,-5.347,-5.5255,-5.4071,-5.4033,-5.4972,-5.4371,-5.3958,-5.3695,-5.2231,-5.1968,-5.2419,-5.0825,-4.9919,-4.9545,-4.9321,-4.908,-4.8898,-4.8898,-4.8375,-4.7666,0.0,0.0,0.0,0.0,0.0,0.0,0.0,0.0,0.0,0.0,0.0,-5.2908,-5.3146,-5.3203,-5.3203,-5.3203,-5.3203,-5.2543,-5.1022,-5.0839,-5.0105,-4.8489,-4.8343,-4.8306,-4.8306,-4.9288,-5.0249,-5.1117,-5.2121,-5.3012,-5.3694,-5.3694,-5.3598,-5.3481,-5.3359,-5.3235,-5.3146,-5.2649,-5.2102,-5.1479,-5.0162,0.0,0.0,0.0,0.0,0.0,0.0,0.0,0.0,0.0,0.0,0.0,0.0,0.0,0.0,0.0,0.0,0.0,0.0,0.0,0.0,0.0,0.0,0.0,0.0,0.0,0.0,0.0,0.0,0.0,0.0,0.0,0.0,0.0,0.0,0.0,0.0,0.0,0.0,-5.3322,-5.3786,0.0,0.0,0.0,0.0,-5.0767,-5.1389,-5.1839,-5.1839,-5.1855,-5.2268,-5.3186,-5.3149,-5.3562,-5.4409,-5.4334,-5.4334,-5.4446,-5.4371,-5.3958,-5.3337,-5.3299,-5.2794,-5.1968,-5.1142,-5.0782,-5.0782,-4.9887,-4.9915,-5.045,-4.9626,-4.8776,-4.8077,-4.8077,-4.7516,-4.6769,0.0,0.0,0.0,0.0,0.0,-5.0981,-5.2299,-5.1357,-5.1048,-5.2579,-5.2806,-5.2893,-5.3182,-5.3665,-5.3775,-5.324,-5.3665,-5.3298,-5.1683,-5.1096,-5.0288,-4.9187,-4.86,-4.8363,-4.8495,-4.9455,-5.0398,-5.1269,-5.2159,-5.2995,-5.3774,-5.3774,-5.3716,-5.3617,-5.3518,-5.3359,-5.3235,-5.3002,-5.2118,-5.0744,-4.9788,-4.8872,0.0,0.0,0.0,0.0,0.0,0.0,0.0,0.0,0.0,0.0,0.0,0.0,0.0,0.0,0.0,0.0,0.0,0.0,0.0,0.0,0.0,0.0,0.0,0.0,0.0,0.0,0.0,0.0,0.0,0.0,0.0,0.0,0.0,0.0,0.0,0.0,0.0,-5.4466,-5.4834,0.0,-5.3941,-5.3658,-5.3395,-5.3095,-5.3357,-5.3733,-5.4242,-5.3808,-5.4146,-5.5535,-5.4521,-5.4634,-5.5986,-5.4934,-5.4934,-5.5986,-5.4934,-5.4521,-5.4747,-5.4221,-5.3508,-5.2682,-5.1855,-5.148,-5.1367,-5.0053,-4.9662,-4.9856,-4.9556,-4.924,-4.8984,-4.8984,-4.8084,-4.6885,0.0,0.0,0.0,0.0,-5.1393,-5.0959,-5.2299,-5.1402,-5.1092,-5.2601,-5.2828,-5.3047,-5.357,-5.3849,-5.3885,-5.3628,-5.3592,-5.3004,-5.1683,-5.0582,-4.9738,-4.9187,-4.8675,-4.8586,-4.903,-4.9676,-5.0583,-5.1788,-5.2345,-5.3162,-5.4203,-5.4203,-5.4182,-5.4101,-5.3964,-5.3678,-5.3297,-5.323,-5.2277,-5.0709,-4.9722,-4.8806,-4.7913,0.0,0.0,0.0,0.0,0.0,0.0,0.0,0.0,0.0,0.0,0.0,0.0,0.0,0.0,0.0,0.0,0.0,0.0,0.0,0.0,0.0,0.0,0.0,0.0,0.0,0.0,0.0,0.0,0.0,0.0,0.0,0.0,0.0,0.0,-5.44,-5.5413,-5.5716,-5.6161,-5.6231,-5.563,-5.5105,-5.4822,-5.4822,-5.4822,-5.5047,-5.5555,-5.5067,-5.5197,-5.6023,-5.4972,-5.4934,-5.6061,-5.4934,-5.4972,-5.6023,-5.4934,-5.4672,-5.518,-5.4634,-5.3958,-5.3149,-5.2268,-5.1743,-5.1405,-5.0053,-4.949,-4.949,-4.949,-4.9302,-4.9077,-4.9077,-4.8176,-4.6974,0.0,0.0,0.0,-5.248,-5.1828,-5.1574,-5.2371,-5.1919,-5.1835,-5.271,-5.2893,-5.3353,-5.4268,-5.3702,-5.3555,-5.4289,-5.2931,-5.1683,-5.0839,-4.926,-4.8343,-4.8269,-4.8438,-4.8956,-4.9843,-4.9973,-5.0879,-5.2605,-5.2605,-5.3423,-5.4983,-5.4983,-5.4961,-5.4899,-5.4798,-5.4232,-5.3355,-5.3267,-5.2604,-5.1458,-4.9972,-4.9088,-4.8596,0.0,0.0,0.0,0.0,0.0,0.0,0.0,0.0,0.0,0.0,0.0,0.0,0.0,0.0,0.0,0.0,0.0,0.0,0.0,0.0,0.0,0.0,0.0,0.0,0.0,0.0,0.0,0.0,0.0,0.0,0.0,0.0,0.0,-5.4585,-5.571,-5.6594,-5.6926,-5.7676,-5.7507,-5.5893,-5.5706,-5.5668,-5.5668,-5.5685,-5.5648,-5.5648,-5.561,-5.5235,-5.4446,-5.4409,-5.4409,-5.4409,-5.4371,-5.4371,-5.4409,-5.4371,-5.4371,-5.4371,-5.4371,-5.3921,-5.3074,-5.2231,-5.1405,-5.0579,-4.9828,-4.949,-4.9452,-4.949,-4.8964,-4.8251,-4.8213,-4.7687,-4.6861,0.0,0.0,-5.248,-5.248,-5.1828,-5.1574,-5.2371,-5.1874,-5.171,-5.2652,-5.2828,-5.3025,-5.3497,-5.3849,-5.3922,-5.3555,-5.3151,-5.227,-5.0875,-4.9811,-4.871,-4.748,-4.8771,-4.9326,-4.8956,-5.0305,-5.1547,-5.2605,-5.2605,-5.3125,-5.4128,-5.4723,-5.5,-5.4998,-5.541,-5.5085,-5.4306,-5.4154,-5.3113,-5.153,-5.0519,-4.9164,-4.7701,0.0,0.0,0.0,0.0,0.0,0.0,0.0,0.0,0.0,0.0,0.0,0.0,0.0,0.0,0.0,0.0,0.0,0.0,0.0,0.0,0.0,0.0,0.0,0.0,0.0,0.0,0.0,0.0,0.0,0.0,0.0,-5.3458,-5.387,-5.4074,-5.6145,-5.7884,-5.8577,-5.884,-5.9027,-5.9215,-5.8108,-5.7395,-5.7395,-5.6972,-5.6664,-5.6664,-5.6137,-5.5722,-5.5496,-5.4777,-5.4409,-5.4409,-5.3808,-5.3808,-5.4409,-5.3808,-5.3524,-5.3524,-5.3524,-5.2736,-5.1383,-5.112,-5.0579,-4.9828,-4.9602,-4.9114,-4.8626,-4.9265,-4.934,-4.9077,-4.8438,-4.7274,-4.596,0.0,-5.248,-5.248,-5.248,-5.2118,-5.1973,-5.2408,-5.2127,-5.2095,-5.2725,-5.285,-5.3083,-5.3644,-5.3812,-5.3849,-5.3702,-5.2784,-5.1793,-5.0875,-4.9701,-4.86,-4.7626,-4.9066,-4.9991,-5.0157,-5.1324,-5.2308,-5.3088,-5.3088,-5.372,-5.4871,-5.5317,-5.5686,-5.598,-5.6277,-5.5971,-5.5133,-5.5,-5.3941,-5.2388,-5.1665,-5.0246,-4.8398,-4.7422,-4.7224,-4.7562,-4.7638,-4.7982,-4.8459,-4.9422,0.0,0.0,0.0,0.0,0.0,0.0,0.0,0.0,0.0,0.0,0.0,0.0,0.0,0.0,0.0,0.0,0.0,0.0,0.0,0.0,0.0,0.0,0.0,0.0,-5.4391,-5.5136,-5.5136,-5.6854,-5.8521,-5.9703,-6.0154,-6.0529,-6.1055,-5.9646,-5.8723,-5.8723,-5.7465,-5.6657,-5.6657,-5.6258,-5.5826,-5.5486,-5.4915,-5.4587,-5.4587,-5.415,-5.4118,-5.4489,-5.4,-5.359,-5.3186,-5.3186,-5.2285,-5.067,-5.0316,-4.9715,-4.8927,-4.8589,-4.8138,-4.7763,0.0,0.0,0.0,0.0,-4.6861,-4.5622,-5.248,-5.248,-5.248,-5.248,-5.248,-5.248,-5.248,-5.2536,-5.2649,-5.2783,-5.2893,-5.3316,-5.4157,-5.3555,-5.3371,-5.4069,-5.2013,-5.0618,-5.0508,-4.9224,-4.8416,-4.8306,-4.9509,-5.0785,-5.2151,-5.2529,-5.3069,-5.3794,-5.3794,-5.4574,-5.6023,-5.6209,-5.6631,-5.7175,-5.7291,-5.6793,-5.5845,-5.5743,-5.4871,-5.352,-5.3089,-5.1749,-4.9786,-4.8355,-4.8224,-4.8706,-4.8051,-4.7907,-4.8107,-4.8959,0.0,0.0,0.0,0.0,0.0,0.0,0.0,0.0,0.0,0.0,0.0,0.0,0.0,0.0,0.0,0.0,0.0,0.0,0.0,0.0,0.0,0.0,0.0,0.0,-5.5385,-5.6962,-5.715,-5.7788,-5.8877,-6.0529,-6.1205,-6.16,-6.1807,-6.0396,-5.9447,-5.9351,-5.7343,-5.6088,-5.6012,-5.6012,0.0,0.0,0.0,-5.492,-5.492,-5.4806,-5.4693,-5.4597,-5.4522,-5.3989,-5.3074,-5.3074,-5.2135,-5.0504,-4.9828,-4.9002,-4.8138,-4.7425,-4.7012,-4.6936,-4.7763,-4.7575,-4.6861,-4.6861,-4.6298,-4.5547,-5.248,-5.248,-5.248,-5.248,-5.248,-5.248,-5.248,-5.2503,-5.2595,-5.2761,-5.2828,-5.2988,-5.3387,-5.2711,-5.227,-5.2454,-5.0859,-4.9517,-4.882,-4.915,-4.904,-4.8343,-5.0463,-5.1556,-5.1321,-5.2749,-5.3587,-5.3794,-5.3794,-5.398,-5.4314,-5.5689,-5.6297,-5.6397,-5.7624,-5.739,-5.6064,-5.6415,-5.5208,-5.3137,-5.3513,-5.2068,-4.9606,-4.8868,-4.8672,-4.8775,-4.8637,-4.9067,-4.9756,-5.007,-5.0244,-5.041,-5.0721,-5.0873,0.0,0.0,0.0,0.0,0.0,0.0,0.0,0.0,0.0,0.0,0.0,0.0,0.0,0.0,0.0,0.0,0.0,0.0,0.0,-5.4767,-5.6136,-5.7338,-5.8652,-5.8952,-5.9703,-6.1355,-6.0492,-6.036,-6.192,-5.9975,-5.84,-5.7889,-5.6922,-5.6022,-5.5337,-5.5299,-5.5223,-5.5071,-5.4941,-5.492,-5.492,-5.42,-5.4088,-5.4597,-5.3918,0.0,-5.2156,-5.2156,-5.1255,-4.9715,-4.9565,-4.9002,-4.8176,-4.8025,-4.7162,-4.6035,-4.6899,-4.6711,-4.596,-4.596,-4.5435,-4.4707,-5.248,-5.248,-5.248,-5.248,-5.248,-5.248,-5.248,-5.248,-5.2549,-5.2694,-5.2717,-5.2806,-5.3082,-5.237,-5.1914,-5.1977,-5.0528,-4.9224,-4.8379,-4.9114,-4.9591,-4.9554,-5.1179,-5.2327,-5.2793,-5.3723,-5.4452,-5.4941,-5.4941,-5.5184,-5.5689,-5.6446,-5.6957,-5.7275,-5.798,-5.767,-5.6599,-5.6831,-5.5651,-5.3612,-5.3949,-5.2783,-5.0863,-5.0581,-5.0257,-4.9947,-4.9947,-5.0034,-5.012,-5.0313,-5.0453,-5.0495,-5.0328,-5.0276,-5.0136,0.0,0.0,0.0,0.0,0.0,0.0,0.0,0.0,0.0,0.0,0.0,0.0,0.0,0.0,-5.0373,-5.1473,0.0,-5.3846,-5.5911,-5.73,-5.8539,-5.9778,-5.9966,-6.0154,-6.0622,-6.0302,-6.045,-6.1495,-5.9782,-5.8477,-5.8137,-5.6725,-5.5717,-5.526,-5.526,-5.526,-5.526,-5.5192,-5.5151,-5.5151,-5.4732,-5.4624,-5.4844,-5.3936,-5.2983,-5.2021,-5.1528,-5.0654,-4.949,-4.9039,-4.8589,-4.8138,-4.7274,-4.6223,-4.5134,-4.557,-4.5458,-4.5097,-4.5097,-4.4857,-4.4482,-5.248,-5.248,-5.248,-5.248,-5.248,-5.248,-5.248,-5.248,-5.2526,-5.259,-5.2613,-5.2702,-5.2959,-5.216,-5.1506,-5.1316,-5.0124,-4.9114,-4.86,-4.9481,-5.0455,-5.1242,-5.2263,-5.3408,-5.4717,-5.4875,-5.5291,-5.608,-5.608,-5.6455,-5.7188,-5.7233,-5.7571,-5.8128,-5.8186,-5.7797,-5.7116,-5.7116,-5.6072,-5.4419,-5.4419,-5.3723,-5.2632,-5.2463,-5.1908,-5.108,-5.0942,-5.0454,-4.985,-4.9931,-5.0077,-5.0195,-4.9837,-4.9811,-4.975,-4.8837,-4.8556,0.0,0.0,0.0,0.0,0.0,0.0,0.0,0.0,0.0,-4.9338,-5.0532,-5.079,-5.1381,-5.3324,-5.4334,-5.531,-5.6662,-5.8239,-5.9478,-6.0041,-6.0285,-6.0171,-5.9482,-6.0086,-6.0722,-6.1115,-5.9741,-5.8752,-5.8629,-5.6774,-5.5556,-5.5403,-5.5403,-5.5403,-5.5403,-5.5403,-5.5403,-5.5403,-5.5403,-5.5273,-5.5033,-5.4235,-5.324,-5.2114,-5.1296,-5.0391,-4.9452,-4.8589,-4.8101,-4.7838,-4.6336,-4.5247,-4.4482,-4.4482,-4.4482,-4.4482,-4.4482,-4.4482,-4.4482,0.0,-5.248,-5.248,-5.248,-5.248,-5.248,-5.248,-5.248,-5.2526,-5.259,-5.2717,-5.2828,-5.298,-5.1747,-5.0305,-4.8857,-4.8563,-4.871,-4.9427,-5.0875,-5.2087,-5.2894,-5.4384,-5.5346,-5.5653,-5.5675,-5.5776,-5.5918,-5.5918,-5.5976,-5.6087,-5.6768,-5.7131,-5.7206,-5.7884,-5.7797,-5.7116,-5.7116,-5.6394,-5.5262,-5.5262,-5.4839,-5.4184,-5.3529,-5.2356,-5.1011,-5.0355,-4.9803,-4.9291,-4.8588,-4.8985,-4.9758,-4.9714,-5.0171,-5.0452,-4.8977,0.0,-4.8179,-4.6846,-4.685,-4.7507,-4.8548,-4.8734,-4.8899,0.0,0.0,-5.0928,-5.2536,-5.2874,-5.3361,-5.503,-5.6061,-5.6662,-5.6849,-5.8239,-5.9065,-5.8464,-5.9173,-5.9444,-5.8797,-5.9324,-6.0169,-6.1254,-5.9855,-5.8635,-5.8037,-5.7032,-5.6167,-5.5441,-5.5403,-5.5403,-5.5403,-5.5403,-5.5403,-5.5403,-5.5403,-5.5233,-5.4912,-5.4821,-5.3747,-5.1925,-5.1818,-5.0954,-4.9452,-4.8589,-4.78,-4.7049,-4.611,-4.5247,-4.4482,-4.4482,-4.4482,-4.4482,-4.4482,-4.4482,-4.4482,0.0,-5.248,-5.248,-5.248,-5.248,-5.2387,-5.2042,-5.2257,-5.2503,-5.2549,-5.2595,-5.2708,-5.285,-5.1653,-5.0141,-4.8453,-4.8306,-4.8857,-5.0215,-5.1353,-5.2564,-5.3849,-5.4987,-5.5853,-5.6375,-5.6375,-5.664,-5.725,-5.725,-5.7294,-5.7359,-5.7626,-5.7744,-5.77,-5.7964,-5.7522,-5.6652,-5.6652,-5.5971,-5.4865,-5.4865,-5.4745,-5.4391,-5.3184,-5.2046,-5.1011,-5.0252,-4.9331,0.0,-4.8178,-4.8443,-4.8802,-4.846,-4.8761,-4.8972,-4.7578,-4.757,0.0,-4.7515,-4.7569,-4.8028,-4.9215,-4.9578,-5.0016,-5.1354,-5.1915,-5.2623,-5.4259,-5.4597,-5.5122,-5.6757,-5.7357,-5.7751,0.0,-5.884,-5.9365,-5.9553,-5.9477,-5.9395,-5.9306,-5.9122,-5.9105,-5.9326,-5.8744,-5.7971,-5.7199,-5.6358,-5.5747,-5.5441,-5.5403,-5.5403,-5.5403,-5.5403,-5.5403,-5.5403,-5.5403,-5.5031,-5.4292,-5.3713,-5.2696,-5.1284,-5.0739,-5.0128,-4.949,-4.9114,-4.8476,-4.7687,-4.7312,-4.6373,-4.5209,-4.5209,-4.4909,-4.4482,-4.4482,-4.4482,-4.4482,0.0,-5.248,-5.2434,-5.2257,-5.2387,-5.2364,-5.1909,-5.2209,-5.248,-5.248,-5.2503,-5.2436,-5.2178,-5.1297,-5.0101,-4.8414,-4.8287,-4.9003,-5.0692,-5.1536,-5.2821,-5.4656,-5.55,-5.6308,-5.7116,-5.7152,-5.7455,-5.8133,-5.8391,-5.8399,-5.8305,-5.8436,-5.8373,-5.8234,-5.8139,-5.7637,-5.689,-5.6751,-5.6041,-5.5022,-5.4868,-5.4563,-5.4046,-5.2494,-5.1291,-5.0361,-4.9631,-4.864,-4.7627,-4.749,-4.7718,-4.7997,-4.7663,-4.7973,-4.8212,-4.7192,-4.7228,-4.7695,-4.8153,-4.8472,-4.8954,-5.012,-5.0778,-5.1548,-5.3121,-5.3654,-5.4334,-5.5931,-5.6269,-5.6719,-5.8164,-5.8427,-5.8502,-5.8614,-5.9027,-5.929,-5.9253,-5.9102,-5.8869,-5.8408,-5.8142,-5.7688,-5.6851,-5.7262,-5.7275,-5.6625,-5.5861,-5.5403,-5.5403,-5.5403,-5.5403,-5.5403,-5.5403,-5.5403,-5.5403,-5.5326,-5.4814,-5.3802,-5.3054,-5.2023,-5.0802,-4.9927,-4.949,-4.949,-4.949,-4.9002,-4.8176,-4.795,-4.7012,-4.566,-4.5472,-4.5021,-4.4482,-4.4482,-4.4482,-4.4482,0.0,0.0,-5.234,-5.1736,-5.2114,-5.248,-5.2457,-5.248,-5.248,-5.248,-5.2559,-5.2053,-5.0633,-5.054,-4.9964,-4.8353,-4.8248,-4.9003,-5.0692,-5.1536,-5.3078,-5.5486,-5.6345,-5.7152,-5.796,-5.796,-5.796,-5.7997,-5.8804,-5.8767,-5.8056,-5.8804,-5.8848,-5.8285,-5.8285,-5.834,-5.841,-5.7857,-5.7193,-5.64,-5.5819,-5.4701,-5.3287,-5.1735,-5.0188,-4.8775,-4.8017,-4.7449,-4.6926,-4.6126,-4.6574,-4.7473,-4.7927,-4.8592,0.0,-4.8712,-4.8127,-4.7695,-4.8153,-4.8934,-4.9861,-5.1155,-5.2168,-5.3372,-5.5039,-5.5485,-5.6006,-5.7657,-5.7995,-5.8276,-5.9102,-5.9253,-5.8764,-5.7225,-5.8276,-5.8464,-5.6081,-5.7308,-5.7503,-5.5066,-5.5761,-5.5836,-5.4175,-5.5605,-5.6625,-5.6587,-5.5861,-5.5403,-5.5403,-5.5403,-5.5403,-5.5403,-5.5403,-5.5403,-5.5403,-5.5195,-5.46,-5.3608,-5.3445,-5.2445,-5.067,-4.9865,-4.949,-4.949,-4.949,-4.9002,-4.8138,-4.735,-4.6523,-4.5622,-4.482,-4.4519,-4.4482,-4.4482,-4.4482,-4.4482,0.0,0.0,0.0,0.0,0.0,-5.2066,-5.2434,-5.248,-5.248,-5.248,-5.2559,0.0,0.0,0.0,0.0,0.0,-4.7731,-4.8426,-5.0168,-5.1355,-5.2821,-5.473,-5.6088,-5.7189,-5.796,-5.851,-5.9061,-5.9612,-5.9355,-5.9355,-5.9575,-5.8896,-5.8765,-5.9092,-5.8655,-5.8267,-5.7922,-5.7218,-5.6497,-5.5813,-5.4623,-5.3839,-5.3115,-5.0562,-4.9258,-4.8568,0.0,-4.6203,-4.6186,-4.5984,-4.624,-4.6699,-4.7156,-4.7702,-4.8229,-4.869,-4.8857,-4.8959,-4.9362,-5.0139,-5.1176,-5.2735,-5.3403,-5.426,-5.6556,-5.7135,-5.7322,-5.7958,-5.7676,-5.7225,-5.6907,-5.6832,-5.6849,-5.6887,-5.7788,-5.8201,-5.7357,-5.7805,-5.7328,-5.4883,-5.4972,0.0,-5.3072,-5.4127,-5.5174,-5.5747,-5.5021,-5.4791,-5.5365,-5.5403,-5.5403,-5.5403,-5.5403,-5.5403,-5.5403,-5.474,-5.3884,-5.2774,-5.1451,-5.0491,-4.9903,-4.9602,-4.949,-4.949,-4.949,-4.934,-4.9039,-4.8776,-4.7838,-4.6561,-4.6261,-4.5458,-4.451,-4.4661,-4.4608,-4.4482,0.0,0.0,0.0,0.0,0.0,0.0,0.0,0.0,0.0,0.0,0.0,0.0,0.0,0.0,0.0,0.0,0.0,-4.8005,-4.9239,-5.0119,-5.1311,-5.2949,-5.4027,-5.5007,-5.5971,-5.652,-5.7102,-5.785,-5.7687,-5.7885,-5.8336,-5.7825,-5.7891,-5.8391,-5.7968,-5.7615,-5.7311,-5.6509,-5.5807,-5.5081,-5.3598,-5.2666,-5.1908,-4.9361,-4.8224,0.0,-4.6071,-4.5581,-4.5761,-4.5854,-4.6065,-4.6277,-4.6765,-4.7335,-4.8015,-4.8696,-4.9084,-4.9344,-4.9599,-5.0525,-5.1806,-5.3498,-5.4187,-5.51,-5.7677,-5.7809,-5.7454,-5.7603,-5.6946,-5.6138,-5.533,-5.518,-5.5272,-5.5535,-5.6249,-5.6699,-5.6399,-5.6361,-5.5645,-5.386,-5.3698,-5.321,0.0,0.0,-5.3556,-5.4752,-5.4384,-5.4486,-5.5365,-5.5403,-5.5403,-5.5403,-5.5403,-5.5403,-5.5403,-5.4473,-5.3324,-5.184,-5.0267,-4.949,-4.949,-4.949,-4.949,-4.949,-4.949,-4.934,-4.9002,-4.8739,-4.78,-4.6486,-4.6299,-4.555,-4.4635,-4.4875,-4.4922,-4.485,0.0,0.0,0.0,0.0,0.0,0.0,0.0,0.0,0.0,0.0,0.0,0.0,0.0,0.0,0.0,0.0,0.0,0.0,-4.7984,-4.8056,-4.8758,-5.0306,-5.0449,-5.1084,-5.2358,-5.2394,-5.2708,-5.3271,-5.4236,-5.4689,-5.4689,-5.5649,-5.6184,-5.635,-5.629,-5.6408,-5.6495,-5.5736,-5.4977,-5.4184,-5.2666,-5.1218,-4.9769,-4.8224,-4.7217,-4.6493,-4.5831,-4.5607,-4.5632,0.0,0.0,0.0,-4.6835,-4.7591,-4.8401,-4.8785,-4.8964,-4.9039,-4.9039,-5.0265,-5.1899,-5.3534,-5.4577,-5.5807,-5.8229,-5.76,-5.65,-5.65,-5.5881,-5.5093,0.0,0.0,-5.3996,-5.3299,-5.3883,-5.4146,-5.3412,-5.3337,-5.2998,0.0,0.0,0.0,0.0,0.0,0.0,-5.3753,-5.3976,-5.4422,-5.5339,-5.5377,-5.5377,-5.5377,-5.5377,-5.5377,-5.5377,-5.4354,-5.2817,-5.0847,-4.9943,-4.949,-4.949,-4.949,-4.949,-4.949,-4.949,-4.9002,-4.8138,-4.7387,-4.6523,-4.5679,-4.5067,-4.4838,-4.4849,-4.5137,-4.5342,-4.5473,0.0,0.0,0.0,0.0,0.0,0.0,0.0,0.0,0.0,0.0,0.0,0.0,0.0,0.0,0.0,0.0,0.0,0.0,-4.6488,-4.7477,-4.8293,-4.8686,-4.9877,-5.0916,-5.185,-5.2485,-5.3109,-5.3868,-5.354,-5.367,-5.422,-5.3478,-5.3415,-5.4048,-5.353,-5.3337,-5.3291,-5.2597,-5.2149,-5.1839,-5.0292,-4.943,-4.8947,-4.7458,-4.6769,-4.6493,-4.5726,-4.5528,0.0,0.0,0.0,0.0,0.0,-4.8307,-4.8767,-4.8855,-4.9782,-5.0748,-5.0748,-5.1936,-5.3608,-5.5243,-5.5337,-5.5413,-5.6719,-5.6274,-5.5268,-5.4161,-5.3297,-5.2507,0.0,0.0,0.0,-5.3036,-5.3883,0.0,-5.4934,-5.501,0.0,-5.3019,0.0,-5.2559,-5.1732,-5.1759,0.0,-5.3437,-5.3092,-5.348,-5.4962,-5.5038,-5.5038,-5.5038,-5.5038,-5.5038,-5.5038,-5.3451,-5.1744,-4.9994,-4.9642,-4.949,-4.949,-4.949,-4.949,-4.949,-4.949,-4.9002,-4.8176,-4.7988,-4.7142,-4.5987,-4.5836,-4.5489,-4.5099,-4.5323,-4.5371,-4.5323,0.0,0.0,0.0,0.0,0.0,0.0,0.0,0.0,0.0,0.0,0.0,0.0,0.0,0.0,0.0,0.0,0.0,0.0,0.0,-4.6605,-4.6924,-4.6924,-4.7759,-4.8579,-4.9252,-4.9739,-5.0443,-5.1415,-5.0763,-5.1028,-5.2093,-5.1064,-5.1032,-5.1765,-5.1395,-5.1252,-5.1154,-5.0424,-5.0085,0.0,0.0,-4.8017,-4.8189,-4.7044,-4.6803,-4.7044,-4.6569,0.0,0.0,0.0,0.0,-4.7925,-4.9201,-4.9647,-4.9788,-5.0359,0.0,-5.1416,-5.1416,-5.2308,-5.3571,-5.4871,-5.4574,-5.4296,-5.5487,-5.4633,-5.333,-5.2504,-5.1714,0.0,-5.0215,-5.015,-5.0466,0.0,0.0,0.0,-5.3866,-5.3979,-5.377,0.0,-5.3186,0.0,-5.1968,-5.2312,-5.279,-5.3279,-5.3082,-5.3518,-5.4844,-5.492,-5.492,-5.492,-5.4541,-5.3973,-5.3252,-5.216,-5.099,-4.9692,-4.9567,-4.949,-4.949,-4.949,-4.949,-4.949,-4.949,-4.8814,-4.7687,-4.7687,-4.6845,-4.5533,-4.5641,-4.5568,-4.5371,-4.5569,-4.5569,-4.5509,0.0,0.0,0.0,0.0,0.0,0.0,0.0,0.0,0.0,0.0,-5.0067,-4.9988,0.0,0.0,0.0,0.0,0.0,0.0,0.0,0.0,-4.5397,-4.5397,-4.5397,-4.5632,-4.6105,-4.6105,-4.6607,-4.7654,-4.7251,-4.7726,-4.903,-4.8578,-4.8706,-4.939,-4.939,-4.939,-4.9355,-4.8741,-4.8499,-4.8396,-4.7217,-4.7148,-4.7603,0.0,-4.7121,-4.7672,0.0,0.0,0.0,0.0,-4.9003,-4.858,-5.0737,-5.1149,-5.1103,-5.2381,-5.2197,-5.1565,-5.1676,-5.2308,-5.3088,-5.3794,-5.3348,-5.3088,-5.4388,-5.2902,-5.1212,-5.119,0.0,-5.0052,-4.9423,-4.939,-4.9527,-4.964,0.0,-5.0954,-5.178,-5.2006,-5.2344,-5.3111,-5.3299,-5.3074,-5.2306,-5.2907,-5.3374,-5.3374,-5.3556,-5.405,-5.4784,-5.4822,-5.4784,-5.4671,-5.3951,-5.2754,-5.1036,-5.0944,-5.0455,-4.9663,-4.9551,-4.949,-4.949,-4.949,-4.949,-4.949,-4.9377,-4.8438,-4.7012,-4.7012,-4.6142,-4.491,-4.5241,-4.5429,-4.5569,-4.5757,-4.5807,-4.5807,0.0,0.0,0.0,0.0,0.0,0.0,0.0,0.0,0.0,0.0,-4.9286,-4.9346,0.0,0.0,0.0,0.0,0.0,0.0,0.0,0.0,0.0,-4.5397,-4.5397,-4.545,-4.5554,-4.5554,-4.5641,-4.5858,-4.578,-4.5866,-4.6142,-4.6036,-4.6052,-4.619,-4.619,-4.619,-4.6224,-4.6741,-4.6975,-4.701,-4.7389,-4.7569,-4.77,-4.7562,0.0,0.0,0.0,0.0,0.0,0.0,-4.9469,-5.0125,-5.1941,-5.2096,-5.1871,-5.3214,-5.3014,-5.2531,-5.32,-5.398,-5.4611,-5.476,-5.4203,-5.3497,-5.3088,-5.1639,0.0,0.0,-4.9467,-4.938,-4.9311,-4.939,-4.9715,-5.0391,0.0,0.0,0.0,0.0,-5.3036,0.0,-5.377,-5.4146,-5.3996,-5.4108,0.0,-5.4183,-5.4234,-5.4305,-5.4455,-5.451,-5.4171,-5.3532,-5.3344,-5.2441,-5.0785,-5.0754,-5.0325,-4.9536,-4.9505,-4.949,-4.949,-4.949,-4.949,-4.9452,-4.8739,-4.7875,-4.7012,-4.7012,-4.6263,-4.5186,-4.5895,-4.6004,-4.5771,-4.5793,-4.5807,-4.5807,0.0,0.0,0.0,0.0,0.0,0.0,0.0,-4.956,-4.956,-4.956,-5.0054,-5.0113,-4.9301,-4.9381,-4.9364,0.0,0.0,0.0,0.0,0.0,0.0,0.0,0.0,0.0,-4.6017,-4.5604,-4.5604,-4.6017,0.0,-4.5811,-4.6569,-4.619,-4.6224,-4.6603,-4.6603,-4.6603,-4.6603,-4.6983,-4.7182,-4.7189,-4.7562,-4.7913,-4.8258,0.0,0.0,0.0,0.0,0.0,0.0,0.0,-5.0404,-5.1051,-5.2756,-5.3535,-5.3849,-5.4485,-5.4266,-5.3831,-5.3831,-5.4091,-5.4277,-5.3868,-5.3162,-5.2345,-5.1491,0.0,0.0,0.0,-4.9064,-4.9164,-4.9246,0.0,0.0,0.0,0.0,0.0,0.0,0.0,0.0,0.0,0.0,0.0,0.0,-5.377,-5.3958,-5.4371,-5.4409,-5.4409,-5.4409,-5.4409,-5.3808,-5.2569,-5.2531,-5.1743,-5.0091,-5.0091,-4.9865,-4.949,-4.949,-4.949,-4.949,-4.949,-4.949,-4.949,-4.9039,-4.8401,-4.7612,-4.7612,-4.6852,-4.57,-4.6069,-4.6021,-4.5642,-4.5642,-4.5696,-4.5807,0.0,0.0,0.0,0.0,0.0,0.0,-4.9965,-5.0101,-5.0135,-5.0304,-5.1004,-5.0963,-4.9607,-4.9649,-4.9701,0.0,0.0,0.0,0.0,0.0,0.0,0.0,0.0,0.0,0.0,0.0,0.0,-4.6837,-4.619,0.0,0.0,0.0,0.0,0.0,-4.7672,-4.7672,-4.7707,-4.7844,-4.7913,0.0,0.0,-4.8534,0.0,0.0,0.0,0.0,0.0,0.0,0.0,0.0,-5.0927,-5.1286,-5.2612,-5.386,-5.4967,-5.5486,-5.5159,-5.4568,-5.4387,-5.4351,-5.4054,-5.2902,-5.2234,-5.1602,-5.0413,-4.9485,0.0,0.0,-4.8996,-4.9118,-4.9197,0.0,-4.9358,0.0,-5.0016,0.0,0.0,0.0,0.0,0.0,0.0,0.0,-5.3186,-5.3186,0.0,-5.4334,-5.4409,-5.4409,-5.4409,-5.4409,-5.3733,-5.2231,-5.2193,-5.1405,-4.9753,-4.9753,-4.9678,-4.949,-4.949,-4.949,-4.949,-4.949,-4.949,-4.949,-4.9302,-4.8814,-4.8176,-4.7988,-4.7222,-4.6089,-4.6151,-4.5906,-4.5518,-4.556,-4.5658,-4.5807,0.0,0.0,0.0,0.0,0.0,0.0,-4.9965,-5.0101,-5.0338,-5.1014,-5.1344,-5.1167,-5.0385,-5.0526,-5.0399,0.0,0.0,0.0,0.0,0.0,0.0,0.0,0.0,0.0,0.0,0.0,0.0,-4.7596,-4.75,0.0,0.0,0.0,0.0,0.0,0.0,-4.7672,-4.7741,-4.8396,0.0,0.0,0.0,0.0,0.0,0.0,0.0,0.0,0.0,0.0,0.0,0.0,0.0,-5.0339,-5.0493,-5.1579,-5.3211,-5.5555,0.0,0.0,-5.5552,-5.606,-5.5503,-5.32,-5.3088,-5.2977,-5.0711,0.0,0.0,-4.889,-4.8996,-4.9118,-4.9197,-4.9241,-4.9358,-4.9474,0.0,-4.9602,0.0,0.0,0.0,0.0,0.0,0.0,-5.3111,-5.3186,-5.3524,-5.4334,-5.4409,-5.4409,-5.4409,-5.4409,-5.3996,-5.3111,-5.3074,-5.2285,-5.0632,-5.0595,-5.0203,-4.949,-4.949,-4.949,-4.949,-4.949,-4.949,-4.9452,-4.8664,-4.8251,-4.8138,-4.7425,-4.6694,-4.6114,-4.6291,-4.5992,-4.5535,-4.5696,-4.5793,-4.5807,0.0,0.0,0.0,0.0,0.0,0.0,-4.9965,-5.0195,-5.0529,-5.1276,-5.1911,-5.2177,-5.1936,-5.1679,-5.1012,-4.9811,0.0,0.0,0.0,0.0,0.0,0.0,0.0,0.0,0.0,0.0,-4.7672,-4.7672,-4.7672,0.0,0.0,0.0,0.0,0.0,0.0,-4.9079,-4.9114,-4.9424,0.0,0.0,0.0,0.0,0.0,0.0,0.0,0.0,0.0,0.0,0.0,0.0,0.0,0.0,-4.9583,-4.9937,0.0,0.0,-5.3756,-5.4023,-5.5198,-5.5673,-5.5307,-5.3124,-5.2828,-5.2419,-4.9968,0.0,0.0,-4.889,-4.8945,-4.9013,-4.9135,-4.9197,-4.9279,-4.9358,-4.9459,0.0,0.0,0.0,0.0,0.0,0.0,0.0,0.0,0.0,-5.3524,-5.4334,-5.4409,-5.4409,-5.4409,-5.4409,-5.4033,-5.3224,-5.2682,-5.1855,-5.0707,-5.0203,-4.9828,-4.949,-4.949,-4.949,-4.949,-4.949,-4.949,-4.949,-4.9114,-4.8964,-4.8927,-4.8063,-4.731,-4.6595,-4.6137,-4.5726,-4.5342,-4.5428,-4.5594,-4.5807,0.0,0.0,0.0,0.0,0.0,-4.9255,-4.9965,-5.0258,-5.0657,-5.1371,-5.2075,-5.258,-5.2851,-5.2155,-5.1287,-5.0463,-5.0164,0.0,0.0,0.0,0.0,0.0,0.0,0.0,0.0,0.0,-4.839,-4.839,-4.839,-4.8665,0.0,0.0,-4.9459,-5.0011,0.0,0.0,0.0,0.0,0.0,0.0,0.0,0.0,0.0,0.0,0.0,0.0,0.0,0.0,0.0,0.0,0.0,0.0,0.0,0.0,0.0,0.0,-5.2638,-5.3671,-5.426,-5.4864,-5.4796,-5.2562,-5.2326,-5.1936,0.0,0.0,0.0,-4.889,-4.889,-4.8945,-4.9084,-4.9148,-4.923,-4.9273,0.0,-4.949,-4.949,0.0,0.0,0.0,0.0,-5.1367,0.0,-5.2907,-5.377,-5.4371,-5.4409,-5.4409,-5.4409,-5.4409,-5.4033,-5.3224,-5.2606,-5.178,-5.0707,-5.0128,-4.9753,-4.949,-4.949,-4.949,-4.949,-4.949,-4.949,-4.949,-4.949,-4.949,-4.9415,-4.8288,-4.7544,-4.6991,-4.5957,-4.544,-4.5303,-4.5371,-4.5569,-4.5807,0.0,0.0,0.0,0.0,0.0,-4.9255,-4.9965,-5.0258,-5.0657,-5.1371,-5.1631,-5.2033,-5.2819,-5.1675,-5.1115,-5.1905,-5.075,0.0,0.0,0.0,0.0,0.0,0.0,0.0,0.0,0.0,-4.9976,-4.9976,-4.9976,-4.9976,-5.0011,-5.0011,-5.0011,-5.0011,0.0,0.0,0.0,0.0,0.0,0.0,0.0,0.0,0.0,0.0,0.0,0.0,0.0,0.0,0.0,0.0,0.0,0.0,0.0,-4.7771,-4.7565,0.0,-5.1556,-5.2087,-5.2915,-5.4035,-5.4309,-5.138,-5.1634,-5.1936,0.0,0.0,0.0,-4.889,-4.889,-4.8945,-4.9084,-4.9148,-4.923,-4.9273,-4.9406,0.0,-4.949,0.0,0.0,0.0,0.0,-5.0166,-5.1743,-5.3395,-5.4409,-5.4409,-5.4409,-5.4409,-5.4409,-5.4409,-5.4033,-5.3224,-5.3186,-5.2397,-5.0707,-5.0707,-5.0278,-4.949,-4.949,-4.949,-4.949,-4.949,-4.949,-4.949,-4.949,-4.949,-4.9377,-4.7687,-4.7132,-4.715,-4.5742,-4.5333,-4.5535,-4.5703,-4.58,-4.5807,0.0,0.0,0.0,0.0,0.0,0.0,-4.9323,-4.9603,-5.0059,-5.0776,-5.1127,-5.1791,-5.3097,-5.189,-5.13,-5.2058,-5.0843,0.0,0.0,0.0,0.0,0.0,0.0,0.0,0.0,-5.0011,-5.0252,-5.0769,-5.0769,-5.0769,-5.0769,-5.0769,-5.0493,-5.0011,-5.0011,-5.0011,0.0,0.0,0.0,0.0,0.0,0.0,-5.0011,0.0,0.0,0.0,0.0,0.0,0.0,0.0,0.0,0.0,0.0,0.0,0.0,-4.91,-5.0112,-5.1161,-5.241,-5.3202,-5.3249,-5.1544,-5.1473,-5.1268,-4.9336,0.0,0.0,-4.889,-4.889,-4.889,-4.8962,-4.9047,-4.9131,-4.923,-4.9311,0.0,0.0,0.0,0.0,0.0,-5.133,-5.2419,0.0,-5.4108,-5.4409,-5.4409,-5.4409,-5.4409,-5.4409,-5.4409,-5.4296,-5.4033,-5.3487,-5.2961,-5.2397,-5.1271,-5.0595,-5.0316,-4.9753,-4.949,-4.949,-4.949,-4.949,-4.949,-4.949,-4.9152,-4.8514,-4.7462,-4.6694,-4.6129,-4.5267,-4.5066,-4.5333,-4.5535,-4.5673,-4.5807,0.0,0.0,0.0,0.0,0.0,0.0,-4.9046,-4.932,-4.9671,-5.0176,-5.0518,-5.1287,-5.2804,-5.1597,-5.1114,-5.2084,-5.0873,0.0,0.0,0.0,0.0,0.0,0.0,0.0,-5.0011,-5.0011,-5.0493,-5.1498,-5.1498,-5.1666,-5.1977,-5.1977,-5.1425,-5.0424,-5.0424,-5.0252,0.0,0.0,0.0,0.0,0.0,0.0,-5.0011,0.0,0.0,0.0,0.0,0.0,0.0,0.0,0.0,0.0,0.0,0.0,0.0,0.0,-4.9435,-5.0037,0.0,-5.1873,-5.2089,-5.0933,-5.0787,0.0,0.0,0.0,0.0,0.0,0.0,0.0,0.0,-4.8996,-4.9118,-4.9148,-4.9246,0.0,0.0,0.0,0.0,-5.0579,0.0,0.0,0.0,-5.4221,-5.4409,-5.4409,-5.4409,-5.4409,-5.4409,-5.4409,-5.4409,-5.4409,-5.3637,-5.3036,-5.2719,-5.1367,-5.0707,-5.0707,-4.9865,-4.949,-4.949,-4.949,-4.949,-4.949,-4.9152,-4.8701,0.0,-4.709,-4.6355,-4.5792,-4.5285,-4.5163,-4.5352,-4.5552,-4.5681,-4.5807,0.0,0.0,0.0,0.0,0.0,0.0,0.0,-4.9381,-4.956,-4.9737,-4.9947,-5.0616,-5.2027,-5.0921,-5.0679,-5.2027,-5.0892,0.0,0.0,0.0,0.0,0.0,0.0,0.0,-5.0011,-5.0011,-5.0735,-5.2188,-5.2188,-5.2632,-5.3391,-5.3391,-5.2597,-5.1114,-5.1114,-5.07,-5.0011,-5.0011,-5.0011,-5.0011,-5.0011,-5.0011,0.0,0.0,0.0,0.0,0.0,0.0,0.0,0.0,0.0,0.0,0.0,0.0,0.0,0.0,0.0,0.0,0.0,-5.0267,-5.0917,-4.9671,-4.9677,-4.9819,-4.9076,0.0,0.0,0.0,0.0,0.0,0.0,0.0,0.0,0.0,0.0,0.0,0.0,0.0,0.0,0.0,-5.1518,0.0,-5.3149,-5.3921,-5.4409,-5.4409,-5.4409,-5.4409,-5.4409,-5.4409,-5.4371,-5.4334,-5.3675,-5.2907,-5.2081,-5.1217,-5.0782,-5.0782,-4.9903,-4.949,-4.949,-4.949,-4.949,-4.9452,-4.8626,-4.8213,-4.8018,-4.673,-4.6114,-4.5962,-4.5621,-4.55,-4.5518,-4.5703,-4.5807,-4.5807,0.0,0.0,0.0,0.0,0.0,0.0,0.0,0.0,0.0,0.0,-5.0502,-5.0889,-5.167,-5.1405,-5.1334,0.0,0.0,0.0,0.0,0.0,0.0,0.0,0.0,0.0,-5.0011,-5.0011,-5.0735,-5.2188,-5.2188,-5.2632,-5.3391,-5.3391,-5.2597,-5.1114,-5.1114,-5.07,-5.0011,-5.0011,-5.0011,-5.0011,-5.0011,-5.0011,0.0,0.0,0.0,0.0,-5.0011,-5.0011,0.0,0.0,0.0,0.0,0.0,0.0,0.0,0.0,-4.8898,-4.8912,-4.899,0.0,-4.943,-4.9101,-4.9117,-4.915,0.0,0.0,0.0,0.0,0.0,0.0,0.0,0.0,0.0,0.0,0.0,0.0,0.0,0.0,0.0,-5.0745,-5.2531,-5.3658,-5.3261,-5.3921,-5.4409,-5.4409,-5.4409,-5.4409,-5.4409,-5.4409,-5.4108,-5.3524,-5.3883,-5.4033,-5.3808,-5.2344,-5.163,-5.1593,-5.0166,-4.949,-4.949,-4.949,-4.949,-4.949,-4.9265,-4.8476,-4.7252,-4.7095,-4.6174,-4.4936,-4.5331,-4.5419,-4.5323,-4.5665,-4.5807,-4.5807,0.0,0.0,0.0,0.0,0.0,0.0,0.0,0.0,0.0,0.0,-5.0875,-5.1017,-5.1525,-5.1175,-5.0964,0.0,0.0,0.0,0.0,0.0,0.0,0.0,0.0,-5.0011,-5.0011,-5.0011,-5.0907,-5.277,-5.277,-5.3322,-5.4425,-5.408,-5.308,-5.1597,-5.0907,-5.039,-5.0011,-5.0011,-5.0011,-5.0011,-5.0011,0.0,0.0,0.0,0.0,0.0,-5.0011,-5.0011,0.0,-5.0011,-5.0068,-5.0083,0.0,0.0,0.0,0.0,-4.9082,-4.889,-4.889,-4.889,-4.889,-4.889,-4.889,-4.889,-4.889,0.0,0.0,0.0,0.0,0.0,0.0,0.0,0.0,0.0,-4.9068,0.0,0.0,0.0,0.0,-5.0654,-5.2193,-5.3395,-5.3695,-5.4146,-5.4409,-5.4409,-5.4409,-5.4221,-5.3846,-5.3846,-5.3675,-5.3224,-5.3637,-5.3846,-5.3846,-5.2569,-5.1893,-5.1893,-5.0278,-4.949,-4.949,-4.949,-4.949,-4.949,-4.9077,-4.8176,-4.7003,-4.6923,-4.5988,-4.4688,-4.538,-4.5526,-4.539,-4.5673,-4.5807,-4.5807,0.0,0.0,0.0,0.0,0.0,0.0,0.0,0.0,0.0,0.0,0.0,0.0,0.0,0.0,0.0,0.0,0.0,0.0,0.0,0.0,0.0,0.0,-5.0011,-5.0011,-5.0011,-5.0011,-5.1011,-5.3046,-5.3287,-5.4115,-5.5426,-5.4908,-5.3804,-5.2119,-5.0804,-5.0114,-5.0011,-5.0011,-5.0011,-5.0011,-5.0011,0.0,0.0,0.0,0.0,0.0,0.0,0.0,0.0,-5.0011,-5.012,-5.0279,-5.0297,0.0,0.0,0.0,0.0,0.0,-4.889,-4.889,-4.889,-4.889,-4.889,-4.889,-4.889,0.0,0.0,0.0,0.0,0.0,0.0,-4.889,0.0,0.0,0.0,0.0,-4.8493,-4.8578,-4.9224,-5.0729,-5.1705,-5.2794,-5.4071,-5.4334,-5.4409,-5.4409,-5.4409,-5.4033,-5.3224,-5.3337,-5.3224,-5.2848,-5.3074,-5.3074,-5.2811,-5.2193,-5.1893,-5.1893,-5.0278,-4.949,-4.949,-4.949,-4.949,-4.9452,-4.8701,-4.7867,-4.7,-4.6704,-4.591,-4.4931,-4.5547,-4.5673,-4.5535,-4.5749,-4.5807,-4.5807,0.0,0.0,0.0,0.0,0.0,0.0,0.0,0.0,0.0,0.0,0.0,0.0,0.0,0.0,0.0,0.0,0.0,0.0,0.0,0.0,0.0,-5.0011,-5.0011,-5.0011,-5.0011,-5.0011,-5.0493,-5.1459,-5.277,-5.3839,-5.4701,-5.5219,-5.4256,-5.2153,-5.1321,-5.0597,-5.0011,-5.0011,-5.0011,-5.0011,-5.0011,0.0,0.0,0.0,0.0,0.0,0.0,0.0,0.0,-5.0011,-5.032,-5.0557,-4.9668,0.0,0.0,0.0,0.0,0.0,-4.889,-4.889,-4.889,-4.889,-4.889,-4.889,-4.889,0.0,0.0,0.0,0.0,0.0,0.0,-4.889,-4.8667,0.0,0.0,-4.8501,0.0,0.0,-5.1345,-5.1689,-5.3095,-5.3846,-5.3449,-5.3996,-5.4409,-5.4409,-5.4409,-5.4033,-5.3224,-5.3846,-5.3245,-5.1158,-5.2473,-5.251,-5.112,-5.163,-5.1893,-5.1893,-5.0278,-4.949,-4.949,-4.949,-4.949,-4.949,-4.9377,-4.8497,-4.7275,-4.7422,-4.6571,-4.5201,-4.5634,-4.5673,-4.5535,-4.5749,-4.5807,-4.5807,0.0,0.0,0.0,0.0,0.0,0.0,0.0,0.0,0.0,0.0,0.0,0.0,0.0,0.0,0.0,0.0,0.0,0.0,0.0,0.0,-5.0183,-5.0597,-5.0218,-5.0183,-5.0597,-5.1011,-5.1977,-5.3497,-5.4253,-5.5184,-5.6322,-5.5012,-5.3425,-5.1567,-5.0838,-5.0321,-5.0011,-5.0011,-5.0011,-5.0011,0.0,0.0,0.0,0.0,0.0,0.0,0.0,0.0,0.0,0.0,-5.0175,-5.0145,-4.9554,0.0,0.0,0.0,0.0,0.0,-4.889,-4.889,-4.889,-4.889,-4.889,-4.889,-4.889,-4.889,0.0,0.0,0.0,0.0,0.0,0.0,-4.8779,-4.8407,0.0,-4.8678,-4.9525,-5.043,-5.1241,-5.1774,-5.2949,-5.377,-5.3846,-5.4183,-5.4221,-5.377,-5.375,-5.3186,-5.1909,-5.2193,-5.1855,-5.0745,-5.1458,-5.1684,-5.1367,-5.1292,-5.1255,-5.1255,-5.0053,-4.949,-4.949,-4.949,-4.949,-4.949,-4.9002,-4.8175,-4.7127,-4.7044,-4.6287,-4.5243,-4.5642,-4.5725,-4.5665,-4.5778,-4.5807,-4.5807,0.0,0.0,0.0,0.0,0.0,0.0,0.0,0.0,0.0,0.0,0.0,0.0,0.0,0.0,0.0,0.0,0.0,0.0,0.0,-5.0011,-5.0252,-5.0838,-5.0459,-5.07,-5.1632,-5.2218,-5.3425,-5.5357,-5.5908,-5.6667,-5.7598,-5.5081,-5.3073,-5.1528,-5.0655,-5.0236,-5.0178,-5.0178,-5.0178,-5.0178,0.0,0.0,0.0,0.0,0.0,0.0,0.0,0.0,0.0,0.0,0.0,0.0,0.0,0.0,0.0,-4.8919,-4.8857,-4.889,-4.889,-4.889,-4.889,-4.889,-4.889,-4.889,-4.889,-4.889,-4.889,0.0,0.0,0.0,0.0,-4.8742,0.0,-4.9113,-4.9039,-4.9148,-4.9792,-5.0529,-5.1323,-5.2269,-5.3044,-5.3712,-5.4334,-5.4221,-5.3846,-5.3261,-5.2998,-5.2247,-5.0782,-5.0879,-5.0804,-5.0444,-5.0579,-5.0917,-5.133,-5.0729,-5.0519,-5.0707,-4.9865,-4.949,-4.949,-4.949,-4.9377,-4.9152,-4.8476,-4.7657,-4.6779,-4.6525,-4.5938,-4.5323,-4.5658,-4.5807,-4.5807,-4.5807,-4.5807,-4.5807,0.0,0.0,0.0,0.0,0.0,0.0,0.0,0.0,0.0,0.0,0.0,0.0,0.0,0.0,0.0,0.0,0.0,0.0,0.0,-5.0011,-5.0011,-5.008,-5.07,-5.1735,-5.3218,-5.3287,-5.3736,-5.4598,-5.6702,-5.746,-5.6874,-5.5908,-5.4499,-5.2803,-5.1557,-5.0951,-5.0721,-5.0721,-5.0721,-5.0721,-5.0721,0.0,0.0,0.0,0.0,0.0,0.0,0.0,0.0,0.0,0.0,0.0,0.0,0.0,-4.9658,-4.8973,-4.8857,-4.889,-4.889,-4.889,-4.889,-4.889,-4.889,-4.889,-4.889,-4.889,0.0,-4.889,0.0,0.0,0.0,-4.8296,-4.8296,-4.9782,-4.941,-4.9743,-5.2101,-5.2581,-5.306,-5.3991,-5.4245,-5.4334,-5.4409,-5.3712,-5.3261,-5.3186,-5.2456,-5.1593,-5.0745,-5.1405,-5.1142,-4.964,-5.0316,-5.0353,-4.9678,-4.9602,-4.994,-5.0707,-4.9865,-4.949,-4.949,-4.949,-4.9039,-4.8288,-4.8213,-4.7434,-4.619,-4.634,-4.6031,-4.5509,-4.5703,-4.5807,-4.5807,-4.5807,-4.5807,-4.5807,0.0,0.0,0.0,0.0,0.0,0.0,0.0,0.0,0.0,0.0,0.0,0.0,0.0,0.0,0.0,0.0,0.0,0.0,0.0,-5.0011,-5.0218,-5.0666,-5.0528,-5.1356,-5.3356,-5.4805,-5.6357,-5.8047,-5.8426,-5.8144,-5.7251,-5.554,-5.4051,-5.2777,-5.1811,-5.1061,-5.0561,-5.0561,-5.0252,-4.9862,-5.0424,-5.0615,0.0,0.0,0.0,0.0,0.0,0.0,0.0,0.0,-4.9942,-4.9804,-4.9366,-4.9191,-4.9121,-4.8914,-4.8892,-4.889,-4.889,-4.889,-4.889,-4.889,-4.889,0.0,0.0,-4.889,-4.889,-4.889,-4.889,0.0,0.0,0.0,-4.8667,-4.9262,-5.0413,-5.136,-5.1843,-5.2864,-5.3719,-5.4145,-5.418,-5.4251,-5.4392,-5.3607,-5.2894,-5.2419,-5.163,-5.0804,-5.0016,-5.0241,-5.0128,-4.9527,-4.979,-4.9828,-4.949,-4.949,-4.964,-4.994,-4.964,-4.949,-4.949,-4.8927,-4.8514,-4.8138,-4.7087,-4.643,-4.6064,-4.578,-4.5591,-4.5535,-4.5703,-4.5807,-4.5807,-4.5807,-4.5807,-4.5807,0.0,0.0,0.0,0.0,0.0,0.0,0.0,0.0,0.0,0.0,0.0,0.0,0.0,0.0,0.0,0.0,0.0,0.0,-5.004,-5.0149,-5.0471,-5.0991,-5.092,-5.1806,-5.3863,-5.5702,-5.759,-5.9461,-5.915,-5.8374,-5.7092,-5.5151,-5.3737,-5.291,-5.2008,-5.1247,-5.0641,-5.0641,-5.0211,-4.9507,-5.015,-5.034,0.0,0.0,0.0,0.0,0.0,0.0,0.0,0.0,-4.9581,-4.9292,-4.9228,-4.903,-4.8804,-4.8892,-4.889,-4.889,-4.889,-4.889,-4.889,-4.889,0.0,0.0,-4.8519,-4.8704,-4.8816,-4.8556,-4.8704,-4.8816,-4.8556,0.0,0.0,-4.9262,-5.0933,-5.2197,-5.2159,-5.3219,-5.4019,-5.4036,-5.4091,-5.4163,-5.434,-5.3294,-5.2432,-5.1952,-5.0917,-5.0091,-4.9527,-4.949,-4.949,-4.949,-4.949,-4.949,-4.949,-4.9227,-4.9077,-4.9077,-4.8814,-4.8852,-4.9077,-4.8213,-4.765,-4.735,-4.6186,-4.5714,-4.5646,-4.5333,-4.5371,-4.561,-4.5764,-4.5807,-4.5807,-4.5807,-4.5807,-4.5807,0.0,0.0,0.0,0.0,0.0,0.0,0.0,0.0,-5.2627,-5.3124,-5.3203,0.0,0.0,0.0,0.0,0.0,0.0,0.0,-5.0068,-5.0509,-5.0803,-5.0803,-5.2015,-5.3378,-5.4955,-5.5889,-5.6896,-5.7909,-5.8633,-5.8009,-5.6158,-5.4825,-5.3956,-5.3459,-5.2182,-5.1467,-5.1212,-5.1176,-5.0741,-4.9995,-5.0069,-5.0425,-5.0848,0.0,0.0,0.0,0.0,0.0,0.0,0.0,-4.999,-4.9824,-4.9064,-4.8787,-4.8822,-4.8892,-4.889,-4.889,-4.889,-4.889,-4.889,0.0,0.0,0.0,-4.7701,-4.8296,-4.8667,-4.7887,-4.8333,-4.8667,-4.785,-4.837,-4.9187,-4.9968,-5.0859,-5.1974,-5.3571,-5.3889,-5.3982,-5.3982,-5.4036,-5.4127,-5.429,-5.2793,-5.1815,-5.1877,-5.0429,-4.949,-4.949,-4.949,-4.949,-4.949,-4.949,-4.949,-4.949,-4.8626,-4.8176,-4.8176,-4.7387,-4.7425,-4.8138,-4.735,-4.6523,-4.5697,-4.5697,-4.5337,-4.4812,-4.5077,-4.5455,-4.5807,-4.5807,-4.5807,-4.5807,-4.5807,-4.5807,-4.5807,0.0,0.0,0.0,0.0,0.0,0.0,0.0,0.0,-5.3017,-5.3203,-5.3203,0.0,0.0,0.0,0.0,0.0,0.0,0.0,-5.1123,-5.091,-5.0964,-5.1347,-5.1714,-5.2147,-5.2585,-5.4437,-5.6417,-5.8465,-5.8057,-5.7199,-5.5903,-5.4974,-5.411,-5.3281,-5.2893,-5.204,-5.089,-5.0325,-4.9651,-4.8979,-4.9703,-4.9709,-4.9344,0.0,0.0,0.0,0.0,0.0,0.0,0.0,0.0,0.0,-4.8967,-4.8892,-4.8855,-4.8873,-4.889,-4.889,-4.889,-4.889,0.0,-4.8184,0.0,0.0,0.0,-4.7478,0.0,0.0,-4.8296,-4.8147,-4.8481,-4.9224,-4.9893,-5.0079,-5.1305,-5.2419,-5.2902,-5.2475,-5.2642,-5.3833,-5.3423,-5.3329,-5.4089,-5.2632,-5.1694,-5.1815,-5.0381,-4.949,-4.949,-4.949,-4.9227,-4.8589,-4.8589,-4.8326,-4.7763,-4.75,-4.735,-4.735,-4.6486,-4.6523,-4.735,-4.6486,-4.596,-4.5674,-4.524,-4.5052,-4.5088,-4.5453,-4.5681,-4.5807,-4.5807,-4.5807,-4.5807,-4.5807,-4.6194,-4.6619,0.0,0.0,0.0,0.0,0.0,0.0,0.0,0.0,-5.3203,-5.3203,-5.3203,-5.3082,0.0,0.0,0.0,0.0,0.0,0.0,-5.1576,-5.15,-5.1576,-5.1897,-5.2126,-5.2294,-5.2364,-5.4262,-5.5711,-5.6652,-5.6822,-5.6321,-5.5207,-5.4532,-5.3872,-5.3203,-5.3203,-5.2307,-5.0765,-5.0311,-4.9468,-4.8568,-4.9215,-4.9159,-4.8752,0.0,0.0,0.0,0.0,0.0,0.0,0.0,0.0,0.0,-4.889,-4.889,-4.889,-4.889,-4.889,-4.889,-4.889,-4.889,0.0,-4.7887,-4.7441,-4.7107,-4.6624,0.0,0.0,0.0,-4.8519,-4.8221,-4.8407,-4.9113,-4.967,-4.9633,-5.1045,-5.2122,-5.2122,-5.2271,-5.2512,-5.2921,-5.2754,-5.2698,-5.3029,-5.1907,-5.1174,-5.1295,-5.0193,-4.934,-4.9002,-4.8964,-4.8589,-4.7763,-4.7725,-4.75,-4.7012,-4.6674,-4.6486,-4.6486,-4.5622,-4.551,-4.5983,-4.5472,-4.5209,-4.5186,-4.5053,-4.5088,-4.5362,-4.5658,-4.5807,-4.5807,-4.5807,-4.5807,-4.5807,-4.5807,-4.6116,-4.6503,0.0,0.0,-5.3203,-5.3203,0.0,0.0,0.0,0.0,-5.3203,-5.3203,-5.3203,-5.3203,0.0,0.0,0.0,0.0,0.0,-5.2221,-5.1775,-5.2173,-5.2408,-5.2454,-5.2952,-5.3303,-5.3481,-5.4728,-5.4765,-5.3458,-5.5183,-5.5429,-5.4268,-5.3799,-5.3422,-5.3203,-5.3093,-5.2234,-5.0822,-5.0701,-4.9839,-4.8532,-4.8715,-4.8804,-4.8822,-4.8892,0.0,0.0,0.0,0.0,0.0,0.0,0.0,0.0,-4.889,-4.889,-4.889,-4.889,-4.889,-4.889,-4.889,0.0,0.0,-4.7776,-4.6995,0.0,-4.6475,-4.7107,-4.7924,-4.8742,0.0,-4.8667,-4.7924,-4.8481,-4.9039,-4.9002,-5.0302,-5.1305,-5.1379,-5.2531,-5.2865,-5.1565,-5.1974,-5.2159,-5.1542,-5.0827,-5.0464,-5.0584,-4.9856,-4.9039,-4.8251,-4.8138,-4.7725,-4.6899,-4.6899,-4.6861,-4.6772,-4.5998,-4.5585,-4.5585,-4.4857,-4.4482,-4.4482,-4.4482,-4.451,-4.4592,-4.5015,-4.5342,-4.5552,-4.5711,-4.5807,-4.5807,-4.5807,-4.5807,-4.5807,-4.5807,-4.5884,-4.6,0.0,0.0,-5.3203,-5.3203,0.0,0.0,0.0,0.0,0.0,-5.3203,0.0,0.0,0.0,0.0,0.0,0.0,-5.2649,-5.2522,-5.2828,-5.2545,-5.2604,-5.3017,-5.3124,-5.3234,-5.3273,-5.3564,-5.3564,-5.3273,-5.4916,-5.4948,-5.346,-5.3961,-5.3851,-5.3167,-5.2527,-5.1724,-5.0792,-4.9543,-4.8919,-4.8733,-4.8787,-4.884,-4.8892,-4.8873,-4.889,0.0,0.0,0.0,0.0,0.0,0.0,0.0,-4.889,-4.889,-4.889,-4.889,-4.889,-4.889,-4.889,-4.8444,0.0,0.0,-4.6141,-4.5732,-4.6364,-4.7107,-4.7924,-4.8742,-4.889,-4.8853,-4.8667,-4.9336,-4.9893,-4.9856,-5.0153,-5.0636,-5.1305,-5.0562,-5.0302,-5.1268,-5.0971,-5.0822,-5.1378,-5.0775,-5.0409,-5.0464,-4.9224,-4.8401,-4.8213,-4.7612,-4.6861,-4.5998,-4.5998,-4.5697,-4.5045,-4.4857,-4.4759,-4.4759,-4.4594,-4.4482,-4.4482,-4.4482,-4.47,-4.506,-4.5159,-4.5419,-4.5757,-4.5793,-4.5807,-4.5807,-4.5807,-4.5807,-4.5807,-4.5807,-4.6658,-4.7657,0.0,0.0,0.0,0.0,0.0,0.0,0.0,0.0,0.0,0.0,0.0,0.0,0.0,0.0,0.0,0.0,-5.2952,-5.2893,-5.3203,-5.2952,-5.293,-5.3203,-5.3203,-5.3203,-5.3203,-5.3203,-5.3203,-5.3203,-5.4032,-5.4032,-5.3203,-5.3628,-5.3592,-5.3188,-5.2385,-5.1638,-5.0831,-4.9694,-4.9067,-4.8804,-4.884,-4.8892,-4.889,-4.889,-4.889,-4.889,-4.889,0.0,0.0,0.0,0.0,0.0,0.0,0.0,-4.889,-4.889,-4.889,-4.889,-4.889,0.0,0.0,-4.6215,0.0,-4.5509,-4.6327,-4.7107,-4.7924,-4.8742,-4.889,-4.889,-4.889,-4.9262,-4.9559,-4.9522,-4.9856,-5.0116,-5.019,-5.0153,-5.0116,-5.019,-5.0153,-5.0116,-5.019,-4.9941,-4.9633,-4.9272,-4.8562,-4.783,-4.7049,-4.6599,-4.5998,-4.5172,-4.5134,-4.4932,-4.4482,-4.4482,-4.4482,-4.4482,-4.4482,-4.4482,-4.4482,-4.4482,-4.4687,-4.5038,-4.5159,-4.539,-4.5658,-4.5771,-4.5807,-4.5807,-4.5807,-4.5807,-4.5807,-4.5807,-4.6387,-4.7038,0.0,0.0,0.0,0.0,0.0,0.0,0.0,0.0,0.0,0.0,0.0,0.0,0.0,0.0,-5.3203,0.0,0.0,0.0,-5.3203,-5.3203,-5.3203,-5.3203,-5.3203,-5.3203,-5.3203,-5.3203,-5.3203,-5.3203,-5.3203,-5.3203,-5.3203,-5.3203,-5.3151,-5.2968,-5.2226,-5.1477,-5.0686,-5.0065,-4.9416,-4.8822,-4.8892,-4.889,-4.889,-4.889,-4.889,-4.889,-4.889,-4.889,-4.889,-4.889,0.0,0.0,0.0,0.0,-4.889,-4.889,-4.889,-4.889,0.0,0.0,-4.7144,-4.5658,-4.5175,0.0,-4.6104,-4.681,-4.7553,-4.8519,-4.8816,-4.889,-4.889,-4.889,-4.889,-4.889,-4.9447,-4.967,-4.9002,-5.0079,-5.045,-4.9076,-4.9485,-4.9596,-4.8779,-4.8939,-4.8725,-4.7836,-4.7841,-4.726,-4.5772,-4.5585,-4.5209,-4.4519,-4.4482,-4.4482,-4.4482,-4.4482,-4.4482,-4.4482,-4.4482,-4.4482,-4.4482,-4.4482,-4.4608,-4.4812,-4.5066,-4.5323,-4.5526,-4.5703,-4.5807,-4.5807,-4.5807,-4.5807,-4.5807,-4.5807,-4.5884,-4.6,0.0,0.0,0.0,0.0,0.0,0.0,0.0,0.0,0.0,0.0,-5.3203,-5.3203,0.0,-5.3203,-5.3203,-5.3203,-5.3203,-5.3203,-5.3203,0.0,0.0,-5.3203,-5.3203,-5.3203,-5.3203,-5.3203,-5.3203,-5.3203,-5.3203,-5.3203,-5.3203,-5.3203,-5.2821,-5.2144,-5.138,-5.0669,-4.9897,-4.9251,-4.8951,-4.891,-4.889,-4.889,-4.889,-4.889,-4.889,-4.889,-4.889,-4.889,-4.889,-4.889,-4.889,0.0,0.0,0.0,-4.889,-4.889,-4.889,-4.889,0.0,0.0,0.0,0.0,-4.4729,-4.4395,0.0,0.0,-4.603,0.0,-4.8407,-4.889,-4.889,-4.889,-4.889,-4.889,-4.9002,-4.9039,-4.8927,-4.9076,-4.915,-4.8927,-4.9002,-4.8742,-4.7924,-4.8604,-4.8501,-4.6978,-4.6943,-4.6585,-4.5735,-4.5059,-4.4594,-4.4482,-4.4482,-4.4482,-4.4482,-4.4482,-4.4482,-4.4482,-4.4482,-4.4482,-4.4482,-4.4482,-4.4608,-4.4812,-4.5066,-4.5323,-4.5526,-4.5703,-4.5807,-4.5807,-4.5807,-4.5807,-4.5807,-4.5807,-4.6271,-4.6806,0.0,0.0,0.0,0.0,0.0,0.0,0.0,0.0,0.0,0.0,0.0,-5.3203,0.0,-5.3203,-5.3203,-5.3203,-5.3203,-5.3203,-5.3203,-5.3203,-5.3203,-5.3203,-5.3203,-5.3203,-5.3203,-5.3203,-5.3203,-5.3203,-5.3203,-5.3203,-5.3203,-5.3203,-5.2784,-5.1961,-5.1293,-5.0543,-4.975,-4.9138,-4.8855,-4.889,-4.889,-4.889,-4.889,-4.889,-4.889,-4.889,-4.889,-4.889,-4.889,-4.889,-4.889,-4.889,-4.889,0.0,0.0,0.0,-4.889,0.0,-4.837,0.0,0.0,0.0,-4.4989,-4.4841,-4.5212,0.0,-4.5621,-4.6773,-4.7293,-4.7701,-4.8147,-4.8593,-4.8742,-4.8296,-4.863,-4.889,-4.889,-4.889,-4.889,-4.889,-4.8519,-4.8073,-4.7738,-4.7661,-4.7169,-4.6057,-4.6022,-4.5739,-4.5002,-4.4655,-4.4482,-4.4482,-4.4482,-4.4482,-4.4482,-4.4482,-4.4482,-4.4482,-4.4482,-4.4482,-4.4482,-4.4482,-4.4608,-4.4812,-4.5066,-4.5323,-4.5526,-4.5703,-4.5807,-4.5807,-4.5807,-4.5807,-4.5807,-4.5807,-4.6039,-4.631,0.0,0.0,0.0,0.0,0.0,0.0,0.0,0.0,0.0,0.0,0.0,0.0,0.0,0.0,0.0,0.0,-5.3004,-5.3004,-5.3188,-5.3203,-5.3203,-5.3203,-5.3203,-5.3203,-5.3203,-5.3203,-5.3093,-5.2894,-5.2894,-5.2894,-5.2894,-5.2711,-5.227,-5.1687,-5.1298,-5.0526,-4.9529,-4.908,-4.889,-4.889,-4.889,-4.889,-4.889,-4.889,-4.889,-4.889,-4.889,-4.889,-4.889,-4.889,-4.889,-4.889,-4.889,-4.889,0.0,0.0,0.0,0.0,0.0,0.0,0.0,0.0,0.0,0.0,0.0,0.0,-4.5472,0.0,-4.6178,-4.6364,-4.6995,-4.7738,-4.8073,-4.7478,-4.7887,-4.8296,-4.8296,-4.8296,-4.8296,-4.8296,-4.7776,-4.7293,-4.7107,-4.6735,-4.6099,-4.5152,-4.5326,-4.5141,-4.4435,-4.444,-4.4468,-4.4482,-4.4482,-4.4482,-4.4482,-4.4482,-4.4482,-4.4482,-4.4482,-4.4482,-4.4482,-4.4482,-4.4648,-4.4908,-4.5126,-4.5323,-4.5526,-4.5703,-4.5807,-4.5807,-4.5807,-4.5807,-4.58,-4.5725,-4.5711,-4.5703,0.0,0.0,0.0,0.0,0.0,0.0,0.0,0.0,0.0,0.0,0.0,0.0,-5.3203,-5.2527,-5.238,-5.3151,-5.2491,-5.238,-5.313,-5.3203,-5.3203,-5.3203,-5.3203,0.0,-5.3203,-5.3203,-5.2821,-5.205,-5.205,-5.205,-5.205,-5.1279,-5.0952,-5.0979,-5.1059,-5.025,-4.8861,-4.8892,-4.889,-4.889,-4.889,-4.889,-4.889,-4.889,-4.889,-4.889,-4.889,-4.889,-4.889,-4.889,-4.889,-4.889,-4.889,-4.889,-4.889,0.0,0.0,0.0,0.0,0.0,0.0,0.0,0.0,0.0,0.0,0.0,-4.5287,-4.5361,-4.5361,-4.5361,-4.5398,-4.6067,-4.6624,-4.655,-4.6587,-4.6624,-4.6624,-4.6624,-4.6624,-4.6624,-4.6587,-4.6252,-4.5509,-4.6067,-4.5876,-4.437,-4.4982,-4.5117,-4.442,-4.4397,-4.4426,-4.4482,-4.4482,-4.4482,-4.4482,-4.4482,-4.4482,-4.4482,-4.4482,-4.4482,-4.4482,-4.4482,-4.4751,-4.5191,-4.5201,-4.5323,-4.5526,-4.5703,-4.5807,-4.5807,-4.5807,-4.5807,-4.5786,-4.5594,-4.5526,-4.55,0.0,0.0,0.0,0.0,0.0,0.0,0.0,0.0,0.0,0.0,0.0,0.0,0.0,-5.1389,-5.1353,-5.1646,-5.1867,-5.2123,-5.2417,-5.2931,-5.3203,-5.3203,-5.3203,-5.3203,-5.3203,-5.3203,-5.2821,-5.1977,-5.1977,-5.172,-5.1206,-5.0993,-5.063,-5.0191,-5.023,-4.9732,-4.8804,-4.8855,-4.889,-4.889,-4.889,-4.889,-4.889,-4.889,-4.8593,-4.8184,-4.8704,-4.8556,-4.8221,-4.8742,-4.889,-4.889,-4.889,-4.889,-4.889,0.0,0.0,0.0,0.0,0.0,0.0,0.0,0.0,-4.707,-4.6252,-4.5658,-4.5287,-4.5287,-4.5287,-4.5287,-4.5287,-4.5955,-4.6327,-4.5807,-4.6141,-4.6513,-4.6513,-4.6513,-4.6513,-4.6513,-4.603,-4.5621,-4.5324,-4.5064,-4.4687,-4.4221,-4.4505,-4.4617,-4.4397,-4.4426,-4.4468,-4.4482,-4.4482,-4.4482,-4.4482,-4.4482,-4.4482,-4.4482,-4.4482,-4.4482,-4.4482,-4.4482,-4.4764,-4.5191,-4.5,-4.5235,-4.5681,-4.5634,-4.5673,-4.5786,-4.5526,-4.5509,-4.5585,-4.54,-4.5323,-4.5313,0.0,0.0,0.0,0.0,0.0,-5.0912,-5.0105,-5.0215,-5.0418,-5.0438,0.0,0.0,0.0,0.0,-5.0441,-5.0421,-5.1193,-5.1614,-5.161,-5.2087,-5.2527,-5.2784,-5.2821,-5.2931,-5.3167,-5.2931,-5.2417,-5.161,-5.1336,-5.0932,-5.0421,-5.0186,-5.0007,-4.9862,-4.9566,-4.9214,-4.884,-4.8892,-4.889,-4.889,-4.889,-4.889,-4.889,-4.889,-4.8556,-4.8147,-4.8407,-4.8147,-4.7738,-4.7999,-4.8073,-4.8147,-4.8407,-4.8667,-4.889,-4.889,0.0,0.0,-4.889,0.0,0.0,0.0,0.0,-4.7887,-4.7107,-4.6475,-4.5955,-4.5398,-4.5509,-4.5621,-4.5361,-4.5955,-4.6252,-4.5435,-4.5509,-4.5769,-4.6067,-4.6104,-4.6104,-4.6104,-4.5844,-4.5472,-4.4915,-4.4618,-4.4352,-4.4153,-4.4229,-4.4304,-4.4354,-4.4426,-4.4468,-4.4482,-4.4482,-4.4482,-4.4482,-4.4482,-4.4482,-4.4482,-4.4482,-4.4482,-4.4482,-4.4482,-4.4713,-4.5071,-4.4872,-4.5166,-4.5786,-4.5526,-4.5569,-4.5771,-4.5371,-4.5333,-4.5444,-4.5163,-4.5082,-4.5071,0.0,0.0,-5.0545,-4.9757,-4.961,-4.9317,-4.8453,-4.9023,-4.9576,-4.9673,0.0,0.0,0.0,0.0,0.0,-4.9692,-5.039,-5.0829,-5.0765,-5.0802,-5.1132,-5.194,-5.1977,-5.238,-5.313,-5.2417,-5.161,-5.0802,-5.0014,-4.9613,-4.9636,-4.8863,-4.9049,-4.9917,-4.9157,-4.884,-4.889,-4.889,-4.889,-4.889,-4.889,-4.889,-4.889,-4.889,-4.889,-4.8779,-4.7999,-4.7738,-4.759,-4.681,-4.655,-4.6698,-4.7478,-4.8259,-4.889,-4.889,0.0,0.0,0.0,0.0,0.0,0.0,0.0,0.0,-4.7924,-4.7738,-4.7256,-4.5695,-4.5992,-4.629,-4.5509,-4.5992,-4.629,-4.5509,-4.4655,-4.4358,-4.5212,-4.5324,-4.5324,-4.5324,-4.603,-4.5844,-4.4209,-4.4804,-4.4952,-4.4061,-4.4138,-4.4229,-4.4318,-4.4354,-4.4426,-4.4482,-4.4482,-4.4482,-4.4482,-4.4482,-4.4482,-4.4482,-4.4482,-4.4482,-4.4482,-4.4482,-4.4608,-4.4788,-4.4788,-4.5156,-4.5771,-4.5371,-4.5455,-4.5771,-4.5362,-4.5323,-4.5417,-4.4966,-4.4776,-4.4739,0.0,-5.0802,-5.0545,-4.9757,-4.9632,-4.9377,-4.8548,-4.8697,-4.8882,0.0,0.0,0.0,-4.927,-4.9086,-4.8938,-4.8901,-4.962,-5.0099,-5.0002,-5.0534,-5.0936,-5.1132,-5.1683,-5.2087,-5.2344,-5.2087,-5.1614,-5.0865,-5.0076,-4.9397,-4.8901,-4.879,-4.8881,-4.912,-4.8932,-4.8873,-4.889,-4.889,-4.889,-4.889,-4.889,-4.889,-4.889,-4.889,-4.8556,-4.8073,-4.8444,-4.8184,-4.7664,-4.7441,-4.7738,-4.8259,-4.8519,-4.8704,0.0,-4.889,-4.889,0.0,-4.889,0.0,0.0,0.0,0.0,0.0,-4.863,-4.811,-4.7553,-4.7144,-4.7218,-4.7293,-4.707,-4.7218,-4.7293,-4.707,-4.6364,-4.5881,-4.6141,-4.6178,-4.6178,-4.6178,-4.6364,-4.6104,-4.5026,-4.5138,-4.4984,-4.4191,-4.4184,-4.4259,-4.4354,-4.4426,-4.4468,-4.4482,-4.4482,-4.4482,-4.4482,-4.4482,-4.4482,-4.4482,-4.4482,-4.4482,-4.4482,-4.4482,-4.4608,-4.4788,-4.4661,-4.4887,-4.5371,-4.5253,-4.5455,-4.5725,-4.5163,-4.5055,-4.5243,-4.4777,-4.4568,-4.4592,-4.9833,-4.9833,-4.9706,-4.9249,-4.9232,-4.9066,-4.8587,-4.8569,-4.8624,0.0,0.0,0.0,-4.8732,-4.8732,-4.8714,-4.8678,-4.9104,-4.9326,-4.927,-4.9693,-5.006,-5.037,-5.0829,-5.1193,-5.1524,-5.1189,-5.0805,-5.0368,-4.958,-4.8993,-4.8587,-4.8751,-4.8822,-4.8857,-4.8873,-4.8704,-4.8407,-4.8407,-4.8593,-4.889,-4.889,-4.889,-4.8853,-4.8519,-4.811,-4.7664,-4.7478,-4.7107,-4.6698,-4.6698,-4.7441,-4.8333,-4.7999,-4.8147,-4.8481,-4.8816,-4.8667,0.0,-4.8816,0.0,0.0,-4.889,0.0,0.0,-4.8481,-4.8296,-4.7999,-4.733,-4.7478,-4.7701,-4.7701,-4.7701,-4.7701,-4.7701,-4.7293,-4.6884,-4.655,-4.6513,-4.6513,-4.6513,-4.681,-4.6661,-4.5881,-4.5807,-4.5504,-4.4733,-4.4355,-4.4259,-4.4383,-4.4454,-4.4482,-4.4482,-4.4482,-4.4482,-4.4482,-4.4482,-4.4482,-4.4482,-4.4482,-4.4482,-4.4482,-4.4482,-4.4541,-4.4649,-4.4565,-4.4713,-4.5011,-4.5011,-4.5235,-4.547,-4.4896,-4.4826,-4.5004,-4.4621,-4.4482,-4.4482,0.0,-4.8494,-4.8532,-4.8605,-4.8624,-4.8624,-4.8624,-4.8642,-4.8678,0.0,-4.8804,-4.884,-4.8873,-4.889,-4.8892,-4.8822,-4.8804,-4.8769,-4.8642,-4.8624,-4.8919,-4.9621,-4.9693,-5.0041,-5.0777,-5.0,-4.9649,-4.9649,-4.888,-4.8587,-4.8642,-4.8769,-4.882,-4.8779,-4.8779,-4.8333,-4.7553,-4.7553,-4.7999,-4.863,-4.8742,-4.8779,-4.8704,-4.7961,-4.7701,-4.7516,-4.5992,-4.5435,-4.5435,-4.5435,-4.6327,-4.733,-4.681,-4.707,-4.7738,-4.8519,-4.8259,0.0,0.0,0.0,0.0,-4.8779,-4.8779,0.0,-4.7999,-4.8407,-4.8481,-4.707,-4.733,-4.7813,-4.7813,-4.7776,-4.7738,-4.7813,-4.7776,-4.7404,-4.6624,-4.6513,-4.6513,-4.6624,-4.7256,-4.7404,-4.6698,-4.655,-4.6178,-4.5361,-4.4637,-4.4259,-4.4383,-4.444,-4.4482,-4.4482,-4.4482,-4.4482,-4.4482,-4.4482,-4.4482,-4.4482,-4.4482,-4.4482,-4.4482,-4.4482,-4.4482,-4.4482,-4.4482,-4.4595,-4.4789,-4.4789,-4.4957,-4.5159,-4.4713,-4.4648,-4.4763,-4.4595,-4.4537,-4.4537,-4.8476,-4.8494,-4.8532,-4.8605,-4.8678,-4.8769,-4.8769,-4.8785,-4.8838,-4.8892,-4.8892,-4.891,-4.889,-4.889,-4.8873,-4.8873,-4.8892,-4.8857,-4.8769,-4.8769,-4.877,-4.8827,-4.9436,-4.9861,-5.0008,-4.9842,-4.9787,-4.9917,-4.9122,-4.8787,-4.8838,-4.8855,-4.8539,-4.7924,-4.7924,-4.7478,-4.6735,-4.6735,-4.681,-4.7033,-4.7664,-4.7924,-4.7924,-4.7776,-4.7701,-4.7553,-4.6624,-4.6252,-4.6252,-4.6252,-4.603,-4.5955,-4.7107,-4.7144,-4.6884,-4.7701,-4.7813,-4.759,-4.7107,-4.7441,-4.7924,-4.7924,-4.7924,0.0,-4.8556,-4.8779,-4.8816,-4.8519,-4.8556,-4.8667,-4.8667,-4.8147,-4.7924,-4.8556,-4.811,-4.7404,-4.6624,-4.6513,-4.6735,-4.7404,-4.759,-4.7627,-4.7478,-4.6884,-4.6178,-4.5361,-4.4637,-4.4244,-4.4333,-4.4368,-4.444,-4.4482,-4.4482,-4.4482,-4.4482,-4.4482,-4.4482,-4.4482,-4.4482,-4.4482,-4.4482,-4.4482,-4.4482,-4.4482,-4.4482,-4.4524,-4.4565,-4.4565,-4.4801,-4.518,-4.4837,-4.4789,-4.4788,-4.4777,-4.4752,-4.4789,-4.8624,-4.8642,-4.8679,-4.8732,-4.8785,-4.8857,-4.8857,-4.8892,-4.889,-4.889,-4.889,-4.8742,-4.837,-4.8296,-4.8147,-4.7738,-4.7701,-4.7684,-4.767,-4.7633,-4.7801,-4.812,-4.8511,-4.89,-4.9307,-4.9252,-4.9215,-4.9307,-4.8954,-4.8822,-4.882,-4.8464,-4.8073,-4.7664,-4.7293,-4.6661,-4.5881,-4.5881,-4.5658,-4.5361,-4.6587,-4.7107,-4.707,-4.6661,-4.6513,-4.6401,-4.5547,-4.5547,-4.5844,-4.5398,-4.5807,-4.6513,-4.6513,-4.6513,-4.6661,-4.7441,-4.7144,-4.6587,-4.6995,-4.7107,-4.7107,-4.7107,-4.7404,0.0,0.0,-4.8333,-4.8667,-4.7887,-4.8036,-4.8296,-4.8296,-4.7961,-4.7701,-4.7701,-4.7701,-4.7144,-4.5472,-4.6327,-4.7256,-4.7664,-4.7701,-4.785,-4.8259,-4.7553,-4.6587,-4.5398,-4.4637,-4.4214,-4.4259,-4.434,-4.4411,-4.444,-4.4468,-4.4482,-4.4482,-4.4482,-4.4482,-4.4482,-4.4482,-4.4482,-4.4482,-4.4482,-4.4482,-4.4482,-4.4482,-4.4482,-4.4482,-4.4482,-4.4621,-4.4826,-4.4688,-4.4714,-4.4788,-4.4788,-4.4872,-4.5,-4.875,-4.8787,-4.8822,-4.891,-4.889,-4.889,-4.889,-4.889,-4.8853,-4.8704,-4.8667,-4.837,-4.7553,-4.7478,-4.7218,-4.655,-4.6513,-4.6513,-4.6513,-4.6513,-4.6773,-4.7441,-4.7411,-4.771,-4.834,-4.827,-4.8197,-4.8197,-4.8305,-4.8377,-4.834,-4.7742,-4.7404,-4.7218,-4.655,-4.5807,-4.5026,-4.5026,-4.4655,-4.4135,-4.5472,-4.6104,-4.6178,-4.5563,-4.5319,-4.5207,-4.4352,-4.4485,-4.4952,-4.4246,-4.5435,-4.6995,-4.5695,-4.5732,-4.6401,-4.7033,-4.6327,-4.5547,-4.6698,-4.6624,-4.6252,-4.6252,-4.6773,-4.7107,0.0,0.0,0.0,-4.6995,-4.7367,-4.7924,0.0,0.0,-4.7478,-4.6847,-4.7144,-4.6773,-4.4766,-4.6215,-4.7404,-4.7256,-4.7516,-4.7961,-4.863,-4.7924,-4.6884,-4.5398,-4.4569,-4.4184,-4.4199,-4.4281,-4.4368,-4.4397,-4.444,-4.4468,-4.4482,-4.4482,-4.4482,-4.4482,-4.4482,-4.4482,-4.4482,-4.4482,-4.4482,-4.4482,-4.4482,-4.4482,-4.4482,-4.4482,-4.4482,-4.4468,-4.4482,-4.4621,-4.4776,-4.4837,-4.5,-4.5232,-4.8656,-4.8787,-4.8822,-4.891,-4.889,-4.889,-4.889,-4.889,-4.863,-4.7924,-4.785,-4.7516,-4.6735,-4.6624,-4.6587,-4.6513,-4.6513,-4.6513,-4.6513,-4.6513,-4.655,-4.6624,-4.6624,-4.6682,-4.6756,-4.6756,-4.6739,-4.6739,-4.6756,-4.6756,-4.6756,-4.6698,-4.6252,-4.5547,-4.5472,-4.4952,0.0,-4.4135,-4.4098,-4.4023,-4.4209,-4.4729,-4.5451,-4.5419,-4.5398,-4.5286,-4.4482,-4.416,-4.4135,-4.4023,-4.4692,-4.5547,-4.5361,-4.5361,-4.5435,-4.5547,-4.5435,-4.5175,-4.4581,-4.4915,-4.5435,-4.5435,-4.5509,-4.5732,-4.6364,0.0,-4.7776,-4.759,0.0,-4.8779,-4.8779,0.0,0.0,-4.759,-4.7033,-4.655,-4.6252,-4.6475,-4.6364,-4.5658,-4.681,-4.7738,-4.7813,-4.7107,-4.6252,-4.5361,-4.4522,-4.407,-4.4184,-4.4214,-4.4289,-4.4397,-4.4397,-4.4426,-4.4482,-4.4482,-4.4482,-4.4482,-4.4482,-4.4482,-4.4482,-4.4482,-4.4482,-4.4482,-4.4482,-4.4482,-4.4482,-4.4482,-4.4454,-4.4411,-4.4468,-4.4632,-4.4814,-4.5004,-4.5201,-4.541,-4.8021,-4.817,-4.817,-4.8221,-4.8184,-4.8036,-4.759,-4.7516,-4.7404,-4.7033,-4.6995,-4.6698,-4.5881,-4.5807,-4.5584,-4.5101,-4.5064,-4.5064,-4.5064,-4.5064,-4.5287,-4.5769,-4.5807,-4.603,-4.6475,-4.6513,-4.6513,-4.6513,-4.6513,-4.6513,-4.6475,-4.603,-4.5621,-4.5287,-4.4766,0.0,-4.3986,-4.3503,-4.3348,-4.3379,-4.3356,-4.3595,-4.3975,-4.396,-4.3975,-4.402,-4.4185,-4.4214,-4.4138,-4.4138,-4.4628,-4.5212,-4.4692,-4.4878,-4.5287,-4.5287,-4.4952,-4.4581,-4.4729,-4.4655,-4.4544,-4.4544,-4.4915,-4.5398,-4.5732,-4.6438,-4.6995,-4.6995,0.0,0.0,0.0,0.0,0.0,0.0,-4.7107,-4.7033,-4.655,-4.7293,-4.7404,-4.6141,-4.6995,-4.7701,-4.7701,-4.6958,-4.6178,-4.5361,-4.4506,-4.4002,-4.407,-4.4169,-4.4244,-4.4325,-4.4368,-4.4426,-4.4482,-4.4482,-4.4482,-4.4482,-4.4482,-4.4482,-4.4482,-4.4482,-4.4482,-4.4482,-4.4482,-4.4482,-4.4482,-4.4454,-4.4524,-4.4646,-4.4619,-4.4739,-4.4934,-4.518,-4.539,-4.5565,-4.6921,0.0,-4.7367,-4.7367,-4.7367,-4.7181,-4.6587,-4.6513,-4.6401,-4.6178,-4.6178,-4.5844,-4.5026,-4.4952,-4.4692,-4.4061,-4.3986,-4.3986,-4.3986,-4.3986,-4.4283,-4.4915,-4.4952,-4.5212,-4.5807,-4.5807,-4.5807,-4.5807,-4.5807,-4.5807,-4.5807,-4.5212,-4.4952,-4.4915,-4.4283,-4.3986,-4.3949,0.0,-4.3193,-4.3238,-4.3282,-4.3042,-4.2712,-4.2916,-4.3005,-4.31,-4.3511,-4.3729,-4.3879,-4.3879,-4.4519,-4.5201,-4.433,-4.4649,-4.5281,-4.5042,-4.4506,-4.4135,-4.4766,-4.4469,-4.4061,-4.4283,-4.4841,-4.5287,-4.5287,-4.5918,-4.6438,-4.6215,-4.6364,0.0,0.0,0.0,-4.6438,-4.6215,0.0,-4.7107,-4.629,-4.7367,-4.7813,-4.6624,-4.7033,-4.7367,-4.7367,-4.6624,-4.5918,-4.5324,-4.4506,-4.3986,-4.3986,-4.4085,-4.4199,-4.4274,-4.4296,-4.4368,-4.4426,-4.4454,-4.4468,-4.4468,-4.4482,-4.4482,-4.4482,-4.4482,-4.4482,-4.4482,-4.4468,-4.4468,-4.4468,-4.4482,-4.4592,-4.4713,-4.4739,-4.4862,-4.5055,-4.5211,-4.5342,-4.5437,-4.5361,-4.5992,-4.655,-4.655,-4.655,-4.6513,-4.6513,-4.6513,-4.6215,-4.5435,-4.5324,-4.4989,-4.4135,-4.4023,-4.4023,-4.3986,-4.3986,-4.3986,-4.3986,-4.3986,-4.4023,-4.4023,-4.4023,-4.4061,-4.4098,-4.4098,-4.4098,-4.4098,-4.4098,-4.4098,-4.4098,-4.4061,-4.4023,-4.4023,-4.4023,-4.3986,-4.3986,-4.4116,-4.4147,-4.4162,-4.4237,-4.3301,-4.2023,-4.2885,-4.317,-4.3109,-4.2285,-4.2417,-4.3057,-4.3057,-4.414,-4.5335,-4.4475,-4.4743,-4.5211,-4.4315,-4.4023,-4.4023,-4.4023,-4.4023,-4.4209,-4.5026,-4.5287,-4.5287,-4.5287,-4.5918,-4.629,-4.5509,-4.5955,-4.6513,-4.6513,-4.6513,-4.6252,-4.5472,-4.5992,0.0,0.0,-4.603,-4.655,-4.6513,-4.6513,-4.655,-4.655,-4.5807,-4.5324,-4.5287,-4.4506,-4.3986,-4.3986,-4.3986,-4.407,-4.4199,-4.4199,-4.4244,-4.4318,-4.4368,-4.4397,-4.4397,-4.4454,-4.4482,-4.4482,-4.4482,-4.4482,-4.4482,-4.4426,-4.4397,-4.4411,-4.4619,-4.4621,-4.4557,-4.4788,-4.5038,-4.518,-4.4977,-4.4872,-4.4825,-4.4432,0.0,-4.5026,-4.5621,-4.5695,-4.5695,-4.5695,-4.5212,-4.4766,-4.4469,-4.4432,-4.4321,-4.4023,-4.3986,-4.3986,-4.3986,-4.3986,-4.3986,-4.3986,-4.3986,-4.3986,-4.3986,-4.3986,-4.3986,-4.3986,-4.3986,-4.3986,-4.3986,-4.3986,-4.3986,-4.3986,-4.3986,-4.3986,-4.3986,-4.3475,-4.358,0.0,0.0,0.0,0.0,-4.2997,-4.2439,-4.194,-4.1715,-4.1603,-4.164,-4.1865,-4.2112,-4.2356,-4.2955,-4.3436,-4.3878,-4.4162,-4.4461,-4.461,-4.4281,-4.4192,-4.4177,-4.4131,-4.4153,-4.4175,-4.4373,-4.4878,-4.5287,-4.5287,-4.5509,-4.5769,-4.603,-4.5435,-4.5026,-4.5584,-4.5212,-4.4952,-4.5249,-4.5509,-4.5807,0.0,-4.6327,-4.629,-4.5769,-4.5695,-4.5695,-4.5695,-4.5472,-4.5064,-4.4469,-4.4172,-4.3986,-4.3986,-4.4544,-4.4665,-4.4199,-4.4721,-4.4751,-4.4318,-4.431,-4.4325,-4.4325,-4.4397,-4.4397,-4.4391,-4.4397,-4.4397,-4.4391,-4.4325,-4.4426,-4.4605,-4.4581,-4.4764,-4.5,-4.4872,-4.4872,-4.4919,-4.4849,-4.4919,-4.5076,-4.407,-4.407,-4.424,-4.4745,-4.4841,-4.4841,-4.4841,-4.4358,-4.3986,-4.3986,-4.3986,-4.3986,-4.3986,-4.3986,-4.3986,-4.3986,-4.3986,-4.3986,-4.3986,-4.3986,-4.3986,-4.3986,-4.3986,-4.3986,-4.3986,-4.3986,-4.3986,-4.3986,-4.3986,-4.3986,-4.3986,-4.3726,-4.3578,-4.354,-4.2798,-4.294,-4.3677,-4.2697,-4.2805,0.0,-4.2428,-4.207,-4.2046,-4.1229,-4.0867,-4.0829,-4.1142,-4.1543,-4.2026,-4.2575,-4.3109,-4.3629,-4.4175,-4.4362,-4.431,-4.4318,-4.4318,-4.4304,-4.4259,-4.4214,-4.4258,-4.4457,-4.491,-4.5287,-4.5287,-4.5287,-4.5361,-4.5584,-4.4766,-4.4172,-4.4729,-4.4395,-4.4172,-4.4729,-4.5101,-4.5584,0.0,-4.6252,-4.5881,-4.5361,-4.5287,-4.5175,-4.4878,-4.4841,-4.4618,-4.4023,-4.3986,-4.4135,-4.4432,-4.4692,-4.491,-4.4994,-4.5217,-4.5137,-4.4677,-4.467,-4.4535,-4.4274,-4.431,-4.4325,-4.4281,-4.4325,-4.4325,-4.4318,-4.4289,-4.4354,-4.4524,-4.4476,-4.4663,-4.4954,-4.4739,-4.4714,-4.4788,-4.4688,-4.489,-4.5281,-4.4109,-4.4162,-4.4169,-4.4055,-4.4002,-4.4002,-4.4002,-4.4002,-4.4002,-4.4002,-4.4002,-4.4002,-4.4002,-4.4002,-4.4002,-4.4002,-4.4002,-4.3986,-4.3986,-4.3986,-4.3986,-4.3986,-4.3986,-4.3986,-4.3986,-4.3986,-4.3986,-4.3986,-4.3986,-4.3986,0.0,-4.3206,-4.2835,-4.2738,-4.2017,0.0,-4.2872,-4.3053,-4.3573,-4.4149,-4.2629,-4.2159,-4.2246,-4.1483,-4.1071,-4.0816,-4.0235,-4.0873,-4.198,-4.2068,-4.3144,-4.4444,-4.4426,-4.4397,-4.4383,-4.431,-4.4318,-4.4318,-4.4318,-4.4259,-4.4385,-4.5168,-4.5329,-4.5303,-4.5303,-4.5303,-4.5064,-4.4246,-4.4023,-4.3986,-4.3986,-4.3986,-4.4023,-4.4061,-4.4766,-4.5547,-4.6252,-4.5732,-4.5249,-4.5249,-4.5249,-4.4915,-4.4098,-4.3986,-4.3986,-4.3986,-4.4023,-4.4395,-4.5175,-4.4544,-4.4804,-4.6327,-4.5658,-4.5287,-4.5249,-4.5292,-4.4966,-4.4184,-4.4274,-4.4304,-4.4304,-4.4304,-4.4304,-4.4266,-4.4229,-4.4199,-4.4229,-4.4336,-4.4397,-4.4411,-4.4397,-4.4546,-4.4726,-4.4517,-4.4834,-4.5472,-4.3438,-4.3826,-4.4237,-4.4222,-4.4207,-4.4207,-4.4207,-4.4207,-4.4207,-4.4207,-4.4207,-4.4207,-4.4207,-4.4207,-4.4207,-4.4207,-4.4199,-4.4153,-4.4153,-4.4055,-4.3986,-4.3986,-4.3986,-4.3986,-4.3986,-4.3986,-4.3986,-4.3986,-4.3986,-4.3689,-4.3132,0.0,0.0,0.0,0.0,-4.1913,-4.2169,-4.2251,-4.2428,-4.2605,-4.2385,-4.1949,-4.1494,-4.224,-4.2384,-4.2203,-4.2037,-4.17,-4.1513,-4.2772,-4.3366,-4.3707,-4.428,-4.4468,-4.4454,-4.444,-4.444,-4.4426,-4.4383,-4.4354,-4.44,-4.4528,-4.496,-4.5382,-4.5382,-4.5334,-4.5249,-4.4989,-4.4432,-4.3986,-4.3986,-4.3986,-4.4209,-4.4841,-4.5138,-4.5138,-4.4692,-4.4469,-4.4321,-4.4321,-4.4321,-4.4246,-4.4023,-4.3986,-4.3986,-4.3986,-4.4581,-4.4766,-4.4358,-4.5287,-4.5472,-4.4655,-4.5064,-4.4989,-4.4321,-4.4336,-4.424,-4.4055,-4.4184,-4.4162,-4.4085,-4.4199,-4.4147,-4.4085,-4.407,-4.4155,-4.4351,-4.4407,-4.4519,-4.4676,-4.4479,-4.4336,-4.4296,-4.5002,-4.5679,-4.629,-4.31,-4.3778,-4.4368,-4.4368,-4.4444,-4.4513,-4.4444,-4.4354,-4.4325,-4.4416,-4.443,-4.443,-4.443,-4.4503,-4.453,-4.4444,-4.4388,-4.4354,-4.4259,-4.4169,-4.4085,-4.4085,-4.4039,-4.3986,-4.3986,-4.3986,-4.3838,-4.3466,-4.3838,-4.3578,-4.2797,0.0,0.0,0.0,0.0,-4.0969,-4.1384,-4.224,-4.2342,-4.2068,-4.2697,-4.2693,0.0,-4.3269,-4.3547,-4.3568,-4.3923,-4.3321,-4.2466,-4.3428,-4.3827,-4.4044,-4.4497,-4.4554,-4.4482,-4.4482,-4.4482,-4.4482,-4.444,-4.4411,-4.4383,-4.434,-4.464,-4.4916,-4.4916,-4.4892,-4.4829,-4.4829,-4.4389,-4.4135,-4.4506,-4.4246,-4.4172,-4.4655,-4.4729,-4.4544,-4.4061,-4.3986,-4.3986,-4.3986,-4.3986,-4.3986,-4.3986,-4.3986,-4.3986,-4.3986,-4.4432,-4.4692,-4.4581,-4.5101,-4.5324,-4.5101,-4.5212,-4.5064,-4.4581,-4.4581,-4.4395,-4.3986,-4.407,-4.407,-4.3986,-4.407,-4.407,-4.3986,-4.3986,-4.4094,-4.4221,-4.4221,-4.4322,-4.4462,-4.4294,-4.4378,-4.4687,-4.564,-4.619,-4.6624,-4.3034,-4.3915,-4.4482,-4.4482,-4.4687,-4.4763,-4.4676,-4.4541,-4.4472,-4.4675,-4.4663,-4.4663,-4.4663,-4.4834,-4.4881,-4.4688,-4.4663,-4.4584,-4.4368,-4.4281,-4.4259,-4.4214,-4.4085,-4.4039,-4.4039,-4.3986,-4.3652,-4.2946,-4.3652,-4.3578,0.0,0.0,0.0,0.0,0.0,0.0,0.0,-4.2302,-4.2632,-4.2171,-4.3211,-4.3765,-4.3991,-4.4376,-4.4608,-4.4871,-4.5529,-4.4999,-4.3962,-4.4087,-4.4456,-4.4849,-4.4849,-4.4701,-4.4537,-4.4537,-4.451,-4.4482,-4.4482,-4.4454,-4.4411,-4.4411,-4.4354,-4.4296,-4.4296,-4.4259,-4.4199,-4.4199,-4.4085,-4.4283,-4.5138,-4.4766,-4.4246,-4.4023,-4.4098,-4.4135,-4.4023,-4.3986,-4.3986,-4.3986,-4.3986,0.0,-4.3986,-4.3986,-4.3986,-4.3986,-4.4098,-4.4432,-4.5101,-4.4506,-4.4804,-4.6141,-4.5472,-4.5175,-4.5287,-4.5175,-4.4804,-4.4172,-4.4061,-4.3986,-4.3986,-4.3986,-4.3986,-4.3986,-4.3986,-4.3986,-4.3986,-4.3986,-4.3986,-4.3986,-4.3986,-4.4544,-4.5361,-4.6104,-4.6475,-4.6773,-4.3117,-4.3956,-4.4482,-4.4482,-4.4687,-4.4861,-4.5044,-4.5082,-4.5071,-4.5105,-4.5077,-4.5077,-4.5077,-4.5148,-4.512,-4.5115,-4.5022,-4.4896,-4.4662,-4.457,-4.4472,-4.4304,-4.4214,-4.4169,-4.4169,-4.4055,-4.3949,-4.3801,-4.3949,-4.3578,-4.2797,0.0,0.0,0.0,0.0,0.0,-4.0777,-4.1103,-4.1669,-4.2415,-4.3433,-4.4001,-4.4346,-4.521,-4.5554,-4.5613,-4.5768,-4.511,-4.4273,-4.4965,-4.5179,-4.5137,-4.5137,-4.4931,-4.4764,-4.4764,-4.4635,-4.4482,-4.4482,-4.4482,-4.4468,-4.4468,-4.4426,-4.4383,-4.4383,-4.4304,-4.4199,-4.4199,-4.4085,-4.4283,-4.5138,-4.5732,-4.5621,-4.4209,-4.4618,-4.4804,-4.4098,-4.3986,-4.3986,-4.3986,-4.3986,-4.3986,-4.3986,-4.3986,-4.3986,-4.3986,-4.4655,-4.4841,-4.4246,-4.4766,-4.4878,-4.4432,-4.4283,-4.4581,-4.5287,-4.4581,-4.4506,-4.5064,-4.4358,-4.3986,-4.3986,-4.3986,-4.3986,-4.3986,-4.3986,-4.3986,-4.3986,-4.3986,-4.3986,-4.3986,-4.3986,-4.4544,-4.5324,-4.5472,-4.6364,-4.759,-4.3547,-4.4294,0.0,-4.485,-4.5022,-4.5214,-4.5352,-4.5455,-4.5491,-4.5381,-4.5371,-4.5371,-4.5371,-4.5464,-4.5482,-4.5343,-4.5352,-4.5152,-4.4776,-4.4676,-4.4557,-4.4354,-4.4304,-4.4259,-4.4259,-4.4177,-4.3938,-4.3491,-4.3938,-4.3752,-4.2895,-4.2499,0.0,0.0,0.0,-4.0114,0.0,-4.1204,-4.194,-4.2534,-4.4115,-4.4822,-4.5004,-4.5595,-4.5807,-4.5807,-4.5807,-4.5486,-4.5071,-4.5495,-4.5535,-4.5371,-4.5371,-4.5184,-4.4966,-4.4837,-4.4739,-4.4635,-4.4524,-4.4482,-4.4482,-4.4482,-4.4468,-4.444,-4.444,-4.4368,-4.4266,-4.4274,-4.4147,-4.4197,-4.4559,-4.5324,-4.5472,-4.4209,-4.4358,-4.4469,-4.4061,-4.3986,-4.3986,-4.3986,0.0,-4.3986,-4.3986,-4.3986,-4.3986,-4.3986,-4.4395,-4.4432,-4.4023,-4.4395,-4.4432,-4.4023,-4.3986,-4.4209,-4.4618,-4.4209,-4.4209,-4.4618,-4.4209,-4.3986,-4.3986,-4.3986,-4.3986,-4.3986,-4.3986,-4.3986,-4.3986,-4.3986,-4.3986,-4.4023,-4.4506,-4.5175,-4.5955,-4.6401,-4.7293,-4.8333,-4.3856,-4.46,-4.5201,-4.5201,-4.5381,-4.5509,-4.5509,-4.5665,-4.5725,-4.5594,-4.5569,-4.5569,-4.5569,-4.5696,-4.5757,-4.5585,-4.5569,-4.5389,-4.4988,-4.4908,-4.4751,-4.4486,-4.4402,-4.4368,-4.431,-4.4318,-4.387,-4.3011,-4.3683,-4.3557,-4.2749,-4.1927,-4.1492,0.0,-4.0225,-3.9789,-3.9977,-4.1877,-4.2686,-4.2889,-4.4767,-4.5535,-4.5585,-4.5757,-4.5807,-4.5807,-4.5807,-4.5807,-4.5807,-4.5807,-4.5681,-4.5569,-4.5569,-4.5437,-4.5194,-4.4954,-4.4837,-4.4777,-4.4565,-4.4482,-4.4482,-4.4482,-4.4482,-4.4482,-4.4482,-4.444,-4.4383,-4.431,-4.4371,-4.4355,-4.4076,-4.4692,-4.4989,-4.4135,-4.3986,-4.3986,-4.3986,-4.3986,-4.3986,-4.3986,0.0,0.0,-4.3986,-4.3986,-4.3986,-4.3986,-4.3986,-4.3986,-4.3986,-4.3986,-4.3986,-4.3986,-4.3986,-4.4098,-4.4283,-4.4098,-4.4098,-4.4283,-4.4098,-4.3986,-4.3986,-4.3986,-4.3986,-4.3986,-4.3986,-4.4098,-4.4283,-4.4283,-4.4283,-4.4358,-4.5212,-4.5918,-4.6587,-4.7404,-4.8221,-4.8816,-4.3769,-4.46,-4.5201,-4.5201,-4.5381,-4.5509,-4.5509,-4.5665,-4.58,-4.5786,-4.5786,-4.5786,-4.5786,-4.58,-4.58,-4.5786,-4.5786,-4.5673,-4.5435,-4.5417,-4.5235,-4.4776,-4.4688,-4.457,-4.4397,-4.431,-4.3855,-4.2982,-4.3094,-4.272,-4.1913,-4.1146,-4.0426,-3.9827,-4.0428,-4.0691,-4.0804,-4.2697,-4.3585,-4.3846,-4.5015,-4.561,-4.5786,-4.58,-4.5807,-4.5807,-4.5807,-4.5807,-4.5807,-4.5807,-4.5793,-4.5786,-4.5786,-4.5634,-4.5446,-4.5232,-4.4977,-4.4777,-4.4565,-4.4482,-4.4482,-4.4482,-4.4482,-4.4482,-4.4482,-4.444,-4.4397,-4.4383,-4.4864,-4.5025,-4.415,-4.4692,-4.4989,-4.4135,-4.3986,-4.3986,-4.3986,-4.3986,-4.3986,-4.3986,0.0,0.0,-4.3986,-4.3986,-4.3986,-4.3986,-4.3986,-4.3986,-4.3986,-4.3986,-4.3986,-4.3986,-4.3986,-4.4395,-4.5175,-4.4395,-4.4395,-4.5175,-4.4395,-4.3986,-4.3986,-4.3986,-4.3986,-4.3986,-4.3986,-4.4432,-4.5175,-4.5175,-4.5175,-4.5249,-4.6067,-4.6438,-4.6587,-4.7404,-4.8221,-4.889,-4.4961,-4.5307,-4.5569,-4.5569,-4.5626,-4.5673,-4.5673,-4.5764,-4.5807,-4.5807,-4.5807,-4.5807,-4.5807,-4.5807,-4.5807,-4.5807,-4.5807,-4.5703,-4.5526,-4.5509,-4.5352,-4.5033,-4.4849,-4.4701,-4.4636,-4.451,-4.4247,-4.391,-4.3423,-4.3025,-4.2687,-4.1365,-4.0603,-4.0365,-4.1154,-4.1619,-4.1841,-4.3194,-4.3922,-4.4237,-4.5263,-4.5711,-4.5807,-4.5807,-4.5807,-4.5807,-4.5807,-4.5807,-4.5807,-4.5807,-4.5807,-4.5807,-4.5807,-4.5658,-4.5473,-4.5273,-4.5,-4.4777,-4.4565,-4.4482,-4.4482,-4.4482,-4.4482,-4.4482,-4.4482,-4.4468,-4.444,-4.4397,-4.4565,-4.4541,-4.4076,-4.4283,-4.4395,-4.4061,-4.3986,-4.3986,-4.3986,-4.3986,-4.3986,-4.3986,0.0,-4.3986,-4.3986,-4.3986,-4.3986,-4.3986,-4.3986,-4.3986,-4.3986,-4.3986,-4.3986,-4.3986,-4.3986,-4.4172,-4.4506,-4.4172,-4.4172,-4.4506,-4.4172,-4.3986,-4.3986,-4.3986,-4.4283,-4.4766,-4.4766,-4.5249,-4.603,-4.603,-4.603,-4.6104,-4.6921,-4.7218,-4.733,-4.811,-4.8766,-4.9209,-4.5768,-4.5807,-4.5807,-4.5807,-4.5807,-4.5807,-4.5807,-4.5807,-4.5807,-4.5807,-4.5807,-4.5807,-4.5807,-4.5807,-4.5807,-4.5807,-4.5807,-4.5757,-4.5602,-4.5594,-4.5509,-4.5313,-4.511,-4.4988,-4.4908,-4.4688,-4.4468,-4.4242,-4.3598,-4.3182,-4.2881,-4.1717,-4.1154,-4.1191,-4.2004,-4.2498,-4.2747,-4.3836,-4.4384,-4.4648,-4.5457,-4.5807,-4.5807,-4.5807,-4.5807,-4.5807,-4.5807,-4.5807,-4.5807,-4.5807,-4.5807,-4.5807,-4.5807,-4.5658,-4.5473,-4.5273,-4.5,-4.4777,-4.4565,-4.4482,-4.4482,-4.4482,-4.4482,-4.4482,-4.4482,-4.4482,-4.4468,-4.4383,-4.4304,-4.4199,-4.4039,-4.3986,-4.3986,-4.3986,-4.3986,-4.3986,-4.3986,-4.3986,-4.3986,-4.3986,-4.3986,-4.3986,-4.3986,-4.3986,-4.3986,-4.3986,-4.3986,-4.3986,-4.3986,-4.3986,-4.3986,-4.3986,-4.3986,-4.3986,-4.3986,-4.3986,-4.3986,-4.3986,-4.3986,-4.3986,-4.4023,-4.4283,-4.4729,-4.5287,-4.5547,-4.6104,-4.6847,-4.6847,-4.6847,-4.6921,-4.7738,-4.7924,-4.7813,-4.8593,-4.911,-4.9399,-4.5652,-4.5807,-4.5807,-4.5807,-4.5807,-4.5807,-4.5807,-4.5807,-4.5807,-4.5807,-4.5807,-4.5807,-4.5807,-4.5807,-4.5807,-4.5807,-4.5807,-4.5807,-4.58,-4.58,-4.5696,-4.5518,-4.5509,-4.5419,-4.5201,-4.4919,-4.4421,-4.3599,-4.3402,-4.2881,-4.2004,-4.2004,-4.2004,-4.2004,-4.2919,-4.3294,-4.3386,-4.4661,-4.5201,-4.5204,-4.5634,-4.5807,-4.5807,-4.5807,-4.5807,-4.5807,-4.5807,-4.5807,-4.5807,-4.5807,-4.5807,-4.5807,-4.5807,-4.5658,-4.5473,-4.5273,-4.5,-4.4777,-4.4565,-4.4482,-4.4482,-4.4482,-4.4482,-4.4482,-4.4482,-4.4482,-4.4454,-4.4348,-4.4318,-4.4222,-4.4055,-4.3986,-4.3986,-4.3986,-4.3986,-4.3986,-4.3986,-4.3986,-4.3986,-4.3986,-4.3986,-4.3986,-4.3986,-4.3986,-4.3986,-4.3986,-4.3986,-4.3986,-4.3986,-4.3986,-4.3986,-4.3986,-4.3986,-4.3986,-4.3986,-4.3986,-4.3986,-4.3986,-4.3986,-4.3986,-4.4023,-4.4878,-4.5287,-4.5324,-4.6141,-4.6921,-4.7701,-4.7701,-4.7701,-4.7776,-4.8556,-4.8407,-4.7813,-4.8593,-4.911,-4.9399,-4.5768,-4.5807,-4.5807,-4.5807,-4.5807,-4.5807,-4.5807,-4.5807,-4.5807,-4.5807,-4.5807,-4.5807,-4.5807,-4.5807,-4.5807,-4.5807,-4.5807,-4.5807,-4.5807,-4.5807,-4.5786,-4.5696,-4.5577,-4.5482,-4.5419,-4.5173,-4.4941,-4.4685,-4.3903,-4.3001,-4.2004,-4.2618,-4.2881,-4.2919,-4.3745,-4.4297,-4.4612,-4.5033,-4.5371,-4.5618,-4.5764,-4.5807,-4.5807,-4.5807,-4.5807,-4.5807,-4.5807,-4.5696,-4.5618,-4.5733,-4.5618,-4.5389,-4.556,-4.5473,-4.5263,-4.4988,-4.4764,-4.4568,-4.451,-4.4482,-4.4482,-4.4482,-4.4482,-4.4482,-4.4482,-4.4482,-4.4454,-4.4348,-4.4318,-4.4222,-4.4055,-4.3986,-4.3986,-4.3986,-4.3986,-4.3986,-4.3986,-4.3986,-4.3986,-4.3986,-4.3986,-4.3986,-4.3986,-4.3986,-4.3986,-4.3986,-4.3986,-4.3986,-4.3986,-4.3986,-4.3986,-4.3986,-4.3986,-4.3986,-4.3986,-4.3986,-4.3986,-4.3986,-4.3986,-4.4321,-4.4915,-4.5175,-4.5881,-4.6958,-4.7218,-4.7776,-4.8519,-4.8519,-4.8519,-4.8556,-4.8816,-4.8742,-4.859,-4.9048,-4.9423,-4.9693,-4.5807,-4.5807,-4.5807,-4.5807,-4.5807,-4.5807,-4.5807,-4.5807,-4.5807,-4.5807,-4.5807,-4.5807,-4.5807,-4.5807,-4.5807,-4.5807,-4.5807,-4.5807,-4.5807,-4.5807,-4.5807,-4.5807,-4.5673,-4.5618,-4.5618,-4.5428,-4.5323,-4.5323,-4.4582,-4.3801,-4.3076,-4.3718,-4.397,-4.3881,-4.4499,-4.4922,-4.5211,-4.5293,-4.5473,-4.5681,-4.5778,-4.5807,-4.5807,-4.5807,-4.5807,-4.5807,-4.5807,-4.5665,-4.5535,-4.5642,-4.5482,-4.5211,-4.5225,-4.5152,-4.5,-4.4849,-4.4674,-4.4482,-4.4482,-4.4482,-4.4482,-4.4482,-4.4482,-4.4482,-4.4482,-4.4482,-4.4454,-4.4348,-4.4318,-4.4222,-4.4055,-4.3986,-4.3986,-4.3986,-4.3986,-4.3986,-4.3986,-4.3986,-4.3986,-4.3986,-4.3986,-4.3986,-4.3986,-4.3986,-4.3986,-4.3986,-4.3986,-4.3986,-4.3986,-4.3986,-4.3986,-4.3986,-4.3986,-4.3986,-4.3986,-4.4321,-4.4506,-4.4506,-4.4804,-4.5212,-4.5769,-4.6067,-4.6735,-4.7738,-4.8036,-4.8444,-4.889,-4.889,-4.889,-4.8907,-4.9044,-4.9094,-4.9127,-4.9439,-4.9707,-4.9987,-4.5807,-4.5807,-4.5807,-4.5807,-4.5807,-4.5807,-4.5807,-4.5807,-4.5807,-4.5807,-4.5807,-4.5807,-4.5807,-4.5807,-4.5807,-4.5807,-4.5807,-4.5807,-4.5807,-4.5807,-4.5807,-4.5807,-4.5807,-4.5807,-4.5807,-4.5618,-4.5526,-4.5509,-4.5323,-4.5105,-4.4825,-4.5066,-4.5082,-4.4837,-4.5105,-4.5211,-4.5243,-4.5437,-4.5518,-4.5543,-4.5711,-4.5807,-4.5807,-4.5807,-4.5807,-4.5807,-4.5807,-4.5658,-4.5491,-4.5509,-4.5323,-4.5115,-4.4861,-4.4776,-4.4763,-4.4763,-4.4661,-4.4482,-4.4482,-4.4482,-4.4482,-4.4482,-4.4482,-4.4482,-4.4482,-4.4482,-4.4454,-4.4348,-4.4318,-4.4222,-4.4055,-4.3986,-4.3986,-4.3986,-4.3986,-4.3986,-4.3986,-4.3986,-4.3986,-4.3986,-4.3986,-4.3986,-4.3986,-4.3986,-4.3986,-4.3986,-4.3986,-4.3986,-4.3986,-4.4061,-4.4061,-4.3986,-4.3986,-4.4023,-4.4098,-4.4878,-4.5324,-4.5398,-4.6141,-4.6513,-4.6624,-4.7367,-4.7738,-4.7813,-4.8556,-4.889,-4.889,-4.889,-4.8907,-4.8959,-4.9289,-4.9415,-4.9439,-4.9721,-5.0,-5.0206,-4.5807,-4.5807,-4.5807,-4.5807,-4.5807,-4.5807,-4.5807,-4.5807,-4.5807,-4.5807,-4.5807,-4.5807,-4.5807,-4.5807,-4.5807,-4.5807,-4.5807,-4.5807,-4.5807,-4.5807,-4.5807,-4.5807,-4.5807,-4.5807,-4.5807,-4.5771,-4.565,-4.5509,-4.5464,-4.5304,-4.5126,-4.518,-4.5169,-4.5126,-4.518,-4.5293,-4.5446,-4.5491,-4.5594,-4.5718,-4.5793,-4.5807,-4.5807,-4.5807,-4.5807,-4.5807,-4.5807,-4.5577,-4.5303,-4.5464,-4.512,-4.4687,-4.4789,-4.4688,-4.4554,-4.4554,-4.4537,-4.4482,-4.4482,-4.4482,-4.4482,-4.4482,-4.4482,-4.4482,-4.4482,-4.4482,-4.4454,-4.4348,-4.4318,-4.4222,-4.4055,-4.3986,-4.3986,-4.3986,-4.3986,-4.3986,-4.3986,-4.3986,-4.3986,-4.3986,-4.3986,-4.3986,-4.3986,-4.3986,-4.3986,-4.3986,-4.3986,-4.3986,-4.3986,-4.4618,-4.4692,-4.4023,-4.3986,-4.4321,-4.4989,-4.5212,-4.5621,-4.6215,-4.6401,-4.681,-4.7404,-4.7627,-4.8036,-4.863,-4.8816,-4.889,-4.889,-4.889,-4.9044,-4.9289,-4.9368,-4.9529,-4.9735,-5.0012,-5.0147,-5.023,-4.5807,-4.5807,-4.5807,-4.5807,-4.5807,-4.5807,-4.5807,-4.5807,-4.5807,-4.5807,-4.5807,-4.5807,-4.5807,-4.5807,-4.5807,-4.5807,-4.5807,-4.5807,-4.5807,-4.5807,-4.5807,-4.5807,-4.5807,-4.5807,-4.5807,-4.5807,-4.5764,-4.5634,-4.5634,-4.5543,-4.5352,-4.5446,-4.5437,-4.5352,-4.5446,-4.5543,-4.5634,-4.5634,-4.5688,-4.5807,-4.5807,-4.5807,-4.5807,-4.5807,-4.5807,-4.5807,-4.5807,-4.5602,-4.5371,-4.5473,-4.5184,-4.4801,-4.4788,-4.4726,-4.4621,-4.4524,-4.4482,-4.4482,-4.4482,-4.4482,-4.4482,-4.4482,-4.4482,-4.4482,-4.4482,-4.4482,-4.4454,-4.4348,-4.4318,-4.4222,-4.4055,-4.3986,-4.3986,-4.3986,-4.3986,-4.3986,-4.3986,-4.3986,-4.3986,-4.3986,-4.3986,-4.3986,-4.3986,-4.3986,-4.3986,-4.3986,-4.3986,-4.4172,-4.4581,-4.5026,-4.5064,-4.4618,-4.4952,-4.5361,-4.5844,-4.6215,-4.681,-4.759,-4.759,-4.7813,-4.8259,-4.8259,-4.8481,-4.889,-4.889,-4.8976,-4.9127,-4.9127,-4.9299,-4.9602,-4.9707,-4.9857,-5.0025,-5.0325,-5.0451,-5.0462,-4.5807,-4.5807,-4.5807,-4.5807,-4.5807,-4.5807,-4.5807,-4.5807,-4.5807,-4.5807,-4.5807,-4.5807,-4.5807,-4.5807,-4.5807,-4.5807,-4.5807,-4.5807,-4.5807,-4.5807,-4.5807,-4.5807,-4.5807,-4.5807,-4.5807,-4.5807,-4.5807,-4.5807,-4.5807,-4.5696,-4.556,-4.5703,-4.5696,-4.556,-4.5711,-4.5807,-4.5807,-4.5807,-4.5807,-4.5807,-4.5807,-4.5807,-4.5807,-4.5807,-4.5807,-4.5807,-4.5807,-4.5665,-4.5509,-4.5509,-4.5381,-4.5169,-4.4919,-4.4849,-4.485,-4.4648,-4.4592,-4.4537,-4.4496,-4.4482,-4.4482,-4.4482,-4.4482,-4.4482,-4.4482,-4.4482,-4.444,-4.4348,-4.4304,-4.4207,-4.4055,-4.3986,-4.3986,-4.3986,-4.3986,-4.3986,-4.3986,-4.3986,-4.3986,-4.3986,-4.3986,-4.3986,-4.3986,-4.3986,-4.3986,-4.3986,-4.4135,-4.4506,-4.5249,-4.5509,-4.5658,-4.5658,-4.6215,-4.6624,-4.6847,-4.7553,-4.8296,-4.9076,-4.8964,-4.8964,-4.9076,-4.8964,-4.8964,-4.9076,-4.9016,-4.9144,-4.9415,-4.9423,-4.9631,-4.9897,-5.0123,-5.023,-5.0325,-5.0604,-5.0789,-5.0856,-4.5807,-4.5807,-4.5807,-4.5807,-4.5807,-4.5807,-4.5807,-4.5807,-4.5807,-4.5807,-4.5807,-4.5807,-4.5807,-4.5807,-4.5807,-4.5807,-4.5807,-4.5807,-4.5807,-4.5807,-4.5807,-4.5807,-4.5807,-4.5807,-4.5807,-4.5807,-4.5807,-4.5807,-4.5807,-4.5793,-4.5733,-4.5793,-4.5793,-4.5733,-4.5793,-4.5807,-4.5807,-4.5807,-4.5807,-4.5807,-4.5807,-4.5807,-4.5807,-4.5807,-4.5807,-4.5807,-4.5807,-4.5665,-4.5509,-4.5509,-4.5381,-4.5201,-4.5159,-4.5148,-4.5137,-4.5105,-4.4946,-4.4714,-4.4551,-4.4482,-4.4482,-4.4482,-4.4482,-4.4482,-4.4482,-4.4454,-4.4383,-4.4333,-4.4259,-4.4184,-4.4039,-4.3986,-4.3986,-4.3986,-4.3986,-4.3986,-4.3986,-4.3986,-4.3986,-4.3986,-4.3986,-4.3986,-4.3986,-4.3986,-4.3986,-4.3986,-4.4692,-4.5138,-4.5287,-4.6587,-4.733,-4.733,-4.6773,-4.7144,-4.8519,-4.8667,-4.915,-5.0005,-4.9262,-4.9262,-4.9893,-4.9224,-4.9262,-4.9911,-4.9508,-4.9352,-4.943,-4.9622,-4.991,-5.0147,-5.0183,-5.0369,-5.0624,-5.0692,-5.1125,-5.1625,-4.5807,-4.5807,-4.5807,-4.5807,-4.5807,-4.5807,-4.5807,-4.5807,-4.5807,-4.5807,-4.5807,-4.5807,-4.5807,-4.5807,-4.5807,-4.5807,-4.5807,-4.5807,-4.5807,-4.5807,-4.5807,-4.5807,-4.5807,-4.5807,-4.5807,-4.5807,-4.5807,-4.5807,-4.5807,-4.5807,-4.5807,-4.5807,-4.5807,-4.5807,-4.5807,-4.5807,-4.5807,-4.5807,-4.5807,-4.5807,-4.5807,-4.5807,-4.5807,-4.5807,-4.5807,-4.5807,-4.5807,-4.5757,-4.5658,-4.5658,-4.5602,-4.5518,-4.5409,-4.5303,-4.518,-4.5011,-4.5226,-4.5344,-4.4678,-4.482,-4.5059,-4.4594,-4.4482,-4.4482,-4.4482,-4.444,-4.4368,-4.4296,-4.4259,-4.4169,-4.4002,-4.3986,-4.3986,-4.3986,-4.3986,-4.3986,-4.3986,-4.3986,-4.3986,-4.3986,-4.4395,-4.4692,-4.4692,-4.5101,-4.5361,-4.5361,-4.5732,-4.6141,-4.655,-4.7293,-4.7887,-4.8333,-4.7999,-4.837,-4.9596,-4.9559,-4.9968,-5.0822,-5.045,-5.045,-5.0785,-5.0413,-5.0296,-5.0372,-5.0162,-4.9973,-4.9844,-4.9974,-5.0183,-5.0472,-5.0472,-5.0545,-5.0712,-5.0712,-5.0933,-5.1279,-4.5807,-4.5807,-4.5807,-4.5807,-4.5807,-4.5807,-4.5807,-4.5807,-4.5807,-4.5807,-4.5807,-4.5807,-4.5807,-4.5807,-4.5807,-4.5807,-4.5807,-4.5807,-4.5807,-4.5807,-4.5807,-4.5807,-4.5807,-4.5807,-4.5807,-4.5807,-4.5807,-4.5807,-4.5807,-4.5807,-4.5807,-4.5807,-4.5807,-4.5807,-4.5807,-4.5807,-4.5807,-4.5807,-4.5807,-4.5807,-4.5807,-4.5807,-4.5807,-4.5807,-4.5807,-4.5807,-4.5807,-4.5807,-4.5807,-4.5807,-4.5807,-4.5778,-4.5569,-4.5446,-4.5265,-4.4977,-4.5494,-4.5874,-4.479,-4.4946,-4.5284,-4.4632,-4.4482,-4.4482,-4.4468,-4.4561,-4.4639,-4.4565,-4.4661,-4.4659,-4.4373,-4.4283,-4.4246,-4.4023,-4.3986,-4.3986,-4.3986,-4.4172,-4.4283,-4.4283,-4.5064,-4.5584,-4.5584,-4.6141,-4.6513,-4.6513,-4.6661,-4.7144,-4.7924,-4.7999,-4.837,-4.915,-4.9187,-4.9707,-5.0748,-5.0525,-5.0822,-5.1676,-5.1491,-5.1545,-5.1784,-5.1393,-5.1136,-5.0989,-5.0636,-5.0372,-5.0206,-5.0264,-5.0472,-5.0712,-5.0894,-5.0856,-5.075,-5.1135,-5.1279,-5.1356,-4.5807,-4.5807,-4.5807,-4.5807,-4.5807,-4.5807,-4.5807,-4.5807,-4.5807,-4.5807,-4.5807,-4.5807,-4.5807,-4.5807,-4.5807,-4.5807,-4.5807,-4.5807,-4.5807,-4.5807,-4.5807,-4.5807,-4.5807,-4.5807,-4.5807,-4.5807,-4.5807,-4.5807,-4.5807,-4.5807,-4.5807,-4.5807,-4.5807,-4.5807,-4.5807,-4.5807,-4.5807,-4.5807,-4.5807,-4.5807,-4.5807,-4.5807,-4.5807,-4.5807,-4.5807,-4.5807,-4.5807,-4.5807,-4.5807,-4.5807,-4.5807,-4.5778,-4.5569,-4.5618,-4.5673,-4.5303,-4.5624,-4.5874,-4.479,-4.4519,-4.4557,-4.4519,-4.4482,-4.4468,-4.4411,-4.4938,-4.5409,-4.5333,-4.585,-4.612,-4.5324,-4.5212,-4.4952,-4.4135,-4.3986,-4.3986,-4.3986,-4.4692,-4.5212,-4.5212,-4.5918,-4.6401,-4.6401,-4.6475,-4.6513,-4.6513,-4.7181,-4.7961,-4.8779,-4.8816,-4.9187,-5.0005,-5.0005,-5.0785,-5.2419,-5.1676,-5.1714,-5.2494,-5.1751,-5.1949,-5.2911,-5.1356,-5.1208,-5.2101,-5.0799,-5.0197,-5.0218,-5.0525,-5.0692,-5.0789,-5.151,-5.1356,-5.0904,-5.2433,-5.301,-5.301,-4.5807,-4.5807,-4.5807,-4.5807,-4.5807,-4.5807,-4.5807,-4.5807,-4.5807,-4.5807,-4.5807,-4.5807,-4.5807,-4.5807,-4.5807,-4.5807,-4.5807,-4.5807,-4.5807,-4.5807,-4.5807,-4.5807,-4.5807,-4.5807,-4.5807,-4.5807,-4.5807,-4.5807,-4.5807,-4.5807,-4.5807,-4.5807,-4.5807,-4.5807,-4.5807,-4.5807,-4.5807,-4.5807,-4.5807,-4.5807,-4.5807,-4.5807,-4.5807,-4.5807,-4.5807,-4.5807,-4.5807,-4.5807,-4.5807,-4.5807,-4.5807,-4.5778,-4.5569,-4.5482,-4.5323,-4.4898,-4.4926,-4.5009,-4.4599,-4.4857,-4.5134,-4.4632,-4.4871,-4.5218,-4.5161,-4.5709,-4.6215,-4.6174,-4.6318,-4.6401,-4.6104,-4.603,-4.5918,-4.5584,-4.5547,-4.5547,-4.5547,-4.5844,-4.603,-4.603,-4.6735,-4.7256,-4.7256,-4.7701,-4.7999,-4.7999,-4.8779,-4.9373,-4.9633,-5.0153,-5.0822,-5.1639,-5.1639,-5.1974,-5.2605,-5.2308,-5.266,-5.3639,-5.334,-5.3528,-5.4132,-5.349,-5.2973,-5.2539,-5.1979,-5.1281,-5.0553,-5.1211,-5.1164,-5.0827,-5.2164,-5.2202,-5.1587,-5.2779,-5.3203,-5.328,-4.5807,-4.5807,-4.5807,-4.5807,-4.5807,-4.5807,-4.5807,-4.5807,-4.5807,-4.5807,-4.5807,-4.5807,-4.5807,-4.5807,-4.5807,-4.5807,-4.5807,-4.5807,-4.5807,-4.5807,-4.5807,-4.5807,-4.5807,-4.5807,-4.5807,-4.5807,-4.5807,-4.5807,-4.5807,-4.5807,-4.5807,-4.5807,-4.5807,-4.5807,-4.5807,-4.5807,-4.5807,-4.5807,-4.5807,-4.5807,-4.5807,-4.5807,-4.5807,-4.5807,-4.5807,-4.5807,-4.5807,-4.5807,-4.5807,-4.5807,-4.5771,-4.5704,-4.5781,-4.5757,-4.572,-4.5466,-4.5341,-4.5233,-4.4932,-4.5472,-4.5923,-4.5097,-4.5368,-4.585,-4.5761,-4.6231,-4.6712,-4.678,-4.7029,-4.7181,-4.6921,-4.6884,-4.6773,-4.655,-4.6513,-4.6513,-4.6513,-4.6735,-4.6884,-4.6884,-4.759,-4.8073,-4.8073,-4.8816,-4.9299,-4.9299,-5.0079,-5.0562,-5.0525,-5.1565,-5.2308,-5.2605,-5.2958,-5.3124,-5.3124,-5.3124,-5.3511,-5.4296,-5.4397,-5.4639,-5.4952,-5.4686,-5.3924,-5.2836,-5.2568,-5.193,-5.1125,-5.1654,-5.1741,-5.1625,-5.3049,-5.3087,-5.2423,-5.3587,-5.3818,-5.3741,-4.5807,-4.5807,-4.5807,-4.5807,-4.5807,-4.5807,-4.5807,-4.5807,-4.5807,-4.5807,-4.5807,-4.5807,-4.5807,-4.5807,-4.5807,-4.5807,-4.5807,-4.5807,-4.5807,-4.5807,-4.5807,-4.5807,-4.5807,-4.5807,-4.5807,-4.5807,-4.5807,-4.5807,-4.5807,-4.5807,-4.5807,-4.5807,-4.5807,-4.5807,-4.5807,-4.5807,-4.5807,-4.5807,-4.5807,-4.5807,-4.5807,-4.5807,-4.5807,-4.5807,-4.5807,-4.5807,-4.5807,-4.5807,-4.5807,-4.5807,-4.5696,-4.5627,-4.6199,-4.6657,-4.7032,-4.7235,-4.715,-4.6824,-4.596,-4.6336,-4.6824,-4.5923,-4.5948,-4.618,-4.605,-4.6387,-4.6826,-4.7222,-4.8167,-4.8667,-4.785,-4.7701,-4.7441,-4.6661,-4.6513,-4.6513,-4.6513,-4.7218,-4.7701,-4.7701,-4.8407,-4.889,-4.889,-4.9633,-5.0116,-5.0116,-5.0896,-5.1416,-5.1416,-5.294,-5.346,-5.2642,-5.3731,-5.4296,-5.4296,-5.4296,-5.4296,-5.4296,-5.4639,-5.4966,-5.5263,-5.4409,-5.3702,-5.3164,-5.2269,-5.1923,-5.1885,-5.1923,-5.2423,-5.328,-5.4164,-5.3972,-5.3395,-5.5088,-5.5203,-5.4626,-4.5807,-4.5807,-4.5807,-4.5807,-4.5807,-4.5807,-4.5807,-4.5807,-4.5807,-4.5807,-4.5807,-4.5807,-4.5807,-4.5807,-4.5807,-4.5807,-4.5807,-4.5807,-4.5807,-4.5807,-4.5807,-4.5807,-4.5807,-4.5807,-4.5807,-4.5807,-4.5807,-4.5807,-4.5807,-4.5807,-4.5807,-4.5807,-4.5807,-4.5807,-4.5807,-4.5807,-4.5807,-4.5807,-4.5807,-4.5807,-4.5807,-4.5807,-4.5807,-4.5807,-4.5807,-4.5807,-4.5807,-4.6194,-4.6675,-4.6505,-4.6805,-4.7242,-4.7079,-4.7006,-4.7026,-4.7076,-4.7032,-4.6936,-4.6674,-4.7072,-4.726,-4.5998,-4.6525,-4.728,-4.7148,-4.7814,-4.8455,-4.8444,-4.8704,-4.8816,-4.8593,-4.8556,-4.8444,-4.8221,-4.8184,-4.8184,-4.8184,-4.8407,-4.8556,-4.8556,-4.8742,-4.889,-4.889,-4.9633,-5.0116,-5.0116,-5.1416,-5.2494,-5.3051,-5.3534,-5.3814,-5.3786,-5.4115,-5.4413,-5.4654,-5.4654,-5.4776,-5.4995,-5.5091,-5.5314,-5.5566,-5.5297,-5.4446,-5.3203,-5.2933,-5.2462,-5.1962,-5.2538,-5.2972,-5.3356,-5.478,-5.4857,-5.4241,-5.5318,-5.5549,-5.5395,-4.5807,-4.5807,-4.5807,-4.5807,-4.5807,-4.5807,-4.5807,-4.5807,-4.5807,-4.5807,-4.5807,-4.5923,-4.6271,-4.6,-4.6078,-4.6767,-4.6844,-4.6689,-4.6348,-4.631,-4.6155,-4.5807,-4.5807,-4.5807,-4.5807,-4.5807,-4.5807,-4.5807,-4.5807,-4.5807,-4.5807,-4.5807,-4.5807,-4.5807,-4.5807,-4.5807,-4.5807,-4.5807,-4.5807,-4.5807,-4.5807,-4.5807,-4.5807,-4.5807,-4.5807,-4.5831,-4.6074,-4.6507,-4.6984,-4.7089,-4.7611,-4.8159,-4.7793,-4.7834,-4.7988,-4.7988,-4.7988,-4.7913,-4.7447,-4.786,-4.8108,-4.66,-4.7364,-4.8461,-4.8364,-4.8729,-4.9033,-4.8927,-4.889,-4.889,-4.889,-4.889,-4.889,-4.889,-4.889,-4.889,-4.889,-4.889,-4.889,-4.889,-4.889,-4.9039,-4.9336,-5.0116,-5.0896,-5.1528,-5.2494,-5.333,-5.3981,-5.3981,-5.4161,-5.4479,-5.4639,-5.4806,-5.4981,-5.5105,-5.5198,-5.5301,-5.5401,-5.5378,-5.5241,-5.5549,-5.4587,-5.2731,-5.3395,-5.3241,-5.2462,-5.3356,-5.3895,-5.428,-5.528,-5.5395,-5.5011,-5.5511,-5.5703,-5.5703,-4.5807,-4.5807,-4.5807,-4.5807,-4.5807,-4.5807,-4.5807,-4.5807,-4.5845,-4.5923,-4.5923,-4.6271,-4.7115,-4.6503,-4.6651,-4.8159,-4.8198,-4.7811,-4.7038,-4.696,-4.6612,-4.5845,-4.5807,-4.5807,-4.5807,-4.5807,-4.5807,-4.5807,-4.5807,-4.5807,-4.5807,-4.5807,-4.5807,-4.5807,-4.5807,-4.5807,-4.5807,-4.5807,-4.5807,-4.5807,-4.5807,-4.5845,-4.5923,-4.5923,-4.5947,-4.6066,-4.663,-4.6896,-4.7079,-4.7657,-4.8263,-4.8648,-4.8378,-4.8852,-4.949,-4.949,-4.949,-4.9265,-4.822,-4.8724,-4.9121,-4.7601,-4.8354,-4.9475,-4.9487,-4.9199,-4.889,-4.889,-4.889,-4.889,-4.889,-4.889,-4.889,-4.889,-4.889,-4.889,-4.889,-4.889,-4.8927,-4.9039,-4.9039,-4.9373,-5.0153,-5.1008,-5.2178,-5.372,-5.3851,-5.3981,-5.4313,-5.433,-5.4495,-5.4836,-5.5157,-5.5314,-5.5339,-5.5566,-5.5566,-5.5339,-5.5566,-5.5318,-5.4626,-5.528,-5.4318,-5.2231,-5.3741,-5.3972,-5.3395,-5.4164,-5.4972,-5.5703,-5.5703,-5.5703,-5.5703,-5.5703,-5.5703,-5.5703,-4.5807,-4.5807,-4.5807,-4.5807,-4.5807,-4.5807,-4.5807,-4.5807,-4.6039,-4.6728,-4.6806,-4.7154,-4.8005,-4.7966,-4.7695,-4.7424,-4.6767,-4.6271,-4.6078,-4.6078,-4.6,-4.5807,-4.5807,-4.5807,-4.5807,-4.5807,-4.5807,-4.5807,-4.5807,-4.5807,-4.5807,-4.5807,-4.5807,-4.5807,-4.5807,-4.5807,-4.5807,-4.5807,-4.5807,-4.5807,-4.5807,-4.6194,-4.6806,-4.6806,-4.7109,-4.7545,-4.7654,-4.8038,-4.8536,-4.9138,-4.9315,-4.9281,-4.9242,-4.934,-4.949,-4.949,-4.949,-4.9437,-4.9187,-4.9293,-4.9406,-4.9069,-4.9015,-4.9106,-4.945,-4.9199,-4.889,-4.889,-4.889,-4.889,-4.889,-4.889,-4.889,-4.889,-4.889,-4.889,-4.889,-4.889,-4.9224,-5.0152,-5.0226,-5.0468,-5.1045,-5.1862,-5.2846,-5.4103,-5.4213,-5.433,-5.467,-5.47,-5.4851,-5.5197,-5.5262,-5.5401,-5.5588,-5.5682,-5.5682,-5.5599,-5.5682,-5.5588,-5.5434,-5.4972,-5.4472,-5.3933,-5.3626,-5.378,-5.4241,-5.4434,-5.4972,-5.5703,-5.5703,-5.5703,-5.5703,-5.5703,-5.5703,-5.5703,-4.5807,-4.5807,-4.5807,-4.5807,-4.5807,-4.5807,-4.5807,-4.5807,-4.6116,-4.6999,-4.6728,-4.7115,-4.8817,-4.8275,-4.7773,-4.7734,-4.8043,-4.7889,-4.7076,-4.7424,-4.727,-4.6464,-4.6426,-4.6232,-4.5807,-4.5807,-4.5807,-4.5807,-4.5807,-4.5807,-4.5807,-4.5807,-4.5807,-4.5807,-4.5807,-4.6039,-4.6426,-4.6426,-4.6651,-4.7038,-4.7038,-4.7308,-4.7734,-4.7734,-4.7913,-4.824,-4.8528,-4.9015,-4.956,-4.9898,-4.991,-4.9814,-4.9814,-4.9814,-4.9814,-4.9738,-4.9679,-4.9663,-4.9537,-4.9483,-4.9508,-4.9484,-4.921,-4.8949,-4.9179,-4.9056,-4.8912,-4.891,-4.8892,-4.8912,-4.891,-4.889,-4.889,-4.889,-4.9336,-4.9725,-4.9725,-4.993,-5.0302,-5.0914,-5.0989,-5.1249,-5.1899,-5.251,-5.3227,-5.4242,-5.4446,-5.4685,-5.5009,-5.5023,-5.5159,-5.5473,-5.5485,-5.5543,-5.5703,-5.5318,-5.5126,-5.5126,-5.5126,-5.4703,-5.3895,-5.3895,-5.3664,-5.328,-5.3664,-5.4087,-5.4511,-5.4895,-5.5318,-5.5703,-5.5703,-5.5703,-5.5703,-5.5703,-5.5703,-5.5703,-4.5807,-4.5807,-4.5845,-4.6,-4.6039,-4.6078,-4.6232,-4.6232,-4.6581,-4.7424,-4.6806,-4.7192,-4.9629,-4.8353,-4.7618,-4.8353,-4.9552,-4.9707,-4.8469,-4.9088,-4.8778,-4.7154,-4.7231,-4.6844,-4.5807,-4.6078,-4.6116,-4.5807,-4.5962,-4.5962,-4.5807,-4.5962,-4.6039,-4.6039,-4.6039,-4.6503,-4.7308,-4.7308,-4.7734,-4.8392,-4.8392,-4.8508,-4.8624,-4.8624,-4.8686,-4.8833,-4.9335,-4.9908,-5.0436,-5.0436,-5.0436,-5.0424,-5.0388,-5.0248,-5.0095,-4.9884,-4.9847,-4.9787,-4.957,-4.9461,-4.9391,-4.9396,-4.9142,-4.8885,-4.891,-4.8895,-4.9043,-4.9631,-4.9745,-4.9764,-4.9743,-4.9502,-4.9336,-4.9336,-5.0134,-5.0821,-5.1117,-5.1545,-5.175,-5.1546,-5.1638,-5.2027,-5.2881,-5.3236,-5.3698,-5.4441,-5.4731,-5.5023,-5.5351,-5.5364,-5.5461,-5.5703,-5.5703,-5.5703,-5.5703,-5.5049,-5.4626,-5.4511,-5.4511,-5.3741,-5.2346,-5.2933,-5.2972,-5.2615,-5.3933,-5.4587,-5.4741,-5.5434,-5.5703,-5.5703,-5.5703,-5.5703,-5.5703,-5.5703,-5.5703,-5.5703,-4.5807,-4.5807,-4.6039,-4.6806,-4.6922,-4.7192,-4.7927,-4.8043,-4.8353,-4.9243,-4.8585,-4.874,-5.055,-4.9243,-4.8275,-4.8392,-4.7927,-4.785,-4.8353,-4.8508,-4.8121,-4.7154,-4.7811,-4.7463,-4.5845,-4.727,-4.7308,-4.5807,-4.6542,-4.6542,-4.5807,-4.6581,-4.6922,-4.6922,-4.6922,-4.7424,-4.8237,-4.8237,-4.8275,-4.8392,-4.8392,-4.8856,-4.9513,-4.9513,-4.9843,-5.0317,-5.0404,-5.08,-5.1338,-5.1338,-5.1338,-5.1264,-5.1064,-5.0507,-4.9884,-4.964,-4.9558,-4.9556,-4.9514,-4.9251,-4.8961,-4.8984,-4.893,-4.8892,-4.8899,-4.8896,-4.9705,-5.2561,-5.3157,-5.3121,-5.3142,-5.1991,-5.1045,-5.1045,-5.1193,-5.1768,-5.3161,-5.344,-5.3143,-5.2196,-5.2557,-5.3294,-5.4412,-5.4527,-5.4737,-5.5132,-5.5223,-5.5364,-5.5649,-5.566,-5.5671,-5.5703,-5.5703,-5.5703,-5.5703,-5.5588,-5.5203,-5.4511,-5.4511,-5.4395,-5.4126,-5.351,-5.3933,-5.5164,-5.4703,-5.4895,-5.5549,-5.5665,-5.5703,-5.5703,-5.5703,-5.5703,-5.5703,-5.5703,-5.5703,-5.5703,-4.7076,-4.6844,-4.6806,-4.7657,-4.7811,-4.7966,-4.8353,-4.8005,-4.8005,-4.8856,-4.8198,-4.8121,-4.9359,-4.9281,-4.9126,-4.9126,-4.9204,-4.9204,-4.9126,-4.9552,-4.9436,-4.8585,-4.8933,-4.8546,-4.727,-4.8005,-4.8005,-4.7231,-4.7657,-4.7386,-4.6542,-4.7424,-4.7811,-4.7811,-4.7811,-4.8314,-4.9126,-4.9126,-4.9397,-4.9784,-4.9784,-5.0016,-5.0357,-5.0357,-5.0549,-5.0791,-5.0791,-5.1239,-5.1905,-5.1905,-5.2213,-5.253,-5.2093,-5.1687,-5.1266,-5.0491,-5.0284,-5.013,-4.9362,-4.9031,-4.8907,-4.8914,-5.0265,-5.1636,-5.1639,-5.1638,-5.2062,-5.3495,-5.3813,-5.3776,-5.3794,-5.2734,-5.1862,-5.1862,-5.1955,-5.2326,-5.3033,-5.3107,-5.3031,-5.2761,-5.308,-5.3747,-5.4716,-5.451,-5.4636,-5.525,-5.5437,-5.5566,-5.5703,-5.5703,-5.5703,-5.5703,-5.5703,-5.5703,-5.5703,-5.5241,-5.4857,-5.4472,-5.401,-5.378,-5.378,-5.3395,-5.3857,-5.5011,-5.4664,-5.4972,-5.5703,-5.5703,-5.5703,-5.5703,-5.5703,-5.5703,-5.5703,-5.5703,-5.6011,-5.6445]},{"header":{"parameterUnit":"m.s-1","parameterCategory":1,"la1":30.6,"la2":28.766,"lo1":-90.7593,"lo2":-88.6598,"dy":0.0162,"dx":0.0183,"nx":116,"ny":114,"refTime":"2024-03-30T12:00:00:Z","depth":0,"parameterNumber":3,"parameterNumberName":"V-component_of_WINDS"},"data":[0.0,0.0,0.0,0.0,0.0,0.0,0.0,0.0,0.0,0.0,0.0,0.0,0.0,0.0,0.0,0.0,0.0,0.0,0.0,0.0,0.0,0.0,0.0,0.0,0.0,0.0,0.0,0.0,0.0,0.0,0.0,0.0,0.0,0.0,0.0,0.0,0.0,0.0,0.0,0.0,0.0,0.0,0.0,0.0,0.0,0.0,0.0,0.0,0.0,0.0,0.0,0.0,0.0,0.0,0.0,0.0,0.0,0.0,0.0,0.0,0.0,0.0,0.0,0.0,0.0,0.0,0.0,0.0,0.0,0.0,0.0,0.0,0.0,0.0,0.0,0.0,0.0,0.0,0.0,0.0,0.0,0.0,0.0,0.0,0.0,0.0,0.0,0.0,0.0,0.0,0.0,0.0,0.0,0.0,0.0,0.0,0.0,0.0,0.0,0.0,0.0,0.0,0.0,0.0,0.0,0.0,0.0,0.0,0.0,0.0,0.0,0.0,0.0,0.0,0.0,0.0,0.0,0.0,0.0,0.0,0.0,0.0,0.0,0.0,0.0,0.0,0.0,0.0,0.0,0.0,0.0,0.0,0.0,0.0,0.0,0.0,0.0,0.0,0.0,0.0,0.0,0.0,0.0,0.0,0.0,0.0,0.0,0.0,0.0,0.0,0.0,0.0,0.0,0.0,0.0,0.0,0.0,0.0,0.0,0.0,0.0,0.0,0.0,0.0,0.0,0.0,0.0,0.0,0.0,0.0,0.0,0.0,0.0,0.0,0.0,0.0,0.0,0.0,0.0,0.0,0.0,0.0,0.0,0.0,0.0,0.0,0.0,0.0,0.0,0.0,0.0,0.0,0.0,0.0,0.0,0.0,0.0,0.0,0.0,0.0,0.0,0.0,0.0,0.0,0.0,0.0,0.0,0.0,0.0,0.0,0.0,0.0,0.0,0.0,0.0,0.0,0.0,0.0,0.0,0.0,0.0,0.0,0.0,0.0,0.0,0.0,0.0,0.0,0.0,0.0,0.0,0.0,0.0,0.0,0.0,0.0,0.0,0.0,0.0,0.0,0.0,0.0,0.0,0.0,0.0,0.0,0.0,0.0,0.0,0.0,0.0,0.0,0.0,0.0,0.0,0.0,0.0,0.0,0.0,0.0,0.0,0.0,0.0,0.0,0.0,0.0,0.0,0.0,0.0,0.0,0.0,0.0,0.0,0.0,0.0,0.0,0.0,0.0,0.0,0.0,0.0,0.0,0.0,0.0,0.0,0.0,0.0,0.0,0.0,0.0,0.0,0.0,0.0,0.0,0.0,0.0,0.0,0.0,0.0,0.0,0.0,0.0,0.0,0.0,0.0,0.0,0.0,0.0,0.0,0.0,0.0,0.0,0.0,0.0,0.0,0.0,0.0,0.0,0.0,0.0,0.0,0.0,0.0,0.0,0.0,0.0,0.0,0.0,0.0,0.0,0.0,0.0,0.0,0.0,0.0,0.0,0.0,0.0,0.0,0.0,0.0,0.0,0.0,0.0,0.0,0.0,0.0,0.0,0.0,0.0,0.0,0.0,0.0,0.0,0.0,0.0,0.0,0.0,0.0,0.0,0.0,0.0,0.0,0.0,0.0,0.0,0.0,0.0,0.0,0.0,0.0,0.0,0.0,0.0,0.0,0.0,0.0,0.0,0.0,0.0,0.0,0.0,0.0,0.0,0.0,0.0,0.0,0.0,0.0,0.0,0.0,0.0,0.0,0.0,0.0,0.0,0.0,0.0,0.0,0.0,0.0,0.0,0.0,0.0,0.0,0.0,0.0,0.0,0.0,0.0,0.0,0.0,0.0,0.0,0.0,0.0,0.0,0.0,0.0,0.0,0.0,0.0,0.0,0.0,0.0,0.0,0.0,0.0,0.0,0.0,0.0,0.0,0.0,0.0,0.0,0.0,0.0,0.0,0.0,0.0,0.0,0.0,0.0,0.0,0.0,0.0,0.0,0.0,0.0,0.0,0.0,0.0,0.0,0.0,0.0,0.0,0.0,0.0,0.0,0.0,0.0,0.0,0.0,0.0,0.0,0.0,0.0,0.0,0.0,0.0,0.0,0.0,0.0,0.0,0.0,0.0,0.0,0.0,0.0,0.0,0.0,0.0,0.0,0.0,0.0,0.0,0.0,0.0,0.0,0.0,0.0,0.0,0.0,0.0,0.0,0.0,0.0,0.0,0.0,0.0,0.0,0.0,0.0,0.0,0.0,0.0,0.0,0.0,0.0,0.0,0.0,0.0,0.0,0.0,0.0,0.0,0.0,0.0,0.0,0.0,0.0,0.0,0.0,0.0,0.0,0.0,0.0,0.0,0.0,0.0,0.0,0.0,0.0,0.0,0.0,0.0,0.0,0.0,0.0,0.0,0.0,0.0,0.0,0.0,0.0,0.0,0.0,0.0,0.0,0.0,0.0,0.0,0.0,0.0,0.0,0.0,0.0,0.0,0.0,0.0,0.0,0.0,0.0,0.0,0.0,0.0,0.0,0.0,0.0,0.0,0.0,0.0,0.0,0.0,0.0,0.0,0.0,0.0,0.0,0.0,0.0,0.0,0.0,0.0,0.0,0.0,0.0,0.0,0.0,0.0,0.0,0.0,0.0,0.0,0.0,0.0,0.0,0.0,0.0,0.0,0.0,0.0,0.0,0.0,0.0,0.0,0.0,0.0,0.0,0.0,0.0,0.0,0.0,0.0,0.0,0.0,0.0,0.0,0.0,0.0,0.0,0.0,0.0,0.0,0.0,0.0,0.0,0.0,0.0,0.0,0.0,0.0,0.0,0.0,0.0,0.0,0.0,0.0,0.0,0.0,0.0,0.0,0.0,0.0,0.0,0.0,0.0,0.0,0.0,0.0,0.0,0.0,0.0,0.0,0.0,0.0,0.0,0.0,0.0,0.0,0.0,0.0,0.0,0.0,0.0,0.0,0.0,0.0,0.0,0.0,0.0,0.0,0.0,0.0,0.0,0.0,0.0,0.0,0.0,0.0,0.0,0.0,0.0,0.0,0.0,0.0,0.0,0.0,0.0,0.0,0.0,0.0,0.0,0.0,0.0,0.0,0.0,0.0,0.0,0.0,0.0,0.0,0.0,0.0,0.0,0.0,0.0,0.0,0.0,0.0,0.0,0.0,0.0,0.0,0.0,0.0,0.0,0.0,0.0,0.0,0.0,0.0,0.0,0.0,0.0,0.0,0.0,0.0,0.0,0.0,0.0,0.0,0.0,0.0,0.0,0.0,0.0,0.0,0.0,0.0,0.0,0.0,0.0,0.0,0.0,0.0,0.0,0.0,0.0,0.0,0.0,0.0,0.0,0.0,0.0,0.0,0.0,0.0,0.0,0.0,0.0,0.0,0.0,0.0,0.0,0.0,0.0,0.0,0.0,0.0,0.0,0.0,0.0,0.0,0.0,0.0,0.0,0.0,0.0,0.0,0.0,0.0,0.0,0.0,0.0,0.0,0.0,0.0,0.0,0.0,0.0,0.0,0.0,0.0,0.0,0.0,0.0,0.0,0.0,0.0,0.0,0.0,0.0,0.0,0.0,0.0,0.0,0.0,0.0,0.0,0.0,0.0,0.0,0.0,0.0,0.0,0.0,0.0,0.0,0.0,0.0,0.0,0.0,0.0,0.0,0.0,0.0,0.0,0.0,0.0,0.0,0.0,0.0,0.0,0.0,0.0,0.0,0.0,0.0,0.0,0.0,0.0,0.0,0.0,0.0,0.0,0.0,0.0,0.0,0.0,0.0,0.0,0.0,0.0,0.0,0.0,0.0,0.0,0.0,0.0,0.0,0.0,0.0,0.0,0.0,0.0,0.0,0.0,0.0,0.0,0.0,0.0,0.0,0.0,0.0,0.0,0.0,0.0,0.0,0.0,0.0,0.0,0.0,0.0,0.0,0.0,0.0,0.0,0.0,0.0,0.0,0.0,0.0,0.0,0.0,0.0,0.0,0.0,0.0,0.0,0.0,0.0,0.0,0.0,0.0,0.0,0.0,0.0,0.0,0.0,0.0,0.0,0.0,0.0,0.0,0.0,0.0,0.0,0.0,0.0,0.0,0.0,0.0,0.0,0.0,0.0,0.0,0.0,0.0,0.0,0.0,0.0,0.0,0.0,0.0,0.0,0.0,0.0,0.0,0.0,0.0,0.0,0.0,0.0,0.0,0.0,0.0,0.0,0.0,0.0,0.0,0.0,0.0,0.0,0.0,0.0,0.0,0.0,0.0,0.0,0.0,0.0,0.0,0.0,0.0,0.0,0.0,0.0,0.0,0.0,0.0,0.0,0.0,0.0,0.0,0.0,0.0,0.0,0.0,0.0,0.0,0.0,0.0,0.0,0.0,0.0,0.0,0.0,0.0,0.0,0.0,0.0,0.0,0.0,0.0,0.0,0.0,0.0,0.0,0.0,0.0,0.0,0.0,0.0,0.0,0.0,0.0,0.0,0.0,0.0,0.0,0.0,0.0,0.0,0.0,0.0,0.0,0.0,0.0,0.0,0.0,0.0,0.0,0.0,0.0,0.0,0.0,0.0,0.0,0.0,0.0,0.0,0.0,0.0,0.0,0.0,0.0,0.0,0.0,0.0,0.0,0.0,0.0,0.0,0.0,0.0,0.0,0.0,0.0,0.0,0.0,0.0,0.0,0.0,0.0,0.0,0.0,0.0,0.0,0.0,0.0,0.0,0.0,0.0,0.0,0.0,0.0,0.0,0.0,0.0,0.0,0.0,0.0,0.0,0.0,0.0,0.0,0.0,0.0,0.0,0.0,0.0,0.0,0.0,0.0,0.0,0.0,0.0,0.0,0.0,0.0,0.0,0.0,0.0,0.0,0.0,0.0,0.0,0.0,0.0,0.0,0.0,0.0,0.0,0.0,0.0,0.0,0.0,0.0,0.0,0.0,0.0,0.0,0.0,0.0,0.0,0.0,0.0,0.0,0.0,0.0,0.0,0.0,0.0,0.0,0.0,0.0,0.0,0.0,0.0,0.0,0.0,0.0,0.0,0.0,0.0,0.0,0.0,0.0,0.0,0.0,0.0,0.0,0.0,0.0,0.0,0.0,0.0,0.0,0.0,0.0,0.0,0.0,0.0,0.0,0.0,0.0,0.0,0.0,0.0,0.0,0.0,0.0,0.0,0.0,0.0,0.0,0.0,0.0,0.0,0.0,0.0,0.0,0.0,0.0,0.0,0.0,0.0,0.0,0.0,0.0,0.0,0.0,0.0,0.0,0.0,0.0,0.0,0.0,0.0,0.0,0.0,0.0,0.0,0.0,0.0,0.0,0.0,0.0,0.0,0.0,0.0,0.0,0.0,0.0,0.0,0.0,0.0,0.0,0.0,0.0,0.0,0.0,0.0,0.0,0.0,0.0,0.0,0.0,0.0,0.0,0.0,0.0,0.0,0.0,0.0,0.0,0.0,0.0,0.0,0.0,0.0,0.0,0.0,0.0,0.0,0.0,0.0,0.0,0.0,0.0,0.0,0.0,0.0,0.0,0.0,0.0,0.0,0.0,0.0,0.0,0.0,0.0,0.0,0.0,0.0,0.0,0.0,0.0,0.0,0.0,0.0,0.0,0.0,0.0,0.0,0.0,0.0,0.0,0.0,0.0,0.0,0.0,0.0,0.0,0.0,0.0,0.0,0.0,0.0,0.0,0.0,0.0,0.0,0.0,0.0,0.0,0.0,0.0,0.0,0.0,0.0,0.0,0.0,0.0,0.0,0.0,0.0,0.0,0.0,0.0,0.0,0.0,0.0,0.0,0.0,0.0,0.0,0.0,0.0,0.0,0.0,0.0,0.0,0.0,0.0,0.0,0.0,0.0,0.0,0.0,0.0,0.0,0.0,0.0,0.0,0.0,0.0,0.0,0.0,0.0,0.0,0.0,0.0,0.0,0.0,0.0,0.0,0.0,0.0,0.0,0.0,0.0,0.0,0.0,0.0,0.0,0.0,0.0,0.0,0.0,0.0,0.0,0.0,0.0,0.0,0.0,0.0,0.0,0.0,0.0,0.0,0.0,0.0,0.0,0.0,0.0,0.0,0.0,0.0,0.0,0.0,0.0,0.0,0.0,0.0,0.0,0.0,0.0,0.0,-1.9452,-2.0213,0.0,0.0,0.0,0.0,0.0,0.0,0.0,0.0,0.0,0.0,0.0,0.0,0.0,0.0,0.0,0.0,0.0,0.0,0.0,0.0,0.0,0.0,0.0,-2.1005,-2.0706,-2.0668,-2.0695,-2.0695,-2.0695,0.0,0.0,0.0,0.0,0.0,-2.0114,-2.0114,-2.004,-2.0027,-2.0027,-2.0027,-2.0013,-2.0354,-2.1278,-2.2632,0.0,0.0,0.0,0.0,0.0,0.0,0.0,0.0,0.0,0.0,0.0,0.0,0.0,0.0,0.0,0.0,0.0,0.0,0.0,0.0,0.0,0.0,0.0,0.0,0.0,0.0,0.0,0.0,0.0,0.0,0.0,0.0,0.0,0.0,0.0,0.0,0.0,0.0,0.0,0.0,0.0,0.0,0.0,0.0,0.0,0.0,0.0,0.0,0.0,0.0,0.0,0.0,0.0,0.0,0.0,0.0,0.0,0.0,0.0,0.0,0.0,0.0,0.0,0.0,0.0,0.0,0.0,0.0,0.0,0.0,-1.7798,-1.8449,0.0,0.0,0.0,0.0,0.0,0.0,0.0,0.0,0.0,0.0,0.0,0.0,0.0,0.0,0.0,0.0,0.0,0.0,0.0,0.0,0.0,-2.1054,-2.105,-2.0509,-2.0174,-2.0227,-2.0167,-2.0153,-2.016,-1.988,0.0,0.0,-1.9439,-1.9292,-1.9292,-1.9292,-1.9399,-1.9581,-1.9575,-1.9601,-1.966,-1.9421,-1.9945,-2.1161,-2.1336,0.0,0.0,0.0,0.0,0.0,0.0,0.0,0.0,0.0,0.0,0.0,0.0,0.0,0.0,0.0,0.0,0.0,0.0,0.0,0.0,0.0,0.0,0.0,0.0,0.0,0.0,0.0,0.0,0.0,0.0,0.0,0.0,0.0,0.0,0.0,0.0,0.0,0.0,0.0,0.0,0.0,0.0,0.0,0.0,0.0,0.0,0.0,0.0,0.0,0.0,0.0,0.0,0.0,0.0,0.0,0.0,0.0,0.0,0.0,0.0,0.0,0.0,0.0,-1.5852,-1.5932,-1.6046,-1.6,-1.5978,-1.6035,-1.6549,-1.6837,-1.692,-1.6872,0.0,0.0,0.0,0.0,0.0,0.0,0.0,0.0,0.0,0.0,0.0,0.0,0.0,0.0,0.0,0.0,0.0,0.0,0.0,-2.0436,-2.0419,-2.0091,-1.996,-2.0153,-2.0167,-2.012,-1.9867,-1.9586,-1.9426,-1.9426,-1.9145,-1.8985,-1.8985,-1.8985,-1.8827,-1.8555,-1.8584,-1.8712,-1.8991,-1.8952,-1.9068,-1.9283,-1.9587,-2.037,-2.1517,0.0,0.0,0.0,0.0,0.0,0.0,0.0,0.0,0.0,0.0,0.0,0.0,0.0,0.0,0.0,0.0,0.0,0.0,0.0,0.0,0.0,0.0,0.0,0.0,0.0,0.0,0.0,0.0,0.0,0.0,0.0,0.0,0.0,0.0,0.0,0.0,0.0,0.0,0.0,0.0,0.0,-2.2644,-2.1843,0.0,0.0,0.0,0.0,0.0,0.0,0.0,0.0,0.0,0.0,0.0,0.0,0.0,-1.55,-1.5682,-1.5898,-1.6023,-1.6057,-1.6057,-1.5955,-1.5818,-1.5612,-1.5509,-1.5509,-1.5565,0.0,-1.6276,-1.6091,0.0,0.0,0.0,0.0,0.0,0.0,0.0,0.0,0.0,0.0,0.0,0.0,0.0,0.0,0.0,0.0,0.0,0.0,0.0,0.0,0.0,-1.9735,-1.9613,-1.9733,-1.9746,-1.9693,-1.9559,-1.9132,-1.8878,-1.8878,-1.8424,-1.817,-1.817,-1.8006,-1.7958,-1.7935,-1.8269,-1.8473,-1.8648,-1.8648,-1.8706,-1.8939,-1.9055,-1.9519,-2.027,-2.146,0.0,0.0,0.0,0.0,0.0,0.0,0.0,0.0,0.0,0.0,0.0,0.0,0.0,0.0,0.0,0.0,0.0,0.0,0.0,0.0,0.0,0.0,0.0,0.0,0.0,0.0,0.0,0.0,0.0,0.0,0.0,0.0,0.0,0.0,0.0,0.0,0.0,0.0,0.0,-2.3503,-2.2378,-2.0093,-1.9784,-1.9314,0.0,0.0,0.0,0.0,0.0,0.0,0.0,0.0,0.0,-1.5475,-1.5243,-1.5309,-1.5638,-1.553,-1.5652,-1.605,-1.5726,-1.5729,-1.5884,-1.5641,-1.553,-1.5519,-1.5243,-1.532,-1.563,-1.5569,-1.5542,-1.5592,0.0,0.0,0.0,0.0,-1.5662,-1.5599,0.0,0.0,0.0,0.0,0.0,0.0,0.0,0.0,0.0,0.0,0.0,0.0,-1.9764,-1.9533,-1.943,-1.943,-1.943,-1.9305,-1.9158,-1.8731,-1.8424,-1.8263,-1.7822,-1.7582,-1.7582,-1.7291,-1.7322,-1.7601,-1.7912,-1.8177,-1.8311,-1.8311,-1.8473,-1.8765,-1.8881,-1.9113,-1.9475,-2.0673,-2.1915,-2.3055,0.0,0.0,0.0,0.0,0.0,0.0,0.0,0.0,0.0,0.0,0.0,0.0,0.0,0.0,0.0,0.0,0.0,0.0,0.0,0.0,0.0,0.0,0.0,0.0,0.0,0.0,0.0,0.0,0.0,0.0,0.0,0.0,0.0,0.0,0.0,0.0,0.0,-2.2409,-2.1149,-1.7993,-1.7833,-1.7356,0.0,0.0,0.0,0.0,0.0,0.0,-1.4966,-1.4744,-1.4815,-1.5177,-1.5074,-1.5182,-1.5601,-1.5246,-1.5332,-1.5909,-1.5505,-1.5494,-1.5763,-1.5591,-1.5472,-1.5397,-1.4977,-1.4902,-1.5031,-1.5055,-1.5083,-1.497,-1.4903,-1.4888,-1.495,-1.495,-1.479,-1.4573,0.0,0.0,0.0,0.0,0.0,0.0,0.0,0.0,0.0,0.0,0.0,-2.0111,-1.9475,-1.943,-1.943,-1.943,-1.943,-1.9189,-1.8571,-1.8504,-1.8237,-1.7649,-1.7595,-1.7582,-1.7582,-1.7272,-1.7241,-1.7601,-1.7313,-1.7481,-1.8031,-1.8031,-1.8194,-1.8415,-1.8765,-1.9113,-1.9475,-2.0673,-2.1915,-2.3055,-2.3859,0.0,0.0,0.0,0.0,0.0,0.0,0.0,0.0,0.0,0.0,0.0,0.0,0.0,0.0,0.0,0.0,0.0,0.0,0.0,0.0,0.0,0.0,0.0,0.0,0.0,0.0,0.0,0.0,0.0,0.0,0.0,0.0,0.0,0.0,0.0,0.0,0.0,0.0,-1.6112,-1.606,0.0,0.0,0.0,0.0,-1.4557,-1.4796,-1.4926,-1.4926,-1.4869,-1.4988,-1.5188,-1.5177,-1.5295,-1.5601,-1.558,-1.558,-1.5612,-1.5591,-1.5472,-1.5231,-1.522,-1.5138,-1.4902,-1.4665,-1.4502,-1.4502,-1.4364,-1.4549,-1.4944,-1.47,-1.468,-1.4698,-1.4698,-1.4527,-1.4299,0.0,0.0,0.0,0.0,0.0,-2.0533,-2.113,-2.075,-2.0366,-2.0315,-2.027,-2.004,-1.9488,-1.9533,-1.9573,-1.9444,-1.9533,-1.9399,-1.8811,-1.8597,-1.8303,-1.7903,-1.7689,-1.7424,-1.7054,-1.6908,-1.6924,-1.703,-1.7074,-1.7283,-1.7667,-1.7667,-1.7843,-1.8135,-1.8428,-1.8765,-1.9113,-1.9751,-2.1057,-2.2593,-2.2624,-2.3836,0.0,0.0,0.0,0.0,0.0,0.0,0.0,0.0,0.0,0.0,0.0,0.0,0.0,0.0,0.0,0.0,0.0,0.0,0.0,0.0,0.0,0.0,0.0,0.0,0.0,0.0,0.0,0.0,0.0,0.0,0.0,0.0,0.0,0.0,0.0,0.0,0.0,-1.6912,-1.6373,0.0,-1.5531,-1.5386,-1.5311,-1.5225,-1.53,-1.5408,-1.5618,-1.5429,-1.5526,-1.5924,-1.5634,-1.5666,-1.6054,-1.5752,-1.5752,-1.6054,-1.5752,-1.5634,-1.5698,-1.5548,-1.5343,-1.5106,-1.4869,-1.4762,-1.4729,-1.4352,-1.4299,-1.4473,-1.4386,-1.4352,-1.4393,-1.4393,-1.4129,-1.3777,0.0,0.0,0.0,0.0,-2.0764,-2.0589,-2.113,-2.0638,-2.0255,-2.0258,-2.0213,-1.9965,-1.9564,-1.9599,-1.9613,-1.9519,-1.9506,-1.9292,-1.8811,-1.841,-1.8103,-1.7903,-1.7596,-1.7265,-1.6823,-1.6742,-1.6741,-1.6827,-1.7008,-1.7274,-1.7612,-1.7612,-1.7801,-1.8168,-1.845,-1.868,-1.8939,-1.9243,-2.0658,-2.2577,-2.2008,-2.3345,-2.5543,0.0,0.0,0.0,0.0,0.0,0.0,0.0,0.0,0.0,0.0,0.0,0.0,0.0,0.0,0.0,0.0,0.0,0.0,0.0,0.0,0.0,0.0,0.0,0.0,0.0,0.0,0.0,0.0,0.0,0.0,0.0,0.0,0.0,0.0,-1.8864,-1.7804,-1.7101,-1.6569,-1.619,-1.6017,-1.5866,-1.572,-1.572,-1.572,-1.5785,-1.5996,-1.5855,-1.5828,-1.6064,-1.5763,-1.5752,-1.6075,-1.5752,-1.5763,-1.6064,-1.5752,-1.5677,-1.5888,-1.5666,-1.5472,-1.5177,-1.4988,-1.4837,-1.474,-1.4352,-1.4191,-1.4191,-1.4191,-1.4137,-1.4073,-1.4073,-1.3814,-1.347,0.0,0.0,0.0,-2.1203,-2.094,-2.0837,-2.1159,-2.0714,-2.0288,-2.03,-2.004,-1.9815,-1.9819,-1.9546,-1.9492,-1.976,-1.9265,-1.8811,-1.8504,-1.7929,-1.7595,-1.7569,-1.7331,-1.7156,-1.7102,-1.6842,-1.6839,-1.7092,-1.7092,-1.7358,-1.7865,-1.7865,-1.8057,-1.8369,-1.8668,-1.8872,-1.8894,-1.9256,-2.0788,-2.2911,-2.2119,-2.3479,-2.5839,0.0,0.0,0.0,0.0,0.0,0.0,0.0,0.0,0.0,0.0,0.0,0.0,0.0,0.0,0.0,0.0,0.0,0.0,0.0,0.0,0.0,0.0,0.0,0.0,0.0,0.0,0.0,0.0,0.0,0.0,0.0,0.0,0.0,-1.8198,-1.79,-1.7302,-1.6458,-1.6538,-1.6558,-1.6093,-1.6039,-1.6028,-1.6028,-1.5968,-1.5957,-1.5957,-1.5946,-1.5838,-1.5612,-1.5601,-1.5601,-1.5601,-1.5591,-1.5591,-1.5601,-1.5591,-1.5591,-1.5591,-1.5591,-1.5461,-1.5156,-1.4977,-1.474,-1.4503,-1.4288,-1.4191,-1.418,-1.4191,-1.404,-1.3836,-1.3825,-1.3674,-1.3437,0.0,0.0,-2.1203,-2.1203,-2.094,-2.0837,-2.1159,-2.0827,-2.0499,-2.0343,-2.0213,-2.0023,-1.9537,-1.9599,-1.9626,-1.9492,-1.9345,-1.9025,-1.8517,-1.813,-1.7729,-1.734,-1.7211,-1.7044,-1.6797,-1.671,-1.6811,-1.7092,-1.7092,-1.7261,-1.7587,-1.7781,-1.7937,-1.8069,-1.8809,-1.9035,-1.8898,-1.9443,-2.0989,-2.2942,-2.2427,-2.286,-2.3913,0.0,0.0,0.0,0.0,0.0,0.0,0.0,0.0,0.0,0.0,0.0,0.0,0.0,0.0,0.0,0.0,0.0,0.0,0.0,0.0,0.0,0.0,0.0,0.0,0.0,0.0,0.0,0.0,0.0,0.0,0.0,-1.7628,-1.7244,-1.7374,-1.7165,-1.694,-1.6797,-1.6872,-1.6926,-1.698,-1.6731,-1.6525,-1.6525,-1.5867,-1.5515,-1.5515,-1.537,-1.5257,-1.5195,-1.5449,-1.5601,-1.5601,-1.5429,-1.5429,-1.5601,-1.5429,-1.5285,-1.5285,-1.5285,-1.5059,-1.4673,-1.4598,-1.4503,-1.4288,-1.4223,-1.4083,-1.3943,-1.4126,-1.4148,-1.4073,-1.389,-1.3556,-1.3179,0.0,-2.1203,-2.1203,-2.1203,-2.1057,-2.0998,-2.1174,-2.0929,-2.0587,-2.0371,-2.0155,-1.9979,-1.9591,-1.9586,-1.9599,-1.9546,-1.9212,-1.8851,-1.8517,-1.809,-1.7689,-1.7393,-1.7195,-1.7152,-1.727,-1.6986,-1.6996,-1.7249,-1.7249,-1.7455,-1.7829,-1.7974,-1.8228,-1.8459,-1.9172,-1.9341,-1.9253,-1.9747,-2.0909,-2.244,-2.2733,-2.3497,-2.4527,-2.4884,-2.5176,-2.5289,-2.5396,-2.558,-2.5766,-2.5865,0.0,0.0,0.0,0.0,0.0,0.0,0.0,0.0,0.0,0.0,0.0,0.0,0.0,0.0,0.0,0.0,0.0,0.0,0.0,0.0,0.0,0.0,0.0,0.0,-1.6759,-1.6725,-1.6725,-1.6706,-1.685,-1.712,-1.7249,-1.7356,-1.7507,-1.6892,-1.6423,-1.6423,-1.5398,-1.4785,-1.4785,-1.4615,-1.4568,-1.4479,-1.465,-1.4818,-1.4818,-1.4636,-1.4754,-1.5175,-1.5039,-1.5051,-1.5188,-1.5188,-1.4931,-1.4469,-1.4428,-1.4256,-1.4029,-1.3933,-1.3803,-1.3696,0.0,0.0,0.0,0.0,-1.3437,-1.3082,-2.1203,-2.1203,-2.1203,-2.1203,-2.1203,-2.1203,-2.1203,-2.096,-2.0673,-2.0328,-2.004,-1.9802,-1.9779,-1.9492,-1.9426,-1.9679,-1.8931,-1.8424,-1.8384,-1.7916,-1.7622,-1.7582,-1.735,-1.7487,-1.7957,-1.7449,-1.7307,-1.7479,-1.7479,-1.7732,-1.8203,-1.8263,-1.8606,-1.92,-1.9587,-1.9833,-2.0051,-2.022,-2.0994,-2.2169,-2.3084,-2.4614,-2.6263,-2.5711,-2.5708,-2.5966,-2.5617,-2.5472,-2.5512,-2.5486,0.0,0.0,0.0,0.0,0.0,0.0,0.0,0.0,0.0,0.0,0.0,0.0,0.0,0.0,0.0,0.0,0.0,0.0,0.0,0.0,0.0,0.0,0.0,0.0,-1.5881,-1.6334,-1.6387,-1.6571,-1.6883,-1.7356,-1.755,-1.7591,-1.7577,-1.6678,-1.5998,-1.5903,-1.463,-1.3854,-1.3836,-1.3836,0.0,0.0,0.0,-1.3693,-1.3693,-1.3665,-1.3954,-1.4629,-1.4609,-1.4782,-1.5156,-1.5156,-1.4888,-1.4482,-1.4288,-1.4051,-1.3803,-1.3599,-1.348,-1.3459,-1.3696,-1.3642,-1.3437,-1.3437,-1.3276,-1.306,-2.1203,-2.1203,-2.1203,-2.1203,-2.1203,-2.1203,-2.1203,-2.1146,-2.0917,-2.0385,-2.0213,-2.0009,-1.9497,-1.9185,-1.9025,-1.9092,-1.8448,-1.8023,-1.7769,-1.7889,-1.7849,-1.7595,-1.7932,-1.8004,-1.7609,-1.7778,-1.7735,-1.7479,-1.7479,-1.7539,-1.7648,-1.8094,-1.8496,-1.8939,-1.9701,-2.0605,-2.1591,-2.0883,-2.2376,-2.5061,-2.4246,-2.4211,-2.4733,-2.5575,-2.5947,-2.6002,-2.5929,-2.5952,-2.5901,-2.5719,-2.5463,-2.5133,-2.4944,-2.4812,0.0,0.0,0.0,0.0,0.0,0.0,0.0,0.0,0.0,0.0,0.0,0.0,0.0,0.0,0.0,0.0,0.0,0.0,0.0,-1.5769,-1.6097,-1.6441,-1.6818,-1.6904,-1.712,-1.7593,-1.7346,-1.7094,-1.6881,-1.614,-1.5376,-1.4702,-1.3731,-1.3127,-1.2966,-1.2958,-1.294,-1.2904,-1.3444,-1.3693,-1.3693,-1.3514,-1.3799,-1.4629,-1.4447,0.0,-1.4955,-1.4955,-1.4697,-1.4256,-1.4213,-1.4051,-1.3814,-1.3771,-1.3523,-1.32,-1.3448,-1.3394,-1.3179,-1.3179,-1.3028,-1.2872,-2.1203,-2.1203,-2.1203,-2.1203,-2.1203,-2.1203,-2.1203,-2.1203,-2.1031,-2.0558,-2.05,-2.027,-1.9649,-1.932,-1.9088,-1.8918,-1.8328,-1.7916,-1.7609,-1.7876,-1.805,-1.8036,-1.8249,-1.8402,-1.8372,-1.8433,-1.8351,-1.8117,-1.8117,-1.813,-1.8094,-1.8545,-1.8989,-1.9512,-2.0106,-2.1204,-2.2581,-2.21,-2.3551,-2.6148,-2.5444,-2.553,-2.6056,-2.6682,-2.6793,-2.6627,-2.6627,-2.6464,-2.63,-2.5844,-2.5569,-2.5313,-2.4683,-2.4521,-2.4453,0.0,0.0,0.0,0.0,0.0,0.0,0.0,0.0,0.0,0.0,0.0,0.0,0.0,0.0,-1.6124,-1.5614,0.0,-1.544,-1.6032,-1.6431,-1.6786,-1.7141,-1.7195,-1.7107,-1.6883,-1.6723,-1.6481,-1.6047,-1.5183,-1.4444,-1.4025,-1.3031,-1.2352,-1.2251,-1.2251,-1.2251,-1.2251,-1.2552,-1.2733,-1.2733,-1.2636,-1.2925,-1.3674,-1.3761,-1.4011,-1.4427,-1.4593,-1.4525,-1.4191,-1.4062,-1.3933,-1.3803,-1.3556,-1.3254,-1.2942,-1.3121,-1.3089,-1.2931,-1.2931,-1.2916,-1.2807,-2.1203,-2.1203,-2.1203,-2.1203,-2.1203,-2.1203,-2.1203,-2.1203,-2.1089,-2.0716,-2.0658,-2.0429,-1.9866,-1.9437,-1.9066,-1.8677,-1.8182,-1.7876,-1.7689,-1.8009,-1.8302,-1.8651,-1.87,-1.8978,-1.9376,-1.9163,-1.9038,-1.89,-1.89,-1.8889,-1.8789,-1.915,-1.9613,-2.0157,-2.0462,-2.1538,-2.3076,-2.3076,-2.4453,-2.6542,-2.6542,-2.7152,-2.7985,-2.7969,-2.76,-2.716,-2.7086,-2.6756,-2.6227,-2.5647,-2.5447,-2.53,-2.4442,-2.4227,-2.4264,-2.3819,-2.3682,0.0,0.0,0.0,0.0,0.0,0.0,0.0,0.0,0.0,-1.615,-1.5751,-1.571,-1.5647,-1.5416,-1.558,-1.586,-1.6247,-1.67,-1.7055,-1.7217,-1.7215,-1.6758,-1.5869,-1.603,-1.5916,-1.5167,-1.4205,-1.3631,-1.3468,-1.2457,-1.1809,-1.1776,-1.1776,-1.1776,-1.1776,-1.1776,-1.1776,-1.1776,-1.1776,-1.2191,-1.2895,-1.3209,-1.3645,-1.4086,-1.4407,-1.4449,-1.418,-1.3933,-1.3793,-1.3717,-1.3287,-1.2974,-1.2807,-1.2807,-1.2807,-1.2807,-1.2807,-1.2807,-1.2807,0.0,-2.1203,-2.1203,-2.1203,-2.1203,-2.1203,-2.1203,-2.1203,-2.1089,-2.0716,-2.05,-2.0213,-1.9809,-1.909,-1.8372,-1.7782,-1.7675,-1.7729,-1.7929,-1.8517,-1.8958,-1.9252,-1.9727,-1.9939,-1.9776,-1.9715,-1.9546,-1.9254,-1.9254,-1.9206,-1.9244,-1.9547,-1.9811,-2.0188,-2.0498,-2.1538,-2.3076,-2.3076,-2.4594,-2.6953,-2.6953,-2.7716,-2.881,-2.8462,-2.7838,-2.7123,-2.6774,-2.6064,-2.5183,-2.4757,-2.449,-2.4336,-2.4247,-2.447,-2.4607,-2.3888,0.0,-2.3564,-2.2911,-2.1722,-2.0043,-1.7371,-1.6602,-1.648,0.0,0.0,-1.4844,-1.5189,-1.5286,-1.5427,-1.5845,-1.6075,-1.6247,-1.6301,-1.67,-1.6937,-1.6764,-1.641,-1.5859,-1.4933,-1.555,-1.5561,-1.4423,-1.3887,-1.3268,-1.2535,-1.2188,-1.1939,-1.1784,-1.1776,-1.1776,-1.1776,-1.1776,-1.1776,-1.1776,-1.1776,-1.2371,-1.3564,-1.3605,-1.4025,-1.4767,-1.4859,-1.4611,-1.418,-1.3933,-1.3706,-1.3491,-1.3222,-1.2974,-1.2807,-1.2807,-1.2807,-1.2807,-1.2807,-1.2807,-1.2807,0.0,-2.1203,-2.1203,-2.1203,-2.1203,-2.1432,-2.2157,-2.1645,-2.1146,-2.1031,-2.0917,-2.063,-2.0155,-1.912,-1.825,-1.7635,-1.7582,-1.7782,-1.8277,-1.8691,-1.9132,-1.9599,-2.0013,-2.026,-2.031,-2.031,-2.0266,-2.0063,-2.0063,-1.9938,-1.975,-2.0053,-2.0307,-2.0433,-2.074,-2.2153,-2.4193,-2.4193,-2.5729,-2.8182,-2.8182,-2.8498,-2.892,-2.8278,-2.7673,-2.7123,-2.6719,-2.5954,0.0,-2.4614,-2.4351,-2.4067,-2.3701,-2.3258,-2.2901,-2.3013,-2.2119,0.0,-1.9925,-1.928,-1.8436,-1.6886,-1.6169,-1.583,-1.613,-1.5501,-1.5027,-1.5558,-1.5655,-1.5806,-1.6342,-1.6515,-1.656,0.0,-1.6872,-1.7023,-1.7077,-1.6774,-1.6193,-1.4993,-1.5084,-1.4668,-1.322,-1.2956,-1.2653,-1.2158,-1.1979,-1.1849,-1.1784,-1.1776,-1.1776,-1.1776,-1.1776,-1.1776,-1.1776,-1.1776,-1.22,-1.2972,-1.3206,-1.3567,-1.4162,-1.437,-1.4374,-1.4191,-1.4083,-1.39,-1.3674,-1.3566,-1.3297,-1.2964,-1.2964,-1.2877,-1.2807,-1.2807,-1.2807,-1.2807,0.0,-2.1203,-2.1318,-2.1645,-2.1432,-2.1489,-2.2369,-2.1759,-2.1203,-2.1203,-2.1146,-2.0787,-2.016,-1.9179,-1.8359,-1.7741,-1.7635,-1.7836,-1.845,-1.8758,-1.9225,-1.9893,-2.0201,-2.0494,-2.0788,-2.0802,-2.077,-2.0729,-2.0821,-2.068,-2.0361,-2.0693,-2.1102,-2.1484,-2.1737,-2.3141,-2.5404,-2.5714,-2.6956,-2.8643,-2.9021,-2.9012,-2.8737,-2.7911,-2.7344,-2.6848,-2.6389,-2.5591,-2.4661,-2.4328,-2.4052,-2.3669,-2.2926,-2.2179,-2.1655,-2.1818,-2.0596,-1.8968,-1.7884,-1.7583,-1.7396,-1.677,-1.601,-1.5637,-1.6368,-1.5957,-1.558,-1.6104,-1.6201,-1.6331,-1.6678,-1.6754,-1.6775,-1.6807,-1.6926,-1.7001,-1.699,-1.6808,-1.6188,-1.5037,-1.4496,-1.3717,-1.2473,-1.2237,-1.2174,-1.2036,-1.1874,-1.1776,-1.1776,-1.1776,-1.1776,-1.1776,-1.1776,-1.1776,-1.1776,-1.1949,-1.2277,-1.2669,-1.3105,-1.3515,-1.385,-1.4081,-1.4191,-1.4191,-1.4191,-1.4051,-1.3814,-1.375,-1.348,-1.3093,-1.3039,-1.291,-1.2807,-1.2807,-1.2807,-1.2807,0.0,0.0,-2.1546,-2.2765,-2.1987,-2.1203,-2.1261,-2.1203,-2.1203,-2.1203,-2.0902,-2.0373,-1.9499,-1.9085,-1.8619,-1.8018,-1.774,-1.7836,-1.845,-1.8758,-1.9319,-2.0127,-2.0508,-2.0802,-2.1096,-2.1096,-2.1096,-2.1109,-2.1403,-2.139,-2.1059,-2.1403,-2.2295,-2.3623,-2.3623,-2.4614,-2.6312,-2.7596,-2.7895,-2.7737,-2.9058,-2.9085,-2.8333,-2.7508,-2.6756,-2.6002,-2.5598,-2.4832,-2.3974,-2.3566,-2.3284,-2.2962,-2.1905,-2.1762,0.0,-2.0302,-1.9567,-1.8968,-1.7884,-1.7569,-1.729,-1.6498,-1.6012,-1.5809,-1.6369,-1.6238,-1.6126,-1.6601,-1.6698,-1.671,-1.6947,-1.699,-1.685,-1.6409,-1.671,-1.6764,-1.6147,-1.5826,-1.5408,-1.4691,-1.3709,-1.2891,-1.2445,-1.2137,-1.2036,-1.2028,-1.1874,-1.1776,-1.1776,-1.1776,-1.1776,-1.1776,-1.1776,-1.1776,-1.1776,-1.2363,-1.2857,-1.3304,-1.3946,-1.436,-1.4469,-1.4299,-1.4191,-1.4191,-1.4191,-1.4051,-1.3803,-1.3577,-1.334,-1.3082,-1.2905,-1.2818,-1.2807,-1.2807,-1.2807,-1.2807,0.0,0.0,0.0,0.0,0.0,-2.2101,-2.1318,-2.1203,-2.1203,-2.1203,-2.0902,0.0,0.0,0.0,0.0,0.0,-1.8982,-1.9137,-1.9509,-1.9137,-1.9225,-1.992,-2.0414,-2.0815,-2.1096,-2.1296,-2.1496,-2.1697,-2.1603,-2.1603,-2.1683,-2.2608,-2.3371,-2.4025,-2.4973,-2.6247,-2.755,-2.7753,-2.8245,-2.89,-2.8815,-2.8627,-2.8242,-2.6885,-2.626,-2.5892,0.0,-2.418,-2.3533,-2.3241,-2.2991,-2.2588,-2.1428,-2.068,-1.9731,-1.7782,-1.7782,-1.8183,-1.7057,-1.6837,-1.6937,-1.6817,-1.6646,-1.6654,-1.6887,-1.6857,-1.6776,-1.6688,-1.6538,-1.6409,-1.6385,-1.6363,-1.6301,-1.6312,-1.6571,-1.6689,-1.6515,-1.6371,-1.5899,-1.477,-1.4281,0.0,-1.2864,-1.2124,-1.1727,-1.1849,-1.1695,-1.1646,-1.1768,-1.1776,-1.1776,-1.1776,-1.1776,-1.1776,-1.1776,-1.1885,-1.2316,-1.3097,-1.3846,-1.424,-1.4309,-1.4223,-1.4191,-1.4191,-1.4191,-1.4148,-1.4062,-1.3986,-1.3717,-1.3351,-1.3265,-1.3089,-1.271,-1.2019,-1.2214,-1.2807,0.0,0.0,0.0,0.0,0.0,0.0,0.0,0.0,0.0,0.0,0.0,0.0,0.0,0.0,0.0,0.0,0.0,-1.9762,-2.0458,-2.0059,-2.0018,-2.0657,-2.101,-2.1184,-2.1066,-2.1273,-2.1278,-2.1056,-2.1497,-2.1859,-2.2102,-2.351,-2.4573,-2.5389,-2.6341,-2.7558,-2.8887,-2.8483,-2.8742,-2.9287,-2.8498,-2.8003,-2.76,-2.6315,-2.5708,0.0,-2.4432,-2.3854,-2.3506,-2.3238,-2.2904,-2.2384,-2.1251,-1.9849,-1.8251,-1.6471,-1.6542,-1.7111,-1.6355,-1.6416,-1.677,-1.7125,-1.715,-1.7241,-1.7634,-1.7467,-1.7155,-1.679,-1.6531,-1.623,-1.5931,-1.5888,-1.5849,-1.5924,-1.6129,-1.6258,-1.6172,-1.6161,-1.5825,-1.481,-1.4514,-1.4071,0.0,0.0,-1.1996,-1.2013,-1.1684,-1.1581,-1.1768,-1.1776,-1.1776,-1.1776,-1.1776,-1.1776,-1.1776,-1.1827,-1.2311,-1.3286,-1.3881,-1.4191,-1.4191,-1.4191,-1.4191,-1.4191,-1.4191,-1.4148,-1.4051,-1.3976,-1.3706,-1.333,-1.284,-1.2472,-1.2116,-1.1033,-1.0837,-1.113,0.0,0.0,0.0,0.0,0.0,0.0,0.0,0.0,0.0,0.0,0.0,0.0,0.0,0.0,0.0,0.0,0.0,0.0,-2.1301,-2.1333,-2.1581,-2.2135,-2.2198,-2.1815,-2.1088,-2.1102,-2.063,-1.9587,-2.1228,-2.2096,-2.2304,-2.4053,-2.5827,-2.7484,-2.7607,-2.8509,-3.0039,-2.9635,-2.9232,-2.881,-2.8003,-2.7233,-2.6463,-2.5708,-2.5106,-2.4721,-2.4049,-2.3805,-2.3755,0.0,0.0,0.0,-2.1097,-1.9228,-1.7318,-1.6205,-1.591,-1.5934,-1.5934,-1.6332,-1.6863,-1.7394,-1.747,-1.7596,-1.8359,-1.7885,-1.7207,-1.6803,-1.6553,-1.6189,0.0,0.0,-1.5483,-1.522,-1.5451,-1.5526,-1.5253,-1.5231,-1.5135,0.0,0.0,0.0,0.0,0.0,0.0,-1.2534,-1.1904,-1.1692,-1.1889,-1.1897,-1.1897,-1.1897,-1.1897,-1.1897,-1.1897,-1.2361,-1.2924,-1.3684,-1.4026,-1.4191,-1.4191,-1.4191,-1.4191,-1.4191,-1.4191,-1.4051,-1.3803,-1.3588,-1.334,-1.2883,-1.1707,-1.1179,-1.0974,-0.9903,-0.8916,-0.8223,0.0,0.0,0.0,0.0,0.0,0.0,0.0,0.0,0.0,0.0,0.0,0.0,0.0,0.0,0.0,0.0,0.0,0.0,-2.2486,-2.1762,-2.1375,-2.1549,-2.1946,-2.2205,-2.2209,-2.2414,-2.2543,-2.2451,-2.2726,-2.292,-2.3225,-2.4512,-2.5477,-2.6143,-2.7275,-2.7988,-2.841,-2.7967,-2.7728,-2.7563,-2.6811,-2.6352,-2.6094,-2.5234,-2.4867,-2.4721,-2.4249,-2.3954,0.0,0.0,0.0,0.0,0.0,-1.7463,-1.6258,-1.5992,-1.6175,-1.6489,-1.6489,-1.6875,-1.7418,-1.795,-1.7913,-1.7804,-1.7951,-1.7676,-1.7095,-1.6172,-1.5787,-1.5429,0.0,0.0,0.0,-1.5145,-1.5451,0.0,-1.5752,-1.5774,0.0,-1.5203,0.0,-1.4823,-1.459,-1.4051,0.0,-1.382,-1.3114,-1.2839,-1.3195,-1.3213,-1.3213,-1.3213,-1.3213,-1.3213,-1.3213,-1.3451,-1.3502,-1.3396,-1.3942,-1.4191,-1.4191,-1.4191,-1.4191,-1.4191,-1.4191,-1.4051,-1.3814,-1.376,-1.3018,-1.1893,-1.1535,-1.0816,-0.9895,-0.881,-0.8768,-0.9015,0.0,0.0,0.0,0.0,0.0,0.0,0.0,0.0,0.0,0.0,0.0,0.0,0.0,0.0,0.0,0.0,0.0,0.0,0.0,-2.3046,-2.257,-2.257,-2.2908,-2.2911,-2.2575,-2.2733,-2.2789,-2.2623,-2.2934,-2.3389,-2.3878,-2.5044,-2.5722,-2.6092,-2.6897,-2.7251,-2.727,-2.6811,-2.6701,0.0,0.0,-2.5598,-2.569,-2.5014,-2.4886,-2.5014,-2.4826,0.0,0.0,0.0,0.0,-2.0158,-1.9195,-1.8009,-1.6901,-1.6545,0.0,-1.6706,-1.6706,-1.6996,-1.7406,-1.7829,-1.7732,-1.7576,-1.7828,-1.7422,-1.6879,-1.6115,-1.5626,0.0,-1.4636,-1.444,-1.4471,0.0,0.0,0.0,-1.5509,-1.5542,-1.5418,0.0,-1.5188,0.0,-1.4902,-1.4692,-1.4578,-1.4713,-1.379,-1.3343,-1.3674,-1.3693,-1.3693,-1.3693,-1.3599,-1.3457,-1.3277,-1.3611,-1.3603,-1.3315,-1.3921,-1.4191,-1.4191,-1.4191,-1.4191,-1.4191,-1.4191,-1.3997,-1.3674,-1.3674,-1.2771,-1.13,-1.0852,-0.9946,-0.8768,-0.7677,-0.7677,-0.8024,0.0,0.0,0.0,0.0,0.0,0.0,0.0,0.0,0.0,0.0,-2.6063,-2.63,0.0,0.0,0.0,0.0,0.0,0.0,0.0,0.0,-2.4202,-2.4202,-2.4202,-2.3755,-2.2736,-2.2736,-2.2418,-2.1843,-2.2791,-2.36,-2.4312,-2.5288,-2.5966,-2.6261,-2.6261,-2.6261,-2.6243,-2.5984,-2.5855,-2.58,-2.5106,-2.5069,-2.5378,0.0,-2.512,-2.5414,0.0,0.0,0.0,0.0,-2.3111,-2.1693,-2.0822,-1.957,-1.8348,-1.7399,-1.696,-1.6754,-1.6791,-1.6996,-1.7249,-1.7479,-1.7334,-1.7249,-1.7672,-1.7189,-1.6578,-1.6263,0.0,-1.5183,-1.4698,-1.4396,-1.4202,-1.4234,0.0,-1.4611,-1.4848,-1.4912,-1.5009,-1.5167,-1.522,-1.5156,-1.4999,-1.5171,-1.5242,-1.5242,-1.4288,-1.379,-1.3913,-1.3923,-1.3913,-1.3885,-1.3702,-1.3337,-1.2961,-1.3472,-1.3637,-1.3423,-1.3975,-1.4191,-1.4191,-1.4191,-1.4191,-1.4191,-1.4159,-1.389,-1.348,-1.348,-1.2526,-1.0886,-0.9978,-0.8882,-0.7677,-0.6736,-0.6387,-0.6387,0.0,0.0,0.0,0.0,0.0,0.0,0.0,0.0,0.0,0.0,-2.7672,-2.7565,0.0,0.0,0.0,0.0,0.0,0.0,0.0,0.0,0.0,-2.4202,-2.4202,-2.4102,-2.3904,-2.3904,-2.3823,-2.3745,-2.3895,-2.4067,-2.4213,-2.4414,-2.4551,-2.4624,-2.4624,-2.4624,-2.4643,-2.4918,-2.4977,-2.4996,-2.5197,-2.5359,-2.5362,-2.5289,0.0,0.0,0.0,0.0,0.0,0.0,-2.4127,-2.2448,-2.0657,-1.9608,-1.8751,-1.7741,-1.7225,-1.7068,-1.7286,-1.7539,-1.7744,-1.7793,-1.7612,-1.7382,-1.7249,-1.6779,0.0,0.0,-1.536,-1.4979,-1.4665,-1.4396,-1.4256,-1.4449,0.0,0.0,0.0,0.0,-1.5145,0.0,-1.5418,-1.5526,-1.5483,-1.5515,0.0,-1.5537,-1.5359,-1.5252,-1.5294,-1.5245,-1.515,-1.4971,-1.4919,-1.4666,-1.4203,-1.4314,-1.4252,-1.4029,-1.4137,-1.4191,-1.4191,-1.4191,-1.4191,-1.418,-1.3976,-1.3728,-1.348,-1.348,-1.2072,-0.9862,-0.9912,-0.8578,-0.6637,-0.6487,-0.6387,-0.6387,0.0,0.0,0.0,0.0,0.0,0.0,0.0,-2.8613,-2.8613,-2.8613,-2.8536,-2.8353,-2.7964,-2.7584,-2.7292,0.0,0.0,0.0,0.0,0.0,0.0,0.0,0.0,0.0,-2.4532,-2.4312,-2.4312,-2.4532,0.0,-2.4422,-2.4826,-2.4624,-2.4643,-2.4845,-2.4845,-2.4845,-2.4845,-2.5047,-2.5087,-2.5157,-2.5289,-2.5543,-2.5727,0.0,0.0,0.0,0.0,0.0,0.0,0.0,-2.5752,-2.4624,-2.287,-2.1088,-1.9599,-1.9094,-1.8289,-1.7491,-1.7491,-1.7575,-1.7636,-1.7503,-1.7274,-1.7008,-1.673,0.0,0.0,0.0,-1.547,-1.5148,-1.488,0.0,0.0,0.0,0.0,0.0,0.0,0.0,0.0,0.0,0.0,0.0,0.0,-1.5418,-1.5472,-1.5591,-1.5601,-1.5601,-1.5601,-1.5601,-1.5429,-1.5074,-1.5063,-1.4837,-1.4363,-1.4363,-1.4299,-1.4191,-1.4191,-1.4191,-1.4191,-1.4191,-1.4191,-1.4191,-1.4062,-1.3879,-1.3653,-1.3653,-1.2444,-1.0603,-1.0742,-0.9311,-0.7229,-0.7229,-0.688,-0.6387,0.0,0.0,0.0,0.0,0.0,0.0,-2.8848,-2.8926,-2.8945,-2.9043,-2.9078,-2.8834,-2.8138,-2.7663,-2.7408,0.0,0.0,0.0,0.0,0.0,0.0,0.0,0.0,0.0,0.0,0.0,0.0,-2.4904,-2.4624,0.0,0.0,0.0,0.0,0.0,-2.5414,-2.5414,-2.5433,-2.5506,-2.5543,0.0,0.0,-2.5874,0.0,0.0,0.0,0.0,0.0,0.0,0.0,0.0,-2.6865,-2.6343,-2.5165,-2.3071,-2.0962,-2.0127,-1.906,-1.8126,-1.7803,-1.766,-1.7563,-1.7189,-1.6972,-1.6767,-1.638,-1.6079,0.0,0.0,-1.5684,-1.5428,-1.5041,0.0,-1.4504,0.0,-1.4342,0.0,0.0,0.0,0.0,0.0,0.0,0.0,-1.5188,-1.5188,0.0,-1.558,-1.5601,-1.5601,-1.5601,-1.5601,-1.5408,-1.4977,-1.4966,-1.474,-1.4266,-1.4266,-1.4245,-1.4191,-1.4191,-1.4191,-1.4191,-1.4191,-1.4191,-1.4191,-1.4137,-1.3997,-1.3814,-1.376,-1.2874,-1.1491,-1.124,-0.9862,-0.7975,-0.7726,-0.7129,-0.6387,0.0,0.0,0.0,0.0,0.0,0.0,-2.8848,-2.8926,-2.9062,-2.9453,-2.9271,-2.8949,-2.8507,-2.7935,-2.7436,0.0,0.0,0.0,0.0,0.0,0.0,0.0,0.0,0.0,0.0,0.0,0.0,-2.5307,-2.5323,0.0,0.0,0.0,0.0,0.0,0.0,-2.5414,-2.5451,-2.58,0.0,0.0,0.0,0.0,0.0,0.0,0.0,0.0,0.0,0.0,0.0,0.0,0.0,-2.6135,-2.6006,-2.4879,-2.2999,-1.9469,0.0,0.0,-1.8386,-1.8215,-1.8034,-1.7286,-1.7249,-1.7213,-1.6477,0.0,0.0,-1.5885,-1.5684,-1.5428,-1.5041,-1.4761,-1.4504,-1.4245,0.0,-1.4223,0.0,0.0,0.0,0.0,0.0,0.0,-1.5167,-1.5188,-1.5285,-1.558,-1.5601,-1.5601,-1.5601,-1.5601,-1.5483,-1.5167,-1.5156,-1.4931,-1.4459,-1.4448,-1.4396,-1.4191,-1.4191,-1.4191,-1.4191,-1.4191,-1.4191,-1.418,-1.3954,-1.3836,-1.3803,-1.3599,-1.273,-1.1391,-1.0474,-0.9253,-0.7875,-0.688,-0.6487,-0.6387,0.0,0.0,0.0,0.0,0.0,0.0,-2.8848,-2.8762,-2.8807,-2.9232,-2.9221,-2.9146,-2.8937,-2.8352,-2.7698,-2.7045,0.0,0.0,0.0,0.0,0.0,0.0,0.0,0.0,0.0,0.0,-2.5414,-2.5414,-2.5414,0.0,0.0,0.0,0.0,0.0,0.0,-2.6096,-2.6114,-2.6279,0.0,0.0,0.0,0.0,0.0,0.0,0.0,0.0,0.0,0.0,0.0,0.0,0.0,0.0,-2.3982,-2.3419,0.0,0.0,-1.9965,-1.9463,-1.8335,-1.8763,-1.9111,-1.7518,-1.7165,-1.7032,-1.6235,0.0,0.0,-1.5885,-1.5844,-1.563,-1.5374,-1.5041,-1.4773,-1.4504,-1.4299,0.0,0.0,0.0,0.0,0.0,0.0,0.0,0.0,0.0,-1.5285,-1.558,-1.5601,-1.5601,-1.5601,-1.5601,-1.5494,-1.5199,-1.5106,-1.4869,-1.448,-1.4396,-1.4288,-1.4191,-1.4191,-1.4191,-1.4191,-1.4191,-1.4191,-1.4191,-1.4083,-1.404,-1.4029,-1.3782,-1.3287,-1.2649,-1.2093,-1.0662,-0.8916,-0.8471,-0.7528,-0.6387,0.0,0.0,0.0,0.0,0.0,-2.8437,-2.8848,-2.8652,-2.8661,-2.9064,-2.9089,-2.9145,-2.922,-2.8539,-2.7847,-2.7399,-2.6884,0.0,0.0,0.0,0.0,0.0,0.0,0.0,0.0,0.0,-2.5729,-2.5729,-2.5729,-2.5876,0.0,0.0,-2.6298,-2.6591,0.0,0.0,0.0,0.0,0.0,0.0,0.0,0.0,0.0,0.0,0.0,0.0,0.0,0.0,0.0,0.0,0.0,0.0,0.0,0.0,0.0,0.0,-1.9943,-1.9402,-1.8551,-1.8958,-1.927,-1.7842,-1.7318,-1.6875,0.0,0.0,0.0,-1.5885,-1.5885,-1.5844,-1.5535,-1.5202,-1.4934,-1.4654,0.0,-1.4191,-1.4191,0.0,0.0,0.0,0.0,-1.4729,0.0,-1.5171,-1.5418,-1.5591,-1.5601,-1.5601,-1.5601,-1.5601,-1.5494,-1.5199,-1.5085,-1.4848,-1.448,-1.4374,-1.4266,-1.4191,-1.4191,-1.4191,-1.4191,-1.4191,-1.4191,-1.4191,-1.4191,-1.4191,-1.4169,-1.3846,-1.3465,-1.2977,-1.2314,-1.0857,-0.9114,-0.8768,-0.7677,-0.6387,0.0,0.0,0.0,0.0,0.0,-2.8437,-2.8848,-2.8652,-2.8661,-2.9064,-2.8841,-2.8842,-2.9278,-2.8277,-2.7753,-2.8182,-2.7197,0.0,0.0,0.0,0.0,0.0,0.0,0.0,0.0,0.0,-2.6573,-2.6573,-2.6573,-2.6573,-2.6591,-2.6591,-2.6591,-2.6591,0.0,0.0,0.0,0.0,0.0,0.0,0.0,0.0,0.0,0.0,0.0,0.0,0.0,0.0,0.0,0.0,0.0,0.0,0.0,-2.2149,-2.0007,0.0,-1.8004,-1.8958,-1.9194,-1.8606,-1.804,-1.8384,-1.7779,-1.6875,0.0,0.0,0.0,-1.5885,-1.5885,-1.5844,-1.5535,-1.5202,-1.4934,-1.4654,-1.4342,0.0,-1.4191,0.0,0.0,0.0,0.0,-1.4385,-1.4837,-1.5311,-1.5601,-1.5601,-1.5601,-1.5601,-1.5601,-1.5601,-1.5494,-1.5199,-1.5188,-1.4963,-1.448,-1.448,-1.4417,-1.4191,-1.4191,-1.4191,-1.4191,-1.4191,-1.4191,-1.4191,-1.4191,-1.4191,-1.4159,-1.3674,-1.2905,-1.1756,-1.0245,-0.8966,-0.7875,-0.683,-0.6437,-0.6387,0.0,0.0,0.0,0.0,0.0,0.0,-2.8476,-2.8064,-2.7891,-2.829,-2.7977,-2.7901,-2.8605,-2.7881,-2.7493,-2.7899,-2.7105,0.0,0.0,0.0,0.0,0.0,0.0,0.0,0.0,-2.6591,-2.6719,-2.6995,-2.6995,-2.6995,-2.6995,-2.6995,-2.6848,-2.6591,-2.6591,-2.6591,0.0,0.0,0.0,0.0,0.0,0.0,-2.6591,0.0,0.0,0.0,0.0,0.0,0.0,0.0,0.0,0.0,0.0,0.0,0.0,-1.7568,-1.7869,-1.8874,-1.8046,-1.8384,-1.8726,-1.756,-1.7035,-1.6658,-1.603,0.0,0.0,-1.5885,-1.5885,-1.5885,-1.5791,-1.5523,-1.5256,-1.4934,-1.4665,0.0,0.0,0.0,0.0,0.0,-1.4719,-1.5031,0.0,-1.5515,-1.5601,-1.5601,-1.5601,-1.5601,-1.5601,-1.5601,-1.5569,-1.5494,-1.5274,-1.5124,-1.4963,-1.4641,-1.4448,-1.4428,-1.4266,-1.4191,-1.4191,-1.4191,-1.4191,-1.4191,-1.4191,-1.4094,-1.3911,-1.361,-1.3169,-1.2576,-1.1234,-1.0043,-0.8966,-0.7875,-0.703,-0.6387,0.0,0.0,0.0,0.0,0.0,0.0,-2.8174,-2.7691,-2.7463,-2.7599,-2.7215,-2.727,-2.8077,-2.7435,-2.7178,-2.7767,-2.705,0.0,0.0,0.0,0.0,0.0,0.0,0.0,-2.6591,-2.6591,-2.6848,-2.7454,-2.7454,-2.7471,-2.7636,-2.7636,-2.7343,-2.6811,-2.6811,-2.6719,0.0,0.0,0.0,0.0,0.0,0.0,-2.6591,0.0,0.0,0.0,0.0,0.0,0.0,0.0,0.0,0.0,0.0,0.0,0.0,0.0,-1.7324,-1.7965,0.0,-1.7925,-1.8254,-1.7414,-1.687,0.0,0.0,0.0,0.0,0.0,0.0,0.0,0.0,-1.5684,-1.5428,-1.5202,-1.488,0.0,0.0,0.0,0.0,-1.4503,0.0,0.0,0.0,-1.5548,-1.5601,-1.5601,-1.5601,-1.5601,-1.5601,-1.5601,-1.5601,-1.5601,-1.5317,-1.5145,-1.5117,-1.4729,-1.448,-1.448,-1.4299,-1.4191,-1.4191,-1.4191,-1.4191,-1.4191,-1.4094,-1.3965,0.0,-1.3059,-1.2638,-1.2324,-1.0663,-0.96,-0.8867,-0.7776,-0.698,-0.6387,0.0,0.0,0.0,0.0,0.0,0.0,0.0,-2.7584,-2.726,-2.6935,-2.6627,-2.6701,-2.7373,-2.6791,-2.6664,-2.7373,-2.6846,0.0,0.0,0.0,0.0,0.0,0.0,0.0,-2.6591,-2.6591,-2.6976,-2.7822,-2.7822,-2.7985,-2.8388,-2.8388,-2.7967,-2.7178,-2.7178,-2.6958,-2.6591,-2.6591,-2.6591,-2.6591,-2.6591,-2.6591,0.0,0.0,0.0,0.0,0.0,0.0,0.0,0.0,0.0,0.0,0.0,0.0,0.0,0.0,0.0,0.0,0.0,-1.7308,-1.6851,-1.7711,-1.7105,-1.6187,-1.5946,0.0,0.0,0.0,0.0,0.0,0.0,0.0,0.0,0.0,0.0,0.0,0.0,0.0,0.0,0.0,-1.4772,0.0,-1.5177,-1.5461,-1.5601,-1.5601,-1.5601,-1.5601,-1.5601,-1.5601,-1.5591,-1.558,-1.5328,-1.5171,-1.4934,-1.4686,-1.4502,-1.4502,-1.4309,-1.4191,-1.4191,-1.4191,-1.4191,-1.418,-1.3943,-1.3825,-1.3656,-1.214,-1.1551,-1.1353,-0.8919,-0.8074,-0.7975,-0.683,-0.6387,-0.6387,0.0,0.0,0.0,0.0,0.0,0.0,0.0,0.0,0.0,0.0,-2.5386,-2.4958,-2.4232,-2.397,-2.3937,0.0,0.0,0.0,0.0,0.0,0.0,0.0,0.0,0.0,-2.6591,-2.6591,-2.6976,-2.7822,-2.7822,-2.7985,-2.8388,-2.8388,-2.7967,-2.7178,-2.7178,-2.6958,-2.6591,-2.6591,-2.6591,-2.6591,-2.6591,-2.6591,0.0,0.0,0.0,0.0,-2.6591,-2.6591,0.0,0.0,0.0,0.0,0.0,0.0,0.0,0.0,-1.6361,-1.607,-1.6332,0.0,-1.612,-1.6369,-1.6196,-1.597,0.0,0.0,0.0,0.0,0.0,0.0,0.0,0.0,0.0,0.0,0.0,0.0,0.0,0.0,0.0,-1.4491,-1.5063,-1.5386,-1.521,-1.5461,-1.5601,-1.5601,-1.5601,-1.5601,-1.5601,-1.5601,-1.5515,-1.5285,-1.5451,-1.5494,-1.5429,-1.5009,-1.4805,-1.4794,-1.4385,-1.4191,-1.4191,-1.4191,-1.4191,-1.4191,-1.4126,-1.39,-1.3493,-1.2289,-1.2103,-1.2198,-0.9171,-0.852,-0.9015,-0.708,-0.6387,-0.6387,0.0,0.0,0.0,0.0,0.0,0.0,0.0,0.0,0.0,0.0,-2.4539,-2.4334,-2.3143,-2.3999,-2.4445,0.0,0.0,0.0,0.0,0.0,0.0,0.0,0.0,-2.6591,-2.6591,-2.6591,-2.7068,-2.8058,-2.8058,-2.8352,-2.8938,-2.8755,-2.8223,-2.7435,-2.7068,-2.6793,-2.6591,-2.6591,-2.6591,-2.6591,-2.6591,0.0,0.0,0.0,0.0,0.0,-2.6591,-2.6591,0.0,-2.6591,-2.6482,-2.5864,0.0,0.0,0.0,0.0,-1.6304,-1.5885,-1.5885,-1.5885,-1.5885,-1.5885,-1.5885,-1.5885,-1.5885,0.0,0.0,0.0,0.0,0.0,0.0,0.0,0.0,0.0,-1.5589,0.0,0.0,0.0,0.0,-1.4525,-1.4966,-1.5311,-1.5397,-1.5526,-1.5601,-1.5601,-1.5601,-1.5548,-1.544,-1.544,-1.5328,-1.5199,-1.5317,-1.544,-1.544,-1.5074,-1.488,-1.488,-1.4417,-1.4191,-1.4191,-1.4191,-1.4191,-1.4191,-1.4073,-1.3814,-1.3367,-1.1699,-1.1413,-1.1765,-0.8513,-0.7925,-0.8669,-0.703,-0.6387,-0.6387,0.0,0.0,0.0,0.0,0.0,0.0,0.0,0.0,0.0,0.0,0.0,0.0,0.0,0.0,0.0,0.0,0.0,0.0,0.0,0.0,0.0,0.0,-2.6591,-2.6591,-2.6591,-2.6591,-2.7123,-2.8205,-2.8333,-2.8773,-2.947,-2.9195,-2.8608,-2.7785,-2.7013,-2.6646,-2.6591,-2.6591,-2.6591,-2.6591,-2.6591,0.0,0.0,0.0,0.0,0.0,0.0,0.0,0.0,-2.6591,-2.63,-2.548,-2.2921,0.0,0.0,0.0,0.0,0.0,-1.5885,-1.5885,-1.5885,-1.5885,-1.5885,-1.5885,-1.5885,0.0,0.0,0.0,0.0,0.0,0.0,-1.5885,0.0,0.0,0.0,0.0,-1.4537,-1.4389,-1.4406,-1.4546,-1.4826,-1.5138,-1.5505,-1.558,-1.5601,-1.5601,-1.5601,-1.5494,-1.5199,-1.5231,-1.5199,-1.5092,-1.5156,-1.5156,-1.5081,-1.4966,-1.488,-1.488,-1.4417,-1.4191,-1.4191,-1.4191,-1.4191,-1.418,-1.3965,-1.3613,-1.309,-1.0943,-1.0388,-1.0632,-0.7571,-0.703,-0.7875,-0.6786,-0.6387,-0.6387,0.0,0.0,0.0,0.0,0.0,0.0,0.0,0.0,0.0,0.0,0.0,0.0,0.0,0.0,0.0,0.0,0.0,0.0,0.0,0.0,0.0,-2.6591,-2.6591,-2.6591,-2.6591,-2.6591,-2.6848,-2.7361,-2.8058,-2.8627,-2.9085,-2.936,-2.8924,-2.7803,-2.7288,-2.6903,-2.6591,-2.6591,-2.6591,-2.6591,-2.6591,0.0,0.0,0.0,0.0,0.0,0.0,0.0,0.0,-2.6591,-2.5916,-2.4658,-2.27,0.0,0.0,0.0,0.0,0.0,-1.5885,-1.5885,-1.5885,-1.5885,-1.5885,-1.5885,-1.5885,0.0,0.0,0.0,0.0,0.0,0.0,-1.5885,-1.5813,0.0,0.0,-1.5176,0.0,0.0,-1.5087,-1.4883,-1.5225,-1.544,-1.5263,-1.5483,-1.5601,-1.5601,-1.5601,-1.5494,-1.5199,-1.544,-1.5268,-1.4609,-1.4984,-1.4995,-1.4598,-1.4805,-1.488,-1.488,-1.4417,-1.4191,-1.4191,-1.4191,-1.4191,-1.4191,-1.4159,-1.3393,-1.2061,-1.0785,-1.0112,-0.9608,-0.7279,-0.703,-0.7875,-0.6786,-0.6387,-0.6387,0.0,0.0,0.0,0.0,0.0,0.0,0.0,0.0,0.0,0.0,0.0,0.0,0.0,0.0,0.0,0.0,0.0,0.0,0.0,0.0,-2.6683,-2.6903,-2.6701,-2.6683,-2.6903,-2.7123,-2.7636,-2.852,-2.8847,-2.9342,-2.9947,-2.925,-2.8407,-2.7491,-2.7031,-2.6756,-2.6591,-2.6591,-2.6591,-2.6591,0.0,0.0,0.0,0.0,0.0,0.0,0.0,0.0,0.0,0.0,-2.5428,-2.3985,-2.2193,0.0,0.0,0.0,0.0,0.0,-1.5885,-1.5885,-1.5885,-1.5885,-1.5885,-1.5885,-1.5885,-1.5885,0.0,0.0,0.0,0.0,0.0,0.0,-1.5849,-1.5728,0.0,-1.5524,-1.5437,-1.5418,-1.53,-1.5152,-1.5308,-1.5418,-1.544,-1.5537,-1.5548,-1.5418,-1.5349,-1.5188,-1.4823,-1.4966,-1.4869,-1.4491,-1.4695,-1.4759,-1.4729,-1.4708,-1.4697,-1.4697,-1.4352,-1.4191,-1.4191,-1.4191,-1.4191,-1.4191,-1.4051,-1.353,-1.2628,-1.0861,-0.9944,-0.941,-0.7229,-0.6681,-0.708,-0.6587,-0.6387,-0.6387,0.0,0.0,0.0,0.0,0.0,0.0,0.0,0.0,0.0,0.0,0.0,0.0,0.0,0.0,0.0,0.0,0.0,0.0,0.0,-2.6591,-2.6719,-2.7031,-2.683,-2.6958,-2.7453,-2.7765,-2.8407,-2.9434,-2.9727,-3.013,-3.0626,-2.9287,-2.8071,-2.6895,-2.6792,-2.65,-2.619,-2.619,-2.619,-2.619,0.0,0.0,0.0,0.0,0.0,0.0,0.0,0.0,0.0,0.0,0.0,0.0,0.0,0.0,0.0,-1.6665,-1.6111,-1.5885,-1.5885,-1.5885,-1.5885,-1.5885,-1.5885,-1.5885,-1.5885,-1.5885,-1.5885,0.0,0.0,0.0,0.0,-1.5837,0.0,-1.5958,-1.5934,-1.5851,-1.5759,-1.5629,-1.5569,-1.5545,-1.5398,-1.5338,-1.558,-1.5548,-1.544,-1.521,-1.5135,-1.492,-1.4502,-1.4589,-1.4568,-1.4405,-1.4503,-1.46,-1.4719,-1.4546,-1.4427,-1.448,-1.4299,-1.4191,-1.4191,-1.4191,-1.4159,-1.4094,-1.39,-1.3497,-1.2863,-1.0848,-0.9712,-0.9015,-0.7129,-0.6387,-0.6387,-0.6387,-0.6387,-0.6387,0.0,0.0,0.0,0.0,0.0,0.0,0.0,0.0,0.0,0.0,0.0,0.0,0.0,0.0,0.0,0.0,0.0,0.0,0.0,-2.6591,-2.6591,-2.6628,-2.6958,-2.7508,-2.8297,-2.8333,-2.8572,-2.903,-3.0149,-3.0552,-3.0241,-2.9727,-2.8295,-2.6111,-2.6839,-2.6312,-2.4944,-2.4944,-2.4944,-2.4944,-2.4944,0.0,0.0,0.0,0.0,0.0,0.0,0.0,0.0,0.0,0.0,0.0,0.0,0.0,-1.7159,-1.6505,-1.6111,-1.5885,-1.5885,-1.5885,-1.5885,-1.5885,-1.5885,-1.5885,-1.5885,-1.5885,0.0,-1.5885,0.0,0.0,0.0,-1.5692,-1.5692,-1.6175,-1.6054,-1.6042,-1.649,-1.6264,-1.6032,-1.6057,-1.5747,-1.558,-1.5601,-1.5338,-1.521,-1.5188,-1.5042,-1.4794,-1.4491,-1.474,-1.4665,-1.4234,-1.4428,-1.4439,-1.4245,-1.4223,-1.432,-1.448,-1.4299,-1.4191,-1.4191,-1.4191,-1.4062,-1.3846,-1.3825,-1.2988,-1.157,-1.0433,-0.9261,-0.8024,-0.683,-0.6387,-0.6387,-0.6387,-0.6387,-0.6387,0.0,0.0,0.0,0.0,0.0,0.0,0.0,0.0,0.0,0.0,0.0,0.0,0.0,0.0,0.0,0.0,0.0,0.0,0.0,-2.6591,-2.6701,-2.694,-2.6866,-2.7306,-2.837,-2.914,-2.9965,-3.0864,-3.1066,-3.0429,-2.9092,-2.8147,-2.6582,-2.454,-2.4574,-2.415,-2.3376,-2.3376,-2.3299,-2.3119,-2.3113,-2.2403,0.0,0.0,0.0,0.0,0.0,0.0,0.0,0.0,-2.0496,-1.9368,-1.8765,-1.7661,-1.6555,-1.6189,-1.6004,-1.5885,-1.5885,-1.5885,-1.5885,-1.5885,-1.5885,0.0,0.0,-1.5885,-1.5885,-1.5885,-1.5885,0.0,0.0,0.0,-1.5813,-1.6006,-1.638,-1.6626,-1.6657,-1.6668,-1.6552,-1.636,-1.6242,-1.6005,-1.5661,-1.5562,-1.5355,-1.5031,-1.4805,-1.4568,-1.4342,-1.4406,-1.4374,-1.4202,-1.4277,-1.4288,-1.4191,-1.4191,-1.4234,-1.432,-1.4234,-1.4191,-1.4191,-1.4029,-1.3911,-1.3803,-1.3502,-1.2658,-1.1432,-1.0254,-0.9069,-0.7875,-0.683,-0.6387,-0.6387,-0.6387,-0.6387,-0.6387,0.0,0.0,0.0,0.0,0.0,0.0,0.0,0.0,0.0,0.0,0.0,0.0,0.0,0.0,0.0,0.0,0.0,0.0,-2.6537,-2.6245,-2.6134,-2.6403,-2.5945,-2.6183,-2.7223,-2.8689,-3.0139,-3.1616,-3.1451,-2.9984,-2.7385,-2.6824,-2.5344,-2.3006,-2.302,-2.2616,-2.1954,-2.1954,-2.1767,-2.1526,-2.1416,-2.0659,0.0,0.0,0.0,0.0,0.0,0.0,0.0,0.0,-1.897,-1.8185,-1.7675,-1.6942,-1.6271,-1.6004,-1.5885,-1.5885,-1.5885,-1.5885,-1.5885,-1.5885,0.0,0.0,-1.5765,-1.5825,-1.5861,-1.5777,-1.5825,-1.5861,-1.5777,0.0,0.0,-1.6006,-1.6549,-1.696,-1.6948,-1.6971,-1.6903,-1.6714,-1.6537,-1.6301,-1.5839,-1.566,-1.5407,-1.4958,-1.46,-1.4363,-1.4202,-1.4191,-1.4191,-1.4191,-1.4191,-1.4191,-1.4191,-1.4116,-1.4073,-1.4073,-1.3997,-1.4008,-1.4073,-1.3825,-1.3663,-1.3577,-1.3243,-1.2463,-1.1328,-1.0102,-0.8768,-0.7428,-0.6686,-0.6387,-0.6387,-0.6387,-0.6387,-0.6387,0.0,0.0,0.0,0.0,0.0,0.0,0.0,0.0,-2.073,-1.9533,-1.943,0.0,0.0,0.0,0.0,0.0,0.0,0.0,-2.6482,-2.5459,-2.4778,-2.4778,-2.4048,-2.3975,-2.4755,-2.6732,-2.8756,-3.0791,-3.1176,-2.9239,-2.5224,-2.615,-2.4874,-2.1803,-2.2622,-2.2112,-2.0691,-2.0676,-2.0501,-2.0263,-1.9975,-1.9167,-1.8131,0.0,0.0,0.0,0.0,0.0,0.0,0.0,-1.6666,-1.6671,-1.6357,-1.6324,-1.6217,-1.6004,-1.5885,-1.5885,-1.5885,-1.5885,-1.5885,0.0,0.0,0.0,-1.5499,-1.5692,-1.5813,-1.5559,-1.5704,-1.5813,-1.5547,-1.5716,-1.5982,-1.6235,-1.6525,-1.6887,-1.7406,-1.7185,-1.702,-1.702,-1.6714,-1.6419,-1.6146,-1.5701,-1.5287,-1.4937,-1.446,-1.4191,-1.4191,-1.4191,-1.4191,-1.4191,-1.4191,-1.4191,-1.4191,-1.3943,-1.3814,-1.3814,-1.3588,-1.3599,-1.3803,-1.3577,-1.334,-1.3104,-1.3104,-1.236,-1.1121,-0.9993,-0.8322,-0.6387,-0.6387,-0.6387,-0.6387,-0.6387,-0.6387,-0.6387,0.0,0.0,0.0,0.0,0.0,0.0,0.0,0.0,-1.9822,-1.943,-1.943,0.0,0.0,0.0,0.0,0.0,0.0,0.0,-2.4111,-2.4556,-2.4445,-2.3536,-2.3295,-2.3285,-2.355,-2.4952,-2.6985,-2.9549,-2.8082,-2.6143,-2.3658,-2.3548,-2.2275,-2.012,-2.037,-1.9976,-1.9154,-1.8879,-1.8564,-1.813,-1.7968,-1.7603,-1.7111,0.0,0.0,0.0,0.0,0.0,0.0,0.0,0.0,0.0,-1.6028,-1.6004,-1.5992,-1.5939,-1.5885,-1.5885,-1.5885,-1.5885,0.0,-1.5656,0.0,0.0,0.0,-1.5427,0.0,0.0,-1.5692,-1.5644,-1.5753,-1.5994,-1.6211,-1.6272,-1.667,-1.7032,-1.7189,-1.6987,-1.6851,-1.6973,-1.6973,-1.6751,-1.6408,-1.5966,-1.5558,-1.5287,-1.4625,-1.4191,-1.4191,-1.4191,-1.4116,-1.3933,-1.3933,-1.3857,-1.3696,-1.362,-1.3577,-1.3577,-1.333,-1.334,-1.3577,-1.333,-1.3179,-1.3043,-1.2122,-1.1128,-0.9944,-0.8117,-0.698,-0.6387,-0.6387,-0.6387,-0.6387,-0.6387,-0.6441,-0.65,0.0,0.0,0.0,0.0,0.0,0.0,0.0,0.0,-1.943,-1.943,-1.943,-1.9649,0.0,0.0,0.0,0.0,0.0,0.0,-2.303,-2.3199,-2.303,-2.2297,-2.1858,-2.1862,-2.2497,-2.2824,-2.4007,-2.6117,-2.5746,-2.427,-2.1747,-2.1963,-2.1085,-1.943,-1.943,-1.9038,-1.8477,-1.8125,-1.77,-1.7199,-1.6886,-1.6687,-1.6549,0.0,0.0,0.0,0.0,0.0,0.0,0.0,0.0,0.0,-1.5885,-1.5885,-1.5885,-1.5885,-1.5885,-1.5885,-1.5885,-1.5885,0.0,-1.5559,-1.5415,-1.5306,-1.5149,0.0,0.0,0.0,-1.5765,-1.5668,-1.5728,-1.5958,-1.6139,-1.6127,-1.6585,-1.6936,-1.6936,-1.6984,-1.6999,-1.6877,-1.7014,-1.6932,-1.6402,-1.5931,-1.5523,-1.5255,-1.4571,-1.4148,-1.4051,-1.404,-1.3933,-1.3696,-1.3685,-1.362,-1.348,-1.3383,-1.333,-1.333,-1.3082,-1.305,-1.324,-1.3039,-1.2964,-1.2903,-1.1285,-0.9944,-0.8817,-0.7129,-0.6387,-0.6387,-0.6387,-0.6387,-0.6387,-0.6387,-0.643,-0.6484,0.0,0.0,-1.943,-1.943,0.0,0.0,0.0,0.0,-1.943,-1.943,-1.943,-1.943,0.0,0.0,0.0,0.0,0.0,-2.1631,-2.258,-2.1744,-2.1174,-2.106,-1.9996,-2.0062,-2.154,-2.0598,-2.0612,-2.1598,-2.3851,-2.3172,-1.9819,-2.1057,-2.0842,-1.943,-1.939,-1.9011,-1.8435,-1.8079,-1.7588,-1.7067,-1.6537,-1.6271,-1.6217,-1.6004,0.0,0.0,0.0,0.0,0.0,0.0,0.0,0.0,-1.5885,-1.5885,-1.5885,-1.5885,-1.5885,-1.5885,-1.5885,0.0,0.0,-1.5523,-1.527,0.0,-1.5101,-1.5306,-1.5572,-1.5837,0.0,-1.5813,-1.5572,-1.5753,-1.5934,-1.5922,-1.6344,-1.667,-1.6694,-1.7068,-1.7177,-1.6754,-1.6887,-1.6822,-1.6313,-1.5721,-1.5308,-1.5044,-1.4473,-1.4062,-1.3836,-1.3803,-1.3685,-1.3448,-1.3448,-1.3437,-1.3467,-1.319,-1.3071,-1.3071,-1.2916,-1.2807,-1.2807,-1.2807,-1.271,-1.2419,-1.0444,-0.8916,-0.7776,-0.6781,-0.6387,-0.6387,-0.6387,-0.6387,-0.6387,-0.6387,-0.6398,-0.6414,0.0,0.0,-1.943,-1.943,0.0,0.0,0.0,0.0,0.0,-1.943,0.0,0.0,0.0,0.0,0.0,0.0,-2.0673,-2.0888,-2.0213,-2.0831,-2.0788,-1.9822,-1.9533,-1.9573,-1.9918,-1.9695,-1.9695,-1.9918,-2.0874,-2.0681,-1.9524,-1.9974,-1.9933,-1.9417,-1.9118,-1.8698,-1.8174,-1.7605,-1.7024,-1.6483,-1.6324,-1.6164,-1.6004,-1.5939,-1.5885,0.0,0.0,0.0,0.0,0.0,0.0,0.0,-1.5885,-1.5885,-1.5885,-1.5885,-1.5885,-1.5885,-1.5885,-1.5741,0.0,0.0,-1.4992,-1.4859,-1.5065,-1.5306,-1.5572,-1.5837,-1.5885,-1.5873,-1.5813,-1.603,-1.6211,-1.6199,-1.6296,-1.6453,-1.667,-1.6429,-1.6344,-1.6658,-1.6561,-1.6513,-1.657,-1.5888,-1.5352,-1.5308,-1.4406,-1.3879,-1.3825,-1.3653,-1.3437,-1.319,-1.319,-1.3104,-1.297,-1.2916,-1.2834,-1.2834,-1.284,-1.2807,-1.2807,-1.2807,-1.1873,-1.0248,-0.9805,-0.852,-0.6736,-0.6487,-0.6387,-0.6387,-0.6387,-0.6387,-0.6387,-0.6387,-0.6505,-0.6698,0.0,0.0,0.0,0.0,0.0,0.0,0.0,0.0,0.0,0.0,0.0,0.0,0.0,0.0,0.0,0.0,-1.9996,-2.004,-1.943,-1.9996,-2.0053,-1.943,-1.943,-1.943,-1.943,-1.943,-1.943,-1.943,-1.9666,-1.9666,-1.943,-1.9519,-1.9506,-1.9359,-1.8937,-1.8476,-1.8063,-1.7293,-1.6716,-1.6271,-1.6164,-1.6004,-1.5885,-1.5885,-1.5885,-1.5885,-1.5885,0.0,0.0,0.0,0.0,0.0,0.0,0.0,-1.5885,-1.5885,-1.5885,-1.5885,-1.5885,0.0,0.0,-1.5016,0.0,-1.4787,-1.5052,-1.5306,-1.5572,-1.5837,-1.5885,-1.5885,-1.5885,-1.6006,-1.6103,-1.6091,-1.6199,-1.6284,-1.6308,-1.6296,-1.6284,-1.6308,-1.6296,-1.6284,-1.6308,-1.5806,-1.5352,-1.5064,-1.4442,-1.3885,-1.3491,-1.3362,-1.319,-1.2953,-1.2942,-1.2937,-1.2807,-1.2807,-1.2807,-1.2807,-1.2807,-1.2807,-1.2807,-1.2807,-1.1922,-1.0346,-0.9805,-0.8669,-0.7129,-0.6637,-0.6387,-0.6387,-0.6387,-0.6387,-0.6387,-0.6387,-0.6468,-0.6611,0.0,0.0,0.0,0.0,0.0,0.0,0.0,0.0,0.0,0.0,0.0,0.0,0.0,0.0,-1.943,0.0,0.0,0.0,-1.943,-1.943,-1.943,-1.943,-1.943,-1.943,-1.943,-1.943,-1.943,-1.943,-1.943,-1.943,-1.943,-1.943,-1.9345,-1.9279,-1.8687,-1.8229,-1.7887,-1.7056,-1.6535,-1.6217,-1.6004,-1.5885,-1.5885,-1.5885,-1.5885,-1.5885,-1.5885,-1.5885,-1.5885,-1.5885,0.0,0.0,0.0,0.0,-1.5885,-1.5885,-1.5885,-1.5885,0.0,0.0,-1.5318,-1.4835,-1.4678,0.0,-1.498,-1.5209,-1.5451,-1.5765,-1.5861,-1.5885,-1.5885,-1.5885,-1.5885,-1.5885,-1.6066,-1.6139,-1.5922,-1.6272,-1.6392,-1.5946,-1.6079,-1.6115,-1.5849,-1.5607,-1.5246,-1.4682,-1.4399,-1.3887,-1.3125,-1.3071,-1.2964,-1.2818,-1.2807,-1.2807,-1.2807,-1.2807,-1.2807,-1.2807,-1.2807,-1.2807,-1.2807,-1.2807,-1.2214,-1.1121,-1.0043,-0.9015,-0.7925,-0.683,-0.6387,-0.6387,-0.6387,-0.6387,-0.6387,-0.6387,-0.6398,-0.6414,0.0,0.0,0.0,0.0,0.0,0.0,0.0,0.0,0.0,0.0,-1.943,-1.943,0.0,-1.943,-1.943,-1.943,-1.943,-1.943,-1.943,0.0,0.0,-1.943,-1.943,-1.943,-1.943,-1.943,-1.943,-1.943,-1.943,-1.943,-1.943,-1.943,-1.9225,-1.8915,-1.8384,-1.7819,-1.7303,-1.6659,-1.6201,-1.5951,-1.5885,-1.5885,-1.5885,-1.5885,-1.5885,-1.5885,-1.5885,-1.5885,-1.5885,-1.5885,-1.5885,0.0,0.0,0.0,-1.5885,-1.5885,-1.5885,-1.5885,0.0,0.0,0.0,0.0,-1.4533,-1.4425,0.0,0.0,-1.4956,0.0,-1.5728,-1.5885,-1.5885,-1.5885,-1.5885,-1.5885,-1.5922,-1.5934,-1.5897,-1.5946,-1.597,-1.5897,-1.5922,-1.5837,-1.5572,-1.55,-1.5176,-1.4419,-1.4128,-1.3689,-1.3114,-1.292,-1.284,-1.2807,-1.2807,-1.2807,-1.2807,-1.2807,-1.2807,-1.2807,-1.2807,-1.2807,-1.2807,-1.2807,-1.2214,-1.1121,-1.0043,-0.9015,-0.7925,-0.683,-0.6387,-0.6387,-0.6387,-0.6387,-0.6387,-0.6387,-0.6452,-0.6578,0.0,0.0,0.0,0.0,0.0,0.0,0.0,0.0,0.0,0.0,0.0,-1.943,0.0,-1.943,-1.943,-1.943,-1.943,-1.943,-1.943,-1.943,-1.943,-1.943,-1.943,-1.943,-1.943,-1.943,-1.943,-1.943,-1.943,-1.943,-1.943,-1.943,-1.9212,-1.8848,-1.8164,-1.7588,-1.713,-1.6382,-1.5992,-1.5885,-1.5885,-1.5885,-1.5885,-1.5885,-1.5885,-1.5885,-1.5885,-1.5885,-1.5885,-1.5885,-1.5885,-1.5885,-1.5885,0.0,0.0,0.0,-1.5885,0.0,-1.5716,0.0,0.0,0.0,-1.4618,-1.457,-1.469,0.0,-1.4823,-1.5197,-1.5366,-1.5499,-1.5644,-1.5789,-1.5837,-1.5692,-1.5801,-1.5885,-1.5885,-1.5885,-1.5885,-1.5885,-1.5765,-1.562,-1.5511,-1.5371,-1.4985,-1.4356,-1.407,-1.3657,-1.3117,-1.291,-1.2807,-1.2807,-1.2807,-1.2807,-1.2807,-1.2807,-1.2807,-1.2807,-1.2807,-1.2807,-1.2807,-1.2807,-1.2214,-1.1121,-1.0043,-0.9015,-0.7925,-0.683,-0.6387,-0.6387,-0.6387,-0.6387,-0.6387,-0.6387,-0.6419,-0.6457,0.0,0.0,0.0,0.0,0.0,0.0,0.0,0.0,0.0,0.0,0.0,0.0,0.0,0.0,0.0,0.0,-1.9292,-1.9292,-1.9359,-1.943,-1.943,-1.943,-1.943,-1.943,-1.943,-1.943,-1.939,-1.9252,-1.9252,-1.9252,-1.9252,-1.9185,-1.9025,-1.8685,-1.7914,-1.7398,-1.6933,-1.6184,-1.5885,-1.5885,-1.5885,-1.5885,-1.5885,-1.5885,-1.5885,-1.5885,-1.5885,-1.5885,-1.5885,-1.5885,-1.5885,-1.5885,-1.5885,-1.5885,0.0,0.0,0.0,0.0,0.0,0.0,0.0,0.0,0.0,0.0,0.0,0.0,-1.4775,0.0,-1.5004,-1.5065,-1.527,-1.5511,-1.562,-1.5427,-1.5559,-1.5692,-1.5692,-1.5692,-1.5692,-1.5692,-1.5523,-1.5366,-1.5306,-1.5185,-1.4867,-1.4237,-1.4074,-1.3747,-1.3109,-1.2953,-1.2856,-1.2807,-1.2807,-1.2807,-1.2807,-1.2807,-1.2807,-1.2807,-1.2807,-1.2807,-1.2807,-1.2807,-1.2068,-1.073,-0.9953,-0.9015,-0.7925,-0.683,-0.6387,-0.6387,-0.6387,-0.6387,-0.6437,-0.6681,-0.6781,-0.683,0.0,0.0,0.0,0.0,0.0,0.0,0.0,0.0,0.0,0.0,0.0,0.0,-1.943,-1.9118,-1.9065,-1.9345,-1.9105,-1.9065,-1.9403,-1.943,-1.943,-1.943,-1.943,0.0,-1.943,-1.943,-1.9225,-1.8945,-1.8945,-1.8945,-1.8945,-1.8664,-1.8419,-1.8115,-1.7768,-1.7119,-1.6349,-1.6004,-1.5885,-1.5885,-1.5885,-1.5885,-1.5885,-1.5885,-1.5885,-1.5885,-1.5885,-1.5885,-1.5885,-1.5885,-1.5885,-1.5885,-1.5885,-1.5885,-1.5885,0.0,0.0,0.0,0.0,0.0,0.0,0.0,0.0,0.0,0.0,0.0,-1.4714,-1.4739,-1.4739,-1.4739,-1.4751,-1.4968,-1.5149,-1.5125,-1.5137,-1.5149,-1.5149,-1.5149,-1.5149,-1.5149,-1.5137,-1.5028,-1.4787,-1.4968,-1.4795,-1.399,-1.4129,-1.3955,-1.3158,-1.3098,-1.3001,-1.2807,-1.2807,-1.2807,-1.2807,-1.2807,-1.2807,-1.2807,-1.2807,-1.2807,-1.2807,-1.2807,-1.1678,-0.9657,-0.9608,-0.9015,-0.7925,-0.683,-0.6387,-0.6387,-0.6387,-0.6387,-0.6537,-0.7528,-0.7925,-0.8074,0.0,0.0,0.0,0.0,0.0,0.0,0.0,0.0,0.0,0.0,0.0,0.0,0.0,-1.8704,-1.8691,-1.8798,-1.8878,-1.8971,-1.9078,-1.9265,-1.943,-1.943,-1.943,-1.943,-1.943,-1.943,-1.9225,-1.8918,-1.8918,-1.8824,-1.8637,-1.8308,-1.7929,-1.7528,-1.7418,-1.6942,-1.6271,-1.5992,-1.5885,-1.5885,-1.5885,-1.5885,-1.5885,-1.5885,-1.5789,-1.5656,-1.5825,-1.5777,-1.5668,-1.5837,-1.5885,-1.5885,-1.5885,-1.5885,-1.5885,0.0,0.0,0.0,0.0,0.0,0.0,0.0,0.0,-1.5294,-1.5028,-1.4835,-1.4714,-1.4714,-1.4714,-1.4714,-1.4714,-1.4932,-1.5052,-1.4883,-1.4992,-1.5113,-1.5113,-1.5113,-1.5113,-1.5113,-1.4956,-1.4823,-1.4727,-1.4642,-1.4412,-1.3943,-1.3819,-1.3588,-1.3098,-1.3001,-1.2856,-1.2807,-1.2807,-1.2807,-1.2807,-1.2807,-1.2807,-1.2807,-1.2807,-1.2807,-1.2807,-1.2807,-1.1629,-0.9657,-1.0337,-0.9255,-0.698,-0.7279,-0.703,-0.6537,-0.7925,-0.8024,-0.7577,-0.8619,-0.9015,-0.9065,0.0,0.0,0.0,0.0,0.0,-1.8531,-1.8237,-1.8277,-1.8288,-1.8233,0.0,0.0,0.0,0.0,-1.811,-1.8165,-1.8443,-1.8658,-1.8784,-1.8958,-1.9118,-1.9212,-1.9225,-1.9265,-1.9417,-1.9265,-1.9078,-1.8784,-1.8621,-1.8475,-1.8165,-1.7895,-1.7463,-1.7047,-1.6946,-1.6646,-1.6164,-1.6004,-1.5885,-1.5885,-1.5885,-1.5885,-1.5885,-1.5885,-1.5777,-1.5644,-1.5728,-1.5644,-1.5511,-1.5596,-1.562,-1.5644,-1.5728,-1.5813,-1.5885,-1.5885,0.0,0.0,-1.5885,0.0,0.0,0.0,0.0,-1.5559,-1.5306,-1.5101,-1.4932,-1.4751,-1.4787,-1.4823,-1.4739,-1.4932,-1.5028,-1.4763,-1.4787,-1.4871,-1.4968,-1.498,-1.498,-1.498,-1.4896,-1.4775,-1.4594,-1.4497,-1.4304,-1.4027,-1.3786,-1.3545,-1.3244,-1.3001,-1.2856,-1.2807,-1.2807,-1.2807,-1.2807,-1.2807,-1.2807,-1.2807,-1.2807,-1.2807,-1.2807,-1.2807,-1.1824,-1.0199,-1.0877,-0.9395,-0.6537,-0.7925,-0.7677,-0.6637,-0.8768,-0.8966,-0.8166,-0.96,-1.0149,-1.0199,0.0,0.0,-1.8397,-1.8049,-1.7995,-1.7889,-1.7635,-1.7782,-1.7861,-1.759,0.0,0.0,0.0,0.0,0.0,-1.7536,-1.7906,-1.8187,-1.8477,-1.849,-1.8611,-1.8905,-1.8918,-1.9065,-1.9403,-1.9078,-1.8784,-1.849,-1.8142,-1.7874,-1.7577,-1.7303,-1.7009,-1.6762,-1.6448,-1.6164,-1.5885,-1.5885,-1.5885,-1.5885,-1.5885,-1.5885,-1.5885,-1.5885,-1.5885,-1.5849,-1.5596,-1.5511,-1.5463,-1.5209,-1.5125,-1.5173,-1.5427,-1.568,-1.5885,-1.5885,0.0,0.0,0.0,0.0,0.0,0.0,0.0,0.0,-1.5572,-1.5511,-1.5354,-1.4847,-1.4944,-1.504,-1.4787,-1.4944,-1.504,-1.4787,-1.4509,-1.4413,-1.469,-1.4727,-1.4727,-1.4727,-1.4956,-1.4896,-1.4364,-1.4558,-1.4606,-1.4316,-1.4076,-1.3786,-1.3497,-1.3244,-1.3001,-1.2807,-1.2807,-1.2807,-1.2807,-1.2807,-1.2807,-1.2807,-1.2807,-1.2807,-1.2807,-1.2807,-1.2214,-1.1219,-1.1219,-0.9444,-0.6637,-0.8768,-0.8322,-0.6637,-0.8817,-0.9015,-0.8315,-1.0485,-1.1268,-1.1414,0.0,-1.849,-1.8397,-1.8049,-1.782,-1.7607,-1.7371,-1.7185,-1.7011,0.0,0.0,0.0,-1.6965,-1.6902,-1.6851,-1.6957,-1.7267,-1.7557,-1.783,-1.8081,-1.8351,-1.8611,-1.8811,-1.8958,-1.9052,-1.8958,-1.8658,-1.82,-1.7856,-1.7432,-1.6957,-1.6681,-1.6533,-1.6435,-1.6135,-1.5939,-1.5885,-1.5885,-1.5885,-1.5885,-1.5885,-1.5885,-1.5885,-1.5885,-1.5777,-1.562,-1.5741,-1.5656,-1.5487,-1.5415,-1.5511,-1.568,-1.5765,-1.5825,0.0,-1.5885,-1.5885,0.0,-1.5885,0.0,0.0,0.0,0.0,0.0,-1.5801,-1.5632,-1.5451,-1.5318,-1.5342,-1.5366,-1.5294,-1.5342,-1.5366,-1.5294,-1.5065,-1.4908,-1.4992,-1.5004,-1.5004,-1.5004,-1.5065,-1.498,-1.463,-1.4666,-1.4508,-1.4039,-1.3931,-1.369,-1.3244,-1.3001,-1.2856,-1.2807,-1.2807,-1.2807,-1.2807,-1.2807,-1.2807,-1.2807,-1.2807,-1.2807,-1.2807,-1.2807,-1.2214,-1.1219,-1.2019,-1.0984,-0.8768,-0.9361,-0.8322,-0.6681,-0.96,-1.0092,-0.941,-1.158,-1.236,-1.2419,-1.7953,-1.7953,-1.7846,-1.75,-1.7313,-1.7195,-1.7027,-1.6842,-1.6683,0.0,0.0,0.0,-1.6365,-1.6365,-1.6418,-1.6524,-1.6728,-1.6924,-1.7206,-1.7414,-1.7666,-1.7961,-1.8187,-1.8443,-1.8562,-1.8568,-1.8366,-1.8084,-1.7618,-1.7169,-1.667,-1.643,-1.6217,-1.6111,-1.5939,-1.5825,-1.5728,-1.5728,-1.5789,-1.5885,-1.5885,-1.5885,-1.5873,-1.5765,-1.5632,-1.5487,-1.5427,-1.5306,-1.5173,-1.5173,-1.5415,-1.5704,-1.5596,-1.5644,-1.5753,-1.5861,-1.5813,0.0,-1.5861,0.0,0.0,-1.5885,0.0,0.0,-1.5753,-1.5692,-1.5596,-1.5378,-1.5427,-1.5499,-1.5499,-1.5499,-1.5499,-1.5499,-1.5366,-1.5234,-1.5125,-1.5113,-1.5113,-1.5113,-1.5209,-1.5161,-1.4908,-1.4883,-1.4676,-1.4266,-1.4038,-1.369,-1.3147,-1.2905,-1.2807,-1.2807,-1.2807,-1.2807,-1.2807,-1.2807,-1.2807,-1.2807,-1.2807,-1.2807,-1.2807,-1.2807,-1.2457,-1.1912,-1.2516,-1.1824,-1.0288,-1.0288,-0.9255,-0.8018,-1.0779,-1.1228,-1.0493,-1.2165,-1.2807,-1.2807,0.0,-1.7173,-1.7067,-1.6736,-1.6683,-1.6683,-1.6683,-1.663,-1.6524,0.0,-1.6271,-1.6164,-1.5939,-1.5885,-1.6004,-1.6217,-1.6271,-1.6377,-1.663,-1.6683,-1.6785,-1.7146,-1.7414,-1.772,-1.7981,-1.7952,-1.7887,-1.7887,-1.737,-1.6908,-1.663,-1.6377,-1.6099,-1.5849,-1.5849,-1.5704,-1.5451,-1.5451,-1.5596,-1.5801,-1.5837,-1.5849,-1.5825,-1.5584,-1.5499,-1.5439,-1.4944,-1.4763,-1.4763,-1.4763,-1.5052,-1.5378,-1.5209,-1.5294,-1.5511,-1.5765,-1.568,0.0,0.0,0.0,0.0,-1.5849,-1.5849,0.0,-1.5596,-1.5728,-1.5753,-1.5294,-1.5378,-1.5535,-1.5535,-1.5523,-1.5511,-1.5535,-1.5523,-1.5403,-1.5149,-1.5113,-1.5113,-1.5149,-1.5354,-1.5403,-1.5173,-1.5125,-1.5004,-1.4739,-1.4181,-1.369,-1.3147,-1.2953,-1.2807,-1.2807,-1.2807,-1.2807,-1.2807,-1.2807,-1.2807,-1.2807,-1.2807,-1.2807,-1.2807,-1.2807,-1.2807,-1.2807,-1.2807,-1.2262,-1.1375,-1.1375,-1.069,-0.9805,-1.1824,-1.2068,-1.1317,-1.2262,-1.2613,-1.2613,-1.7226,-1.7173,-1.7067,-1.6736,-1.6524,-1.6377,-1.6377,-1.6205,-1.6045,-1.6004,-1.6004,-1.5951,-1.5885,-1.5885,-1.5939,-1.5939,-1.6004,-1.6111,-1.6377,-1.6377,-1.6496,-1.6813,-1.7083,-1.729,-1.7341,-1.7345,-1.7265,-1.7005,-1.6675,-1.6324,-1.6045,-1.5992,-1.583,-1.5572,-1.5572,-1.5427,-1.5185,-1.5185,-1.5209,-1.5282,-1.5487,-1.5572,-1.5572,-1.5523,-1.5499,-1.5451,-1.5149,-1.5028,-1.5028,-1.5028,-1.4956,-1.4932,-1.5306,-1.5318,-1.5234,-1.5499,-1.5535,-1.5463,-1.5306,-1.5415,-1.5572,-1.5572,-1.5572,0.0,-1.5777,-1.5849,-1.5861,-1.5765,-1.5777,-1.5813,-1.5813,-1.5644,-1.5572,-1.5777,-1.5632,-1.5403,-1.5149,-1.5113,-1.5185,-1.5403,-1.5463,-1.5475,-1.5427,-1.5234,-1.5004,-1.4739,-1.4181,-1.3738,-1.3448,-1.3195,-1.2953,-1.2807,-1.2807,-1.2807,-1.2807,-1.2807,-1.2807,-1.2807,-1.2807,-1.2807,-1.2807,-1.2807,-1.2807,-1.2807,-1.2807,-1.2662,-1.2516,-1.2516,-1.1326,-0.9706,-1.1023,-1.1375,-1.1219,-1.1424,-1.1521,-1.1375,-1.6802,-1.6749,-1.6643,-1.6365,-1.6205,-1.6111,-1.6111,-1.6004,-1.5885,-1.5885,-1.5885,-1.5837,-1.5716,-1.5692,-1.5644,-1.5511,-1.5499,-1.5551,-1.5719,-1.5707,-1.582,-1.6101,-1.6408,-1.6599,-1.6737,-1.6899,-1.6886,-1.6737,-1.6439,-1.6217,-1.6099,-1.5805,-1.562,-1.5487,-1.5366,-1.5161,-1.4908,-1.4908,-1.4835,-1.4739,-1.5137,-1.5306,-1.5294,-1.5161,-1.5113,-1.5077,-1.4799,-1.4799,-1.4896,-1.4751,-1.4883,-1.5113,-1.5113,-1.5113,-1.5161,-1.5415,-1.5318,-1.5137,-1.527,-1.5306,-1.5306,-1.5306,-1.5403,0.0,0.0,-1.5704,-1.5813,-1.5559,-1.5608,-1.5692,-1.5692,-1.5584,-1.5499,-1.5499,-1.5499,-1.5318,-1.4775,-1.5052,-1.5354,-1.5487,-1.5499,-1.5547,-1.568,-1.5451,-1.5137,-1.4751,-1.4181,-1.3835,-1.369,-1.3292,-1.305,-1.2953,-1.2856,-1.2807,-1.2807,-1.2807,-1.2807,-1.2807,-1.2807,-1.2807,-1.2807,-1.2807,-1.2807,-1.2807,-1.2807,-1.2807,-1.2807,-1.2807,-1.2165,-1.1228,-1.1765,-1.1668,-1.1219,-1.1219,-1.0877,-1.0337,-1.6311,-1.6324,-1.6217,-1.5951,-1.5885,-1.5885,-1.5885,-1.5885,-1.5873,-1.5825,-1.5813,-1.5716,-1.5451,-1.5427,-1.5342,-1.5125,-1.5113,-1.5113,-1.5113,-1.5113,-1.5197,-1.5415,-1.5634,-1.5848,-1.6057,-1.6268,-1.6361,-1.6361,-1.6163,-1.607,-1.6057,-1.5627,-1.5403,-1.5342,-1.5125,-1.4883,-1.463,-1.463,-1.4509,-1.434,-1.4775,-1.498,-1.5004,-1.4749,-1.4616,-1.458,-1.4304,-1.44,-1.4606,-1.4377,-1.4763,-1.527,-1.4847,-1.4859,-1.5077,-1.5282,-1.5052,-1.4799,-1.5173,-1.5149,-1.5028,-1.5028,-1.5197,-1.5306,0.0,0.0,0.0,-1.527,-1.539,-1.5572,0.0,0.0,-1.5427,-1.5221,-1.5318,-1.5197,-1.4545,-1.5016,-1.5403,-1.5354,-1.5439,-1.5584,-1.5801,-1.5572,-1.5234,-1.4751,-1.4267,-1.3931,-1.3883,-1.3485,-1.3195,-1.3098,-1.2953,-1.2856,-1.2807,-1.2807,-1.2807,-1.2807,-1.2807,-1.2807,-1.2807,-1.2807,-1.2807,-1.2807,-1.2807,-1.2807,-1.2807,-1.2807,-1.2807,-1.2856,-1.2807,-1.2165,-1.1268,-1.1023,-1.0337,-0.946,-1.6221,-1.6324,-1.6217,-1.5951,-1.5885,-1.5885,-1.5885,-1.5885,-1.5801,-1.5572,-1.5547,-1.5439,-1.5185,-1.5149,-1.5137,-1.5113,-1.5113,-1.5113,-1.5113,-1.5113,-1.5125,-1.5149,-1.5149,-1.5224,-1.5248,-1.5248,-1.5299,-1.5299,-1.5248,-1.5248,-1.5248,-1.5173,-1.5028,-1.4799,-1.4775,-1.4606,0.0,-1.434,-1.4328,-1.4304,-1.4364,-1.4533,-1.4713,-1.443,-1.4368,-1.4333,-1.4025,-1.4136,-1.434,-1.4304,-1.4521,-1.4799,-1.4739,-1.4739,-1.4763,-1.4799,-1.4763,-1.4678,-1.4485,-1.4594,-1.4763,-1.4763,-1.4787,-1.4859,-1.5065,0.0,-1.5523,-1.5463,0.0,-1.5849,-1.5849,0.0,0.0,-1.5463,-1.5282,-1.5125,-1.5028,-1.5101,-1.5065,-1.4835,-1.5209,-1.5511,-1.5535,-1.5306,-1.5028,-1.4739,-1.4412,-1.416,-1.3931,-1.3835,-1.3593,-1.3098,-1.3098,-1.3001,-1.2807,-1.2807,-1.2807,-1.2807,-1.2807,-1.2807,-1.2807,-1.2807,-1.2807,-1.2807,-1.2807,-1.2807,-1.2807,-1.2807,-1.2905,-1.305,-1.2856,-1.2273,-1.1433,-1.0493,-0.9608,-0.8775,-1.5777,-1.5826,-1.5826,-1.5668,-1.5656,-1.5608,-1.5463,-1.5439,-1.5403,-1.5282,-1.527,-1.5173,-1.4908,-1.4883,-1.4811,-1.4654,-1.4642,-1.4642,-1.4642,-1.4642,-1.4714,-1.4871,-1.4883,-1.4956,-1.5101,-1.5113,-1.5113,-1.5113,-1.5113,-1.5113,-1.5101,-1.4956,-1.4823,-1.4714,-1.4545,0.0,-1.4292,-1.4135,-1.398,-1.3886,-1.3826,-1.385,-1.3813,-1.3861,-1.3813,-1.3669,-1.3667,-1.3835,-1.4076,-1.4076,-1.4339,-1.469,-1.4521,-1.4582,-1.4714,-1.4714,-1.4606,-1.4485,-1.4533,-1.4509,-1.4473,-1.4473,-1.4594,-1.4751,-1.4859,-1.5089,-1.527,-1.527,0.0,0.0,0.0,0.0,0.0,0.0,-1.5306,-1.5282,-1.5125,-1.5366,-1.5403,-1.4992,-1.527,-1.5499,-1.5499,-1.5258,-1.5004,-1.4739,-1.4461,-1.4244,-1.416,-1.3979,-1.3738,-1.334,-1.3195,-1.3001,-1.2807,-1.2807,-1.2807,-1.2807,-1.2807,-1.2807,-1.2807,-1.2807,-1.2807,-1.2807,-1.2807,-1.2807,-1.2807,-1.2905,-1.2662,-1.2224,-1.2322,-1.1727,-1.0788,-0.9706,-0.8669,-0.7932,-1.5246,0.0,-1.539,-1.539,-1.539,-1.533,-1.5137,-1.5113,-1.5077,-1.5004,-1.5004,-1.4896,-1.463,-1.4606,-1.4521,-1.4316,-1.4292,-1.4292,-1.4292,-1.4292,-1.4389,-1.4594,-1.4606,-1.469,-1.4883,-1.4883,-1.4883,-1.4883,-1.4883,-1.4883,-1.4883,-1.469,-1.4606,-1.4594,-1.4389,-1.4292,-1.428,0.0,-1.3826,-1.3685,-1.3543,-1.3262,-1.3007,-1.3274,-1.3251,-1.3074,-1.3199,-1.3421,-1.373,-1.373,-1.4037,-1.4469,-1.4244,-1.44,-1.4604,-1.4581,-1.4461,-1.434,-1.4545,-1.4449,-1.4316,-1.4389,-1.457,-1.4714,-1.4714,-1.492,-1.5089,-1.5016,-1.5065,0.0,0.0,0.0,-1.5089,-1.5016,0.0,-1.5306,-1.504,-1.539,-1.5535,-1.5149,-1.5282,-1.539,-1.539,-1.5149,-1.492,-1.4727,-1.4461,-1.4292,-1.4292,-1.4112,-1.3883,-1.3642,-1.3437,-1.3195,-1.3001,-1.2905,-1.2856,-1.2856,-1.2807,-1.2807,-1.2807,-1.2807,-1.2807,-1.2807,-1.2856,-1.2856,-1.2856,-1.2807,-1.2419,-1.1824,-1.1727,-1.1082,-1.0092,-0.9558,-0.8916,-0.8421,-1.4739,-1.4944,-1.5125,-1.5125,-1.5125,-1.5113,-1.5113,-1.5113,-1.5016,-1.4763,-1.4727,-1.4618,-1.434,-1.4304,-1.4304,-1.4292,-1.4292,-1.4292,-1.4292,-1.4292,-1.4304,-1.4304,-1.4304,-1.4316,-1.4328,-1.4328,-1.4328,-1.4328,-1.4328,-1.4328,-1.4328,-1.4316,-1.4304,-1.4304,-1.4304,-1.4292,-1.4292,-1.4016,-1.3919,-1.3871,-1.363,-1.3084,-1.2448,-1.2703,-1.2839,-1.277,-1.2525,-1.2766,-1.3215,-1.3215,-1.3547,-1.3914,-1.3916,-1.4107,-1.4309,-1.4292,-1.4304,-1.4304,-1.4304,-1.4304,-1.4364,-1.463,-1.4714,-1.4714,-1.4714,-1.492,-1.504,-1.4787,-1.4932,-1.5113,-1.5113,-1.5113,-1.5028,-1.4775,-1.4944,0.0,0.0,-1.4956,-1.5125,-1.5113,-1.5113,-1.5125,-1.5125,-1.4883,-1.4727,-1.4714,-1.4461,-1.4292,-1.4292,-1.4292,-1.416,-1.3883,-1.3883,-1.3738,-1.3497,-1.3195,-1.3098,-1.3098,-1.2905,-1.2807,-1.2807,-1.2807,-1.2807,-1.2807,-1.3001,-1.3098,-1.305,-1.2322,-1.2165,-1.2252,-1.1219,-1.0346,-0.9706,-1.0435,-1.0877,-1.1072,-1.4437,0.0,-1.463,-1.4823,-1.4847,-1.4847,-1.4847,-1.469,-1.4545,-1.4449,-1.4437,-1.4401,-1.4304,-1.4292,-1.4292,-1.4292,-1.4292,-1.4292,-1.4292,-1.4292,-1.4292,-1.4292,-1.4292,-1.4292,-1.4292,-1.4292,-1.4292,-1.4292,-1.4292,-1.4292,-1.4292,-1.4292,-1.4292,-1.4292,-1.3969,-1.3898,0.0,0.0,0.0,0.0,-1.2736,-1.242,-1.2175,-1.211,-1.2077,-1.2088,-1.2153,-1.2424,-1.2697,-1.2877,-1.3176,-1.3467,-1.3607,-1.3699,-1.3745,-1.375,-1.3775,-1.3823,-1.3968,-1.4027,-1.4087,-1.4364,-1.4582,-1.4714,-1.4714,-1.4787,-1.4871,-1.4956,-1.4763,-1.463,-1.4811,-1.469,-1.4606,-1.4702,-1.4787,-1.4883,0.0,-1.5052,-1.504,-1.4871,-1.4847,-1.4847,-1.4847,-1.4775,-1.4642,-1.4449,-1.4352,-1.4292,-1.4292,-1.4473,-1.4351,-1.3883,-1.4047,-1.3949,-1.3497,-1.3389,-1.334,-1.334,-1.3098,-1.3098,-1.3255,-1.3098,-1.3098,-1.3255,-1.334,-1.3001,-1.237,-1.2311,-1.1473,-1.0337,-1.0877,-1.0877,-1.0681,-1.0974,-1.0681,-1.0355,-1.416,-1.416,-1.4268,-1.4485,-1.457,-1.457,-1.457,-1.4413,-1.4292,-1.4292,-1.4292,-1.4292,-1.4292,-1.4292,-1.4292,-1.4292,-1.4292,-1.4292,-1.4292,-1.4292,-1.4292,-1.4292,-1.4292,-1.4292,-1.4292,-1.4292,-1.4292,-1.4292,-1.4292,-1.4292,-1.4292,-1.4208,-1.4159,-1.4147,-1.3648,-1.359,-1.3719,-1.3054,-1.2832,0.0,-1.2316,-1.1865,-1.1512,-1.124,-1.1381,-1.1659,-1.141,-1.1716,-1.2299,-1.251,-1.277,-1.3079,-1.3295,-1.3352,-1.3389,-1.3497,-1.3497,-1.3545,-1.369,-1.3835,-1.3955,-1.4231,-1.4484,-1.4714,-1.4714,-1.4714,-1.4739,-1.4811,-1.4545,-1.4352,-1.4533,-1.4425,-1.4352,-1.4533,-1.4654,-1.4811,0.0,-1.5028,-1.4908,-1.4739,-1.4714,-1.4678,-1.4582,-1.457,-1.4497,-1.4304,-1.4292,-1.434,-1.4437,-1.4521,-1.4484,-1.4349,-1.442,-1.4286,-1.3926,-1.3817,-1.3722,-1.3642,-1.3389,-1.334,-1.3485,-1.334,-1.334,-1.3497,-1.3593,-1.3244,-1.2662,-1.2543,-1.1707,-1.0534,-1.1414,-1.1512,-1.1219,-1.1609,-1.1609,-1.1658,-1.3908,-1.3871,-1.3979,-1.4208,-1.4244,-1.4244,-1.4244,-1.4244,-1.4244,-1.4244,-1.4244,-1.4244,-1.4244,-1.4244,-1.4244,-1.4244,-1.4244,-1.4292,-1.4292,-1.4292,-1.4292,-1.4292,-1.4292,-1.4292,-1.4292,-1.4292,-1.4292,-1.4292,-1.4292,-1.4292,0.0,-1.4039,-1.3918,-1.3835,-1.3399,0.0,-1.3415,-1.2958,-1.2855,-1.2973,-1.2324,-1.1395,-1.0435,-1.0103,-1.0622,-1.1415,-1.0265,-1.0761,-1.2038,-1.2013,-1.2371,-1.2797,-1.3001,-1.3098,-1.3147,-1.3389,-1.3497,-1.3497,-1.3497,-1.369,-1.3941,-1.4187,-1.4455,-1.4665,-1.4665,-1.4665,-1.4642,-1.4377,-1.4304,-1.4292,-1.4292,-1.4292,-1.4304,-1.4316,-1.4545,-1.4799,-1.5028,-1.4859,-1.4702,-1.4702,-1.4702,-1.4594,-1.4328,-1.4292,-1.4292,-1.4292,-1.4304,-1.4425,-1.4678,-1.4473,-1.4558,-1.5052,-1.4835,-1.4714,-1.4702,-1.4444,-1.4178,-1.3931,-1.3642,-1.3545,-1.3545,-1.3545,-1.3545,-1.3534,-1.3786,-1.3883,-1.3786,-1.3028,-1.2678,-1.263,-1.2678,-1.2145,-1.1463,-1.2398,-1.3547,-1.4775,-1.3436,-1.3504,-1.363,-1.3678,-1.3727,-1.3727,-1.3727,-1.3727,-1.3727,-1.3727,-1.3727,-1.3727,-1.3727,-1.3727,-1.3727,-1.3727,-1.3883,-1.4027,-1.4027,-1.4208,-1.4292,-1.4292,-1.4292,-1.4292,-1.4292,-1.4292,-1.4292,-1.4292,-1.4292,-1.4195,-1.4014,0.0,0.0,0.0,0.0,-1.2814,-1.2641,-1.2365,-1.2316,-1.2267,-1.1307,-1.0654,-1.0058,-0.869,-0.8768,-0.9598,-0.9271,-0.9867,-1.0784,-1.1062,-1.1721,-1.2533,-1.2802,-1.2856,-1.2905,-1.2953,-1.2953,-1.3001,-1.3147,-1.3244,-1.3363,-1.3614,-1.4068,-1.4418,-1.4418,-1.4566,-1.4702,-1.4618,-1.4437,-1.4292,-1.4292,-1.4292,-1.4364,-1.457,-1.4666,-1.4666,-1.4521,-1.4449,-1.4401,-1.4401,-1.4401,-1.4377,-1.4304,-1.4292,-1.4292,-1.4292,-1.4485,-1.4545,-1.4413,-1.4714,-1.4775,-1.4509,-1.4642,-1.4618,-1.4401,-1.4352,-1.4268,-1.4208,-1.3931,-1.3871,-1.4112,-1.3883,-1.3919,-1.4112,-1.416,-1.3763,-1.298,-1.2786,-1.2242,-1.1658,-1.2387,-1.3028,-1.3437,-1.3117,-1.3857,-1.504,-1.3074,-1.3124,-1.3195,-1.3195,-1.2797,-1.2554,-1.2797,-1.3244,-1.334,-1.2894,-1.2845,-1.2845,-1.2845,-1.2446,-1.2349,-1.2797,-1.299,-1.3244,-1.369,-1.3979,-1.4112,-1.4112,-1.4256,-1.4292,-1.4292,-1.4292,-1.4244,-1.4123,-1.4244,-1.4159,-1.3906,0.0,0.0,0.0,0.0,-1.2428,-1.2406,-1.2262,-1.2191,-1.2013,-1.1042,-1.025,0.0,-0.8117,-0.7678,-0.778,-0.7794,-0.8666,-0.9853,-1.0026,-1.0876,-1.1905,-1.2027,-1.2408,-1.2807,-1.2807,-1.2807,-1.2807,-1.2953,-1.305,-1.3147,-1.3292,-1.3648,-1.3947,-1.3947,-1.4154,-1.435,-1.435,-1.4316,-1.434,-1.4461,-1.4377,-1.4352,-1.4509,-1.4533,-1.4473,-1.4316,-1.4292,-1.4292,-1.4292,-1.4292,-1.4292,-1.4292,-1.4292,-1.4292,-1.4292,-1.4437,-1.4521,-1.4485,-1.4654,-1.4727,-1.4654,-1.469,-1.4642,-1.4485,-1.4485,-1.4425,-1.4292,-1.416,-1.416,-1.4292,-1.416,-1.416,-1.4292,-1.4292,-1.3956,-1.3414,-1.3414,-1.3076,-1.2592,-1.3173,-1.3833,-1.4412,-1.4117,-1.4453,-1.5149,-1.2747,-1.28,-1.2807,-1.2807,-1.1922,-1.1317,-1.1658,-1.2457,-1.27,-1.1814,-1.1707,-1.1707,-1.1707,-1.0867,-1.0672,-1.1609,-1.1707,-1.2155,-1.3195,-1.3485,-1.369,-1.3835,-1.4112,-1.4256,-1.4256,-1.4292,-1.4183,-1.3954,-1.4183,-1.4159,0.0,0.0,0.0,0.0,0.0,0.0,0.0,-1.233,-1.2174,-1.1794,-1.0924,-0.9953,-0.89,-0.7925,-0.7015,-0.6306,-0.6399,-0.753,-0.9044,-0.902,-0.9907,-1.0974,-1.0974,-1.1717,-1.2613,-1.2613,-1.271,-1.2807,-1.2807,-1.2905,-1.305,-1.305,-1.3244,-1.3437,-1.3437,-1.369,-1.3883,-1.3883,-1.4112,-1.4389,-1.4666,-1.4545,-1.4377,-1.4304,-1.4328,-1.434,-1.4304,-1.4292,-1.4292,-1.4292,-1.4292,0.0,-1.4292,-1.4292,-1.4292,-1.4292,-1.4328,-1.4437,-1.4654,-1.4461,-1.4558,-1.4992,-1.4775,-1.4678,-1.4714,-1.4678,-1.4558,-1.4352,-1.4316,-1.4292,-1.4292,-1.4292,-1.4292,-1.4292,-1.4292,-1.4292,-1.4292,-1.4292,-1.4292,-1.4292,-1.4292,-1.4473,-1.4739,-1.498,-1.5101,-1.5197,-1.2465,-1.2656,-1.2807,-1.2807,-1.1922,-1.0925,-1.0141,-1.0149,-1.0199,-1.0051,-0.9993,-0.9993,-0.9993,-0.9854,-0.9797,-1.0002,-1.0239,-1.0779,-1.1863,-1.2204,-1.27,-1.3545,-1.3835,-1.3979,-1.3979,-1.4208,-1.428,-1.4232,-1.428,-1.4159,-1.3906,0.0,0.0,0.0,0.0,0.0,-1.1837,-1.1835,-1.1409,-1.0723,-0.9828,-0.8852,-0.7869,-0.6958,-0.6504,-0.636,-0.6381,-0.7094,-0.8056,-0.8182,-0.8936,-0.9903,-0.9903,-1.0632,-1.1473,-1.1473,-1.2116,-1.2807,-1.2807,-1.2807,-1.2856,-1.2856,-1.3001,-1.3147,-1.3147,-1.3545,-1.3883,-1.3883,-1.4112,-1.4389,-1.4666,-1.4859,-1.4823,-1.4364,-1.4497,-1.4558,-1.4328,-1.4292,-1.4292,-1.4292,-1.4292,-1.4292,-1.4292,-1.4292,-1.4292,-1.4292,-1.4509,-1.457,-1.4377,-1.4545,-1.4582,-1.4437,-1.4389,-1.4485,-1.4714,-1.4485,-1.4461,-1.4642,-1.4413,-1.4292,-1.4292,-1.4292,-1.4292,-1.4292,-1.4292,-1.4292,-1.4292,-1.4292,-1.4292,-1.4292,-1.4292,-1.4473,-1.4727,-1.4775,-1.5065,-1.5463,-1.0706,-1.0941,0.0,-1.113,-1.0239,-0.9353,-0.8867,-0.8322,-0.8124,-0.8718,-0.8768,-0.8768,-0.8768,-0.8273,-0.8173,-0.8711,-0.8867,-0.9649,-1.1268,-1.1658,-1.2252,-1.3244,-1.3545,-1.369,-1.369,-1.3823,-1.3801,-1.366,-1.3801,-1.3742,-1.3473,-1.3298,0.0,0.0,0.0,-1.174,0.0,-1.1185,-1.0847,-1.0408,-0.9076,-0.8307,-0.7733,-0.6763,-0.6387,-0.6387,-0.6387,-0.6697,-0.7088,-0.7155,-0.7875,-0.8768,-0.8768,-0.9501,-1.0485,-1.1023,-1.157,-1.2116,-1.2662,-1.2807,-1.2807,-1.2807,-1.2856,-1.2953,-1.2953,-1.3195,-1.3534,-1.3642,-1.3919,-1.4148,-1.4424,-1.4727,-1.4775,-1.4364,-1.4413,-1.4449,-1.4316,-1.4292,-1.4292,-1.4292,0.0,-1.4292,-1.4292,-1.4292,-1.4292,-1.4292,-1.4425,-1.4437,-1.4304,-1.4425,-1.4437,-1.4304,-1.4292,-1.4364,-1.4497,-1.4364,-1.4364,-1.4497,-1.4364,-1.4292,-1.4292,-1.4292,-1.4292,-1.4292,-1.4292,-1.4292,-1.4292,-1.4292,-1.4292,-1.4304,-1.4461,-1.4678,-1.4932,-1.5077,-1.5366,-1.5704,-0.9172,-0.9429,-0.9608,-0.9608,-0.8718,-0.8024,-0.8024,-0.708,-0.6681,-0.7528,-0.7677,-0.7677,-0.7677,-0.688,-0.6736,-0.7577,-0.7677,-0.8464,-1.0386,-1.073,-1.1365,-1.2651,-1.2942,-1.3195,-1.3389,-1.3497,-1.336,-1.3098,-1.3303,-1.3317,-1.3019,-1.2768,-1.2587,0.0,-1.1915,-1.1598,-1.1369,-1.0781,-1.0445,-1.0099,-0.8601,-0.7875,-0.7577,-0.6736,-0.6387,-0.6387,-0.6387,-0.6387,-0.6387,-0.6387,-0.698,-0.7677,-0.7677,-0.8421,-0.9452,-1.0534,-1.1023,-1.1424,-1.2516,-1.2807,-1.2807,-1.2807,-1.2807,-1.2807,-1.2807,-1.2953,-1.3147,-1.3389,-1.3725,-1.4038,-1.4268,-1.4521,-1.4618,-1.434,-1.4292,-1.4292,-1.4292,-1.4292,-1.4292,-1.4292,0.0,0.0,-1.4292,-1.4292,-1.4292,-1.4292,-1.4292,-1.4292,-1.4292,-1.4292,-1.4292,-1.4292,-1.4292,-1.4328,-1.4389,-1.4328,-1.4328,-1.4389,-1.4328,-1.4292,-1.4292,-1.4292,-1.4292,-1.4292,-1.4292,-1.4328,-1.4389,-1.4389,-1.4389,-1.4413,-1.469,-1.492,-1.5137,-1.5403,-1.5668,-1.5861,-0.9204,-0.9429,-0.9608,-0.9608,-0.8718,-0.8024,-0.8024,-0.708,-0.6437,-0.6537,-0.6537,-0.6537,-0.6537,-0.6437,-0.6437,-0.6537,-0.6537,-0.703,-0.8216,-0.8315,-0.9255,-1.1268,-1.1609,-1.2204,-1.3098,-1.3389,-1.3408,-1.3192,-1.3227,-1.3112,-1.2814,-1.2383,-1.1927,-1.1467,-1.164,-1.1716,-1.1604,-1.1042,-1.0213,-0.922,-0.8343,-0.7428,-0.6537,-0.6437,-0.6387,-0.6387,-0.6387,-0.6387,-0.6387,-0.6387,-0.6487,-0.6537,-0.6537,-0.7279,-0.8372,-0.946,-1.0435,-1.1424,-1.2516,-1.2807,-1.2807,-1.2807,-1.2807,-1.2807,-1.2807,-1.2953,-1.3098,-1.3147,-1.3716,-1.425,-1.4292,-1.4521,-1.4618,-1.434,-1.4292,-1.4292,-1.4292,-1.4292,-1.4292,-1.4292,0.0,0.0,-1.4292,-1.4292,-1.4292,-1.4292,-1.4292,-1.4292,-1.4292,-1.4292,-1.4292,-1.4292,-1.4292,-1.4425,-1.4678,-1.4425,-1.4425,-1.4678,-1.4425,-1.4292,-1.4292,-1.4292,-1.4292,-1.4292,-1.4292,-1.4437,-1.4678,-1.4678,-1.4678,-1.4702,-1.4968,-1.5089,-1.5137,-1.5403,-1.5668,-1.5885,-0.7524,-0.7582,-0.7677,-0.7677,-0.7329,-0.703,-0.703,-0.6686,-0.6387,-0.6387,-0.6387,-0.6387,-0.6387,-0.6387,-0.6387,-0.6387,-0.6387,-0.683,-0.7925,-0.8024,-0.8662,-1.019,-1.0974,-1.156,-1.196,-1.271,-1.3054,-1.2955,-1.2811,-1.2642,-1.2543,-1.2057,-1.1739,-1.1575,-1.1801,-1.1591,-1.0918,-1.0171,-0.9236,-0.8249,-0.7372,-0.6781,-0.6387,-0.6387,-0.6387,-0.6387,-0.6387,-0.6387,-0.6387,-0.6387,-0.6387,-0.6387,-0.6387,-0.7129,-0.8223,-0.9262,-1.0337,-1.1424,-1.2516,-1.2807,-1.2807,-1.2807,-1.2807,-1.2807,-1.2807,-1.2856,-1.2953,-1.3098,-1.3625,-1.4097,-1.4268,-1.4389,-1.4425,-1.4316,-1.4292,-1.4292,-1.4292,-1.4292,-1.4292,-1.4292,0.0,-1.4292,-1.4292,-1.4292,-1.4292,-1.4292,-1.4292,-1.4292,-1.4292,-1.4292,-1.4292,-1.4292,-1.4292,-1.4352,-1.4461,-1.4352,-1.4352,-1.4461,-1.4352,-1.4292,-1.4292,-1.4292,-1.4389,-1.4545,-1.4545,-1.4702,-1.4956,-1.4956,-1.4956,-1.498,-1.5246,-1.5342,-1.5378,-1.5632,-1.5376,-1.4869,-0.6381,-0.6387,-0.6387,-0.6387,-0.6387,-0.6387,-0.6387,-0.6387,-0.6387,-0.6387,-0.6387,-0.6387,-0.6387,-0.6387,-0.6387,-0.6387,-0.6387,-0.6736,-0.7478,-0.7528,-0.8024,-0.9065,-0.9846,-1.0386,-1.073,-1.1765,-1.228,-1.2218,-1.2347,-1.2382,-1.2296,-1.1962,-1.1801,-1.1811,-1.2094,-1.1786,-1.1005,-0.9819,-0.8929,-0.8174,-0.6895,-0.6387,-0.6387,-0.6387,-0.6387,-0.6387,-0.6387,-0.6387,-0.6387,-0.6387,-0.6387,-0.6387,-0.6387,-0.7129,-0.8223,-0.9262,-1.0337,-1.1424,-1.2516,-1.2807,-1.2807,-1.2807,-1.2807,-1.2807,-1.2807,-1.2807,-1.2856,-1.3147,-1.3545,-1.3883,-1.4256,-1.4292,-1.4292,-1.4292,-1.4292,-1.4292,-1.4292,-1.4292,-1.4292,-1.4292,-1.4292,-1.4292,-1.4292,-1.4292,-1.4292,-1.4292,-1.4292,-1.4292,-1.4292,-1.4292,-1.4292,-1.4292,-1.4292,-1.4292,-1.4292,-1.4292,-1.4292,-1.4292,-1.4292,-1.4292,-1.4304,-1.4389,-1.4533,-1.4714,-1.4799,-1.498,-1.5221,-1.5221,-1.5221,-1.5246,-1.5511,-1.5572,-1.5535,-1.5789,-1.519,-1.4223,-0.6365,-0.6387,-0.6387,-0.6387,-0.6387,-0.6387,-0.6387,-0.6387,-0.6387,-0.6387,-0.6387,-0.6387,-0.6387,-0.6387,-0.6387,-0.6387,-0.6387,-0.6387,-0.6437,-0.6437,-0.688,-0.7975,-0.8024,-0.852,-0.9608,-1.0681,-1.1075,-1.082,-1.1884,-1.2296,-1.2094,-1.2094,-1.2094,-1.2094,-1.2307,-1.2414,-1.2236,-1.0414,-0.9608,-0.9402,-0.7279,-0.6387,-0.6387,-0.6387,-0.6387,-0.6387,-0.6387,-0.6387,-0.6387,-0.6387,-0.6387,-0.6387,-0.6387,-0.7129,-0.8223,-0.9262,-1.0337,-1.1424,-1.2516,-1.2807,-1.2807,-1.2807,-1.2807,-1.2807,-1.2807,-1.2807,-1.2905,-1.34,-1.3497,-1.3678,-1.4208,-1.4292,-1.4292,-1.4292,-1.4292,-1.4292,-1.4292,-1.4292,-1.4292,-1.4292,-1.4292,-1.4292,-1.4292,-1.4292,-1.4292,-1.4292,-1.4292,-1.4292,-1.4292,-1.4292,-1.4292,-1.4292,-1.4292,-1.4292,-1.4292,-1.4292,-1.4292,-1.4292,-1.4292,-1.4292,-1.4304,-1.4582,-1.4714,-1.4727,-1.4992,-1.5246,-1.5499,-1.5499,-1.5499,-1.5523,-1.5777,-1.5728,-1.5535,-1.5789,-1.519,-1.4223,-0.6381,-0.6387,-0.6387,-0.6387,-0.6387,-0.6387,-0.6387,-0.6387,-0.6387,-0.6387,-0.6387,-0.6387,-0.6387,-0.6387,-0.6387,-0.6387,-0.6387,-0.6387,-0.6387,-0.6387,-0.6537,-0.688,-0.7627,-0.8173,-0.852,-0.955,-1.0066,-0.9958,-1.0895,-1.1572,-1.2094,-1.2221,-1.2296,-1.2307,-1.2544,-1.1869,-1.0453,-0.9829,-0.8768,-0.7378,-0.6686,-0.6387,-0.6387,-0.6387,-0.6387,-0.6387,-0.6387,-0.688,-0.7378,-0.6631,-0.7378,-0.8464,-0.7726,-0.8223,-0.9312,-1.0386,-1.1473,-1.236,-1.271,-1.2807,-1.2807,-1.2807,-1.2807,-1.2807,-1.2807,-1.2807,-1.2905,-1.34,-1.3497,-1.3678,-1.4208,-1.4292,-1.4292,-1.4292,-1.4292,-1.4292,-1.4292,-1.4292,-1.4292,-1.4292,-1.4292,-1.4292,-1.4292,-1.4292,-1.4292,-1.4292,-1.4292,-1.4292,-1.4292,-1.4292,-1.4292,-1.4292,-1.4292,-1.4292,-1.4292,-1.4292,-1.4292,-1.4292,-1.4292,-1.4401,-1.4594,-1.4678,-1.4908,-1.5258,-1.5342,-1.5523,-1.5765,-1.5765,-1.5765,-1.5777,-1.5861,-1.5837,-1.5671,-1.4995,-1.3997,-1.2852,-0.6387,-0.6387,-0.6387,-0.6387,-0.6387,-0.6387,-0.6387,-0.6387,-0.6387,-0.6387,-0.6387,-0.6387,-0.6387,-0.6387,-0.6387,-0.6387,-0.6387,-0.6387,-0.6387,-0.6387,-0.6387,-0.6387,-0.703,-0.7378,-0.7378,-0.8471,-0.9015,-0.9015,-0.9883,-1.0819,-1.1744,-1.1459,-1.1576,-1.1912,-1.1716,-1.0837,-0.9558,-0.9164,-0.8223,-0.698,-0.6587,-0.6387,-0.6387,-0.6387,-0.6387,-0.6387,-0.6387,-0.708,-0.7875,-0.7229,-0.8173,-0.9558,-0.9304,-0.9649,-1.0337,-1.0974,-1.197,-1.2807,-1.2807,-1.2807,-1.2807,-1.2807,-1.2807,-1.2807,-1.2807,-1.2807,-1.2905,-1.34,-1.3497,-1.3678,-1.4208,-1.4292,-1.4292,-1.4292,-1.4292,-1.4292,-1.4292,-1.4292,-1.4292,-1.4292,-1.4292,-1.4292,-1.4292,-1.4292,-1.4292,-1.4292,-1.4292,-1.4292,-1.4292,-1.4292,-1.4292,-1.4292,-1.4292,-1.4292,-1.4292,-1.4401,-1.4461,-1.4461,-1.4558,-1.469,-1.4871,-1.4968,-1.5185,-1.5511,-1.5608,-1.5741,-1.5885,-1.5885,-1.5885,-1.5832,-1.5405,-1.5244,-1.5137,-1.3943,-1.2797,-1.1655,-0.6387,-0.6387,-0.6387,-0.6387,-0.6387,-0.6387,-0.6387,-0.6387,-0.6387,-0.6387,-0.6387,-0.6387,-0.6387,-0.6387,-0.6387,-0.6387,-0.6387,-0.6387,-0.6387,-0.6387,-0.6387,-0.6387,-0.6387,-0.6387,-0.6387,-0.7378,-0.7925,-0.8024,-0.9015,-1.0051,-1.1072,-1.0043,-1.0149,-1.1023,-1.0051,-0.9558,-0.941,-0.8421,-0.7975,-0.7826,-0.6781,-0.6387,-0.6387,-0.6387,-0.6387,-0.6387,-0.6387,-0.7129,-0.8124,-0.8024,-0.881,-1.0002,-1.0925,-1.1268,-1.1317,-1.1317,-1.2019,-1.2807,-1.2807,-1.2807,-1.2807,-1.2807,-1.2807,-1.2807,-1.2807,-1.2807,-1.2905,-1.34,-1.3497,-1.3678,-1.4208,-1.4292,-1.4292,-1.4292,-1.4292,-1.4292,-1.4292,-1.4292,-1.4292,-1.4292,-1.4292,-1.4292,-1.4292,-1.4292,-1.4292,-1.4292,-1.4292,-1.4292,-1.4292,-1.4316,-1.4316,-1.4292,-1.4292,-1.4304,-1.4328,-1.4582,-1.4727,-1.4751,-1.4992,-1.5113,-1.5149,-1.539,-1.5511,-1.5535,-1.5777,-1.5885,-1.5885,-1.5885,-1.5832,-1.5672,-1.46,-1.4169,-1.3943,-1.2743,-1.1601,-1.0672,-0.6387,-0.6387,-0.6387,-0.6387,-0.6387,-0.6387,-0.6387,-0.6387,-0.6387,-0.6387,-0.6387,-0.6387,-0.6387,-0.6387,-0.6387,-0.6387,-0.6387,-0.6387,-0.6387,-0.6387,-0.6387,-0.6387,-0.6387,-0.6387,-0.6387,-0.6637,-0.7179,-0.8024,-0.8273,-0.8909,-0.9953,-0.9706,-0.9756,-0.9953,-0.9706,-0.9164,-0.8372,-0.8124,-0.7528,-0.6731,-0.6487,-0.6387,-0.6387,-0.6387,-0.6387,-0.6387,-0.6387,-0.7627,-0.9114,-0.8273,-0.9797,-1.1922,-1.1375,-1.1765,-1.2408,-1.2408,-1.2613,-1.2807,-1.2807,-1.2807,-1.2807,-1.2807,-1.2807,-1.2807,-1.2807,-1.2807,-1.2905,-1.34,-1.3497,-1.3678,-1.4208,-1.4292,-1.4292,-1.4292,-1.4292,-1.4292,-1.4292,-1.4292,-1.4292,-1.4292,-1.4292,-1.4292,-1.4292,-1.4292,-1.4292,-1.4292,-1.4292,-1.4292,-1.4292,-1.4497,-1.4521,-1.4304,-1.4292,-1.4401,-1.4618,-1.469,-1.4823,-1.5016,-1.5077,-1.5209,-1.5403,-1.5475,-1.5608,-1.5801,-1.5861,-1.5885,-1.5885,-1.5885,-1.5405,-1.46,-1.4331,-1.3619,-1.2689,-1.1546,-1.0945,-1.0562,-0.6387,-0.6387,-0.6387,-0.6387,-0.6387,-0.6387,-0.6387,-0.6387,-0.6387,-0.6387,-0.6387,-0.6387,-0.6387,-0.6387,-0.6387,-0.6387,-0.6387,-0.6387,-0.6387,-0.6387,-0.6387,-0.6387,-0.6387,-0.6387,-0.6387,-0.6387,-0.6686,-0.7279,-0.7279,-0.7826,-0.8867,-0.8372,-0.8421,-0.8867,-0.8372,-0.7826,-0.7279,-0.7279,-0.693,-0.6387,-0.6387,-0.6387,-0.6387,-0.6387,-0.6387,-0.6387,-0.6387,-0.7478,-0.8768,-0.8223,-0.9501,-1.1326,-1.1219,-1.1619,-1.2165,-1.2662,-1.2807,-1.2807,-1.2807,-1.2807,-1.2807,-1.2807,-1.2807,-1.2807,-1.2807,-1.2807,-1.2905,-1.34,-1.3497,-1.3678,-1.4208,-1.4292,-1.4292,-1.4292,-1.4292,-1.4292,-1.4292,-1.4292,-1.4292,-1.4292,-1.4292,-1.4292,-1.4292,-1.4292,-1.4292,-1.4292,-1.4292,-1.4352,-1.4485,-1.463,-1.4642,-1.4497,-1.4606,-1.4739,-1.4896,-1.5016,-1.5209,-1.5463,-1.5463,-1.5535,-1.568,-1.568,-1.5753,-1.5885,-1.5885,-1.5618,-1.5137,-1.5137,-1.4428,-1.3349,-1.2797,-1.22,-1.1492,-1.0296,-0.9864,-0.9809,-0.6387,-0.6387,-0.6387,-0.6387,-0.6387,-0.6387,-0.6387,-0.6387,-0.6387,-0.6387,-0.6387,-0.6387,-0.6387,-0.6387,-0.6387,-0.6387,-0.6387,-0.6387,-0.6387,-0.6387,-0.6387,-0.6387,-0.6387,-0.6387,-0.6387,-0.6387,-0.6387,-0.6387,-0.6387,-0.688,-0.7726,-0.683,-0.688,-0.7726,-0.6781,-0.6387,-0.6387,-0.6387,-0.6387,-0.6387,-0.6387,-0.6387,-0.6387,-0.6387,-0.6387,-0.6387,-0.6387,-0.708,-0.8024,-0.8024,-0.8718,-0.9756,-1.0681,-1.0974,-1.113,-1.2068,-1.2419,-1.2613,-1.2759,-1.2807,-1.2807,-1.2807,-1.2807,-1.2807,-1.2807,-1.2807,-1.2953,-1.34,-1.3545,-1.3727,-1.4208,-1.4292,-1.4292,-1.4292,-1.4292,-1.4292,-1.4292,-1.4292,-1.4292,-1.4292,-1.4292,-1.4292,-1.4292,-1.4292,-1.4292,-1.4292,-1.434,-1.4461,-1.4702,-1.4787,-1.4835,-1.4835,-1.5016,-1.5149,-1.5221,-1.5451,-1.5692,-1.5946,-1.591,-1.591,-1.5946,-1.591,-1.591,-1.5946,-1.5749,-1.5083,-1.4169,-1.3997,-1.3241,-1.2037,-1.1055,-1.0562,-1.0296,-0.9265,-0.8898,-0.8967,-0.6387,-0.6387,-0.6387,-0.6387,-0.6387,-0.6387,-0.6387,-0.6387,-0.6387,-0.6387,-0.6387,-0.6387,-0.6387,-0.6387,-0.6387,-0.6387,-0.6387,-0.6387,-0.6387,-0.6387,-0.6387,-0.6387,-0.6387,-0.6387,-0.6387,-0.6387,-0.6387,-0.6387,-0.6387,-0.6487,-0.6631,-0.6487,-0.6487,-0.6631,-0.6487,-0.6387,-0.6387,-0.6387,-0.6387,-0.6387,-0.6387,-0.6387,-0.6387,-0.6387,-0.6387,-0.6387,-0.6387,-0.708,-0.8024,-0.8024,-0.8718,-0.9608,-0.9805,-0.9854,-0.9903,-1.0051,-1.0739,-1.1668,-1.2565,-1.2807,-1.2807,-1.2807,-1.2807,-1.2807,-1.2807,-1.2905,-1.3147,-1.3448,-1.369,-1.3931,-1.4256,-1.4292,-1.4292,-1.4292,-1.4292,-1.4292,-1.4292,-1.4292,-1.4292,-1.4292,-1.4292,-1.4292,-1.4292,-1.4292,-1.4292,-1.4292,-1.4521,-1.4666,-1.4714,-1.5137,-1.5378,-1.5378,-1.5197,-1.5318,-1.5765,-1.5813,-1.597,-1.6247,-1.6006,-1.6006,-1.6211,-1.5994,-1.6006,-1.6157,-1.4959,-1.4385,-1.4116,-1.3122,-1.1982,-1.0945,-1.0781,-1.0076,-0.9154,-0.8995,-0.9015,-0.9103,-0.6387,-0.6387,-0.6387,-0.6387,-0.6387,-0.6387,-0.6387,-0.6387,-0.6387,-0.6387,-0.6387,-0.6387,-0.6387,-0.6387,-0.6387,-0.6387,-0.6387,-0.6387,-0.6387,-0.6387,-0.6387,-0.6387,-0.6387,-0.6387,-0.6387,-0.6387,-0.6387,-0.6387,-0.6387,-0.6387,-0.6387,-0.6387,-0.6387,-0.6387,-0.6387,-0.6387,-0.6387,-0.6387,-0.6387,-0.6387,-0.6387,-0.6387,-0.6387,-0.6387,-0.6387,-0.6387,-0.6387,-0.6736,-0.7129,-0.7129,-0.7478,-0.7975,-0.857,-0.9114,-0.9706,-1.0288,-1.091,-1.1569,-1.2548,-1.2905,-1.292,-1.284,-1.2807,-1.2807,-1.2807,-1.2953,-1.3195,-1.3437,-1.369,-1.3979,-1.4244,-1.4292,-1.4292,-1.4292,-1.4292,-1.4292,-1.4292,-1.4292,-1.4292,-1.4292,-1.4425,-1.4521,-1.4521,-1.4654,-1.4739,-1.4739,-1.4859,-1.4992,-1.5125,-1.5366,-1.5559,-1.5704,-1.5596,-1.5716,-1.6115,-1.6103,-1.6235,-1.6513,-1.6392,-1.6392,-1.6501,-1.638,-1.5979,-1.534,-1.468,-1.3624,-1.2254,-1.171,-1.0781,-0.9754,-0.9754,-0.9368,-0.8885,-0.8885,-0.8981,-0.9042,-0.6387,-0.6387,-0.6387,-0.6387,-0.6387,-0.6387,-0.6387,-0.6387,-0.6387,-0.6387,-0.6387,-0.6387,-0.6387,-0.6387,-0.6387,-0.6387,-0.6387,-0.6387,-0.6387,-0.6387,-0.6387,-0.6387,-0.6387,-0.6387,-0.6387,-0.6387,-0.6387,-0.6387,-0.6387,-0.6387,-0.6387,-0.6387,-0.6387,-0.6387,-0.6387,-0.6387,-0.6387,-0.6387,-0.6387,-0.6387,-0.6387,-0.6387,-0.6387,-0.6387,-0.6387,-0.6387,-0.6387,-0.6387,-0.6387,-0.6387,-0.6387,-0.6587,-0.7677,-0.8372,-0.9106,-1.0435,-1.1132,-1.1704,-1.2579,-1.2888,-1.2985,-1.2851,-1.2807,-1.2807,-1.2856,-1.3094,-1.3382,-1.3625,-1.3975,-1.4242,-1.4364,-1.4389,-1.4377,-1.4304,-1.4292,-1.4292,-1.4292,-1.4352,-1.4389,-1.4389,-1.4642,-1.4811,-1.4811,-1.4992,-1.5113,-1.5113,-1.5161,-1.5318,-1.5572,-1.5596,-1.5716,-1.597,-1.5982,-1.6151,-1.6489,-1.6416,-1.6513,-1.6791,-1.673,-1.6562,-1.6327,-1.6266,-1.5512,-1.42,-1.3864,-1.2559,-1.0672,-1.0398,-0.9754,-0.8885,-0.8974,-0.8967,-0.8892,-0.8959,-0.9042,-0.9055,-0.6387,-0.6387,-0.6387,-0.6387,-0.6387,-0.6387,-0.6387,-0.6387,-0.6387,-0.6387,-0.6387,-0.6387,-0.6387,-0.6387,-0.6387,-0.6387,-0.6387,-0.6387,-0.6387,-0.6387,-0.6387,-0.6387,-0.6387,-0.6387,-0.6387,-0.6387,-0.6387,-0.6387,-0.6387,-0.6387,-0.6387,-0.6387,-0.6387,-0.6387,-0.6387,-0.6387,-0.6387,-0.6387,-0.6387,-0.6387,-0.6387,-0.6387,-0.6387,-0.6387,-0.6387,-0.6387,-0.6387,-0.6387,-0.6387,-0.6387,-0.6387,-0.6587,-0.7677,-0.7378,-0.703,-0.9114,-1.0586,-1.1704,-1.2579,-1.2818,-1.2829,-1.2818,-1.2807,-1.2856,-1.305,-1.3471,-1.3937,-1.4185,-1.4622,-1.493,-1.4727,-1.469,-1.4606,-1.434,-1.4292,-1.4292,-1.4292,-1.4521,-1.469,-1.469,-1.492,-1.5077,-1.5077,-1.5101,-1.5113,-1.5113,-1.533,-1.5584,-1.5849,-1.5861,-1.5982,-1.6247,-1.6247,-1.6501,-1.7032,-1.6791,-1.6803,-1.7056,-1.6815,-1.6193,-1.5297,-1.4908,-1.4141,-1.3051,-1.1611,-1.0899,-1.0617,-0.9478,-0.8995,-0.8898,-0.9083,-0.9055,-0.8919,-0.9245,-0.9347,-0.9347,-0.6387,-0.6387,-0.6387,-0.6387,-0.6387,-0.6387,-0.6387,-0.6387,-0.6387,-0.6387,-0.6387,-0.6387,-0.6387,-0.6387,-0.6387,-0.6387,-0.6387,-0.6387,-0.6387,-0.6387,-0.6387,-0.6387,-0.6387,-0.6387,-0.6387,-0.6387,-0.6387,-0.6387,-0.6387,-0.6387,-0.6387,-0.6387,-0.6387,-0.6387,-0.6387,-0.6387,-0.6387,-0.6387,-0.6387,-0.6387,-0.6387,-0.6387,-0.6387,-0.6387,-0.6387,-0.6387,-0.6387,-0.6387,-0.6387,-0.6387,-0.6387,-0.6587,-0.7677,-0.8173,-0.881,-1.0935,-1.1933,-1.2376,-1.2683,-1.2916,-1.2942,-1.2851,-1.2867,-1.3073,-1.327,-1.3757,-1.424,-1.4503,-1.4826,-1.5077,-1.498,-1.4956,-1.492,-1.4811,-1.4799,-1.4799,-1.4799,-1.4896,-1.4956,-1.4956,-1.5185,-1.5354,-1.5354,-1.5499,-1.5596,-1.5596,-1.5849,-1.6042,-1.6127,-1.6296,-1.6513,-1.6779,-1.6779,-1.6887,-1.7092,-1.6996,-1.6667,-1.6143,-1.6053,-1.5412,-1.4252,-1.4083,-1.3269,-1.1888,-1.1345,-1.0492,-0.9541,-0.9203,-0.9022,-0.8905,-0.9198,-0.9205,-0.9096,-0.9306,-0.9381,-0.9395,-0.6387,-0.6387,-0.6387,-0.6387,-0.6387,-0.6387,-0.6387,-0.6387,-0.6387,-0.6387,-0.6387,-0.6387,-0.6387,-0.6387,-0.6387,-0.6387,-0.6387,-0.6387,-0.6387,-0.6387,-0.6387,-0.6387,-0.6387,-0.6387,-0.6387,-0.6387,-0.6387,-0.6387,-0.6387,-0.6387,-0.6387,-0.6387,-0.6387,-0.6387,-0.6387,-0.6387,-0.6387,-0.6387,-0.6387,-0.6387,-0.6387,-0.6387,-0.6387,-0.6387,-0.6387,-0.6387,-0.6387,-0.6387,-0.6387,-0.6387,-0.6637,-0.7086,-0.8279,-0.9622,-1.1029,-1.2183,-1.2787,-1.3024,-1.2937,-1.3039,-1.3168,-1.2931,-1.3116,-1.3418,-1.3718,-1.4189,-1.4616,-1.4918,-1.5167,-1.533,-1.5246,-1.5234,-1.5197,-1.5125,-1.5113,-1.5113,-1.5113,-1.5185,-1.5234,-1.5234,-1.5463,-1.562,-1.562,-1.5861,-1.6018,-1.6018,-1.6272,-1.6429,-1.6416,-1.6754,-1.6996,-1.7092,-1.6761,-1.6623,-1.6623,-1.6623,-1.6296,-1.5569,-1.5213,-1.4321,-1.3066,-1.3003,-1.214,-1.069,-1.0635,-1.0035,-0.9015,-0.9166,-0.9123,-0.9103,-0.9354,-0.9361,-0.9303,-0.9449,-0.949,-0.9476,-0.6387,-0.6387,-0.6387,-0.6387,-0.6387,-0.6387,-0.6387,-0.6387,-0.6387,-0.6387,-0.6387,-0.6387,-0.6387,-0.6387,-0.6387,-0.6387,-0.6387,-0.6387,-0.6387,-0.6387,-0.6387,-0.6387,-0.6387,-0.6387,-0.6387,-0.6387,-0.6387,-0.6387,-0.6387,-0.6387,-0.6387,-0.6387,-0.6387,-0.6387,-0.6387,-0.6387,-0.6387,-0.6387,-0.6387,-0.6387,-0.6387,-0.6387,-0.6387,-0.6387,-0.6387,-0.6387,-0.6387,-0.6387,-0.6387,-0.6387,-0.7135,-0.8251,-0.9609,-1.1633,-1.3265,-1.2216,-1.2689,-1.3427,-1.3179,-1.3287,-1.3427,-1.3168,-1.3501,-1.3954,-1.4244,-1.4737,-1.5158,-1.5457,-1.5709,-1.5813,-1.5547,-1.5499,-1.5415,-1.5161,-1.5113,-1.5113,-1.5113,-1.5342,-1.5499,-1.5499,-1.5728,-1.5885,-1.5885,-1.6127,-1.6284,-1.6284,-1.6537,-1.6706,-1.6706,-1.7201,-1.737,-1.7105,-1.6107,-1.5569,-1.5569,-1.5569,-1.5569,-1.5569,-1.4321,-1.3006,-1.1683,-1.1565,-1.0743,-0.9374,-0.9275,-0.9214,-0.9207,-0.9214,-0.9303,-0.9395,-0.9551,-0.9517,-0.9415,-0.9713,-0.9734,-0.9632,-0.6387,-0.6387,-0.6387,-0.6387,-0.6387,-0.6387,-0.6387,-0.6387,-0.6387,-0.6387,-0.6387,-0.6387,-0.6387,-0.6387,-0.6387,-0.6387,-0.6387,-0.6387,-0.6387,-0.6387,-0.6387,-0.6387,-0.6387,-0.6387,-0.6387,-0.6387,-0.6387,-0.6387,-0.6387,-0.6387,-0.6387,-0.6387,-0.6387,-0.6387,-0.6387,-0.6387,-0.6387,-0.6387,-0.6387,-0.6387,-0.6387,-0.6387,-0.6387,-0.6387,-0.6387,-0.6387,-0.6387,-0.6441,-0.6664,-0.7522,-0.8095,-0.8756,-1.0707,-1.2321,-1.3429,-1.3111,-1.3265,-1.3459,-1.3383,-1.3553,-1.3607,-1.319,-1.3616,-1.423,-1.4527,-1.5018,-1.5452,-1.5741,-1.5825,-1.5861,-1.5789,-1.5777,-1.5741,-1.5668,-1.5656,-1.5656,-1.5656,-1.5728,-1.5777,-1.5777,-1.5837,-1.5885,-1.5885,-1.6127,-1.6284,-1.6284,-1.6706,-1.7056,-1.7237,-1.7394,-1.7032,-1.606,-1.5773,-1.5154,-1.4262,-1.4262,-1.3784,-1.2886,-1.2466,-1.1631,-1.0361,-1.0311,-0.9968,-0.9381,-0.9334,-0.9309,-0.9221,-0.9323,-0.934,-0.9408,-0.9659,-0.9673,-0.9564,-0.9754,-0.9795,-0.9768,-0.6387,-0.6387,-0.6387,-0.6387,-0.6387,-0.6387,-0.6387,-0.6387,-0.6387,-0.6387,-0.6387,-0.6403,-0.6452,-0.6414,-0.6425,-0.6573,-0.6584,-0.6562,-0.6462,-0.6457,-0.6435,-0.6387,-0.6387,-0.6387,-0.6387,-0.6387,-0.6387,-0.6387,-0.6387,-0.6387,-0.6387,-0.6387,-0.6387,-0.6387,-0.6387,-0.6387,-0.6387,-0.6387,-0.6387,-0.6387,-0.6387,-0.6387,-0.6387,-0.6387,-0.6387,-0.6492,-0.6989,-0.7262,-0.7494,-0.8727,-0.9524,-1.0346,-1.2082,-1.3153,-1.376,-1.376,-1.376,-1.3739,-1.3661,-1.378,-1.3908,-1.3638,-1.4086,-1.4643,-1.496,-1.5364,-1.5696,-1.5897,-1.5885,-1.5885,-1.5885,-1.5885,-1.5885,-1.5885,-1.5885,-1.5885,-1.5885,-1.5885,-1.5885,-1.5885,-1.5885,-1.5934,-1.603,-1.6284,-1.6537,-1.6742,-1.7056,-1.7135,-1.6762,-1.6762,-1.6172,-1.4917,-1.4321,-1.3665,-1.2946,-1.2406,-1.1985,-1.1692,-1.1209,-1.0514,-0.9741,-0.9795,-0.9625,-0.9357,-0.9415,-0.9388,-0.9309,-0.9408,-0.9503,-0.9571,-0.9747,-0.9768,-0.97,-0.9788,-0.9822,-0.9822,-0.6387,-0.6387,-0.6387,-0.6387,-0.6387,-0.6387,-0.6387,-0.6387,-0.6392,-0.6403,-0.6403,-0.6452,-0.6622,-0.6484,-0.6556,-0.6768,-0.6774,-0.6719,-0.6611,-0.66,-0.6551,-0.6392,-0.6387,-0.6387,-0.6387,-0.6387,-0.6387,-0.6387,-0.6387,-0.6387,-0.6387,-0.6387,-0.6387,-0.6387,-0.6387,-0.6387,-0.6387,-0.6387,-0.6387,-0.6387,-0.6387,-0.6392,-0.6403,-0.6403,-0.6509,-0.6782,-0.796,-0.848,-0.8779,-1.0076,-1.1309,-1.2525,-1.353,-1.4008,-1.4191,-1.4191,-1.4191,-1.4126,-1.3941,-1.4029,-1.4201,-1.4383,-1.4726,-1.5067,-1.5425,-1.569,-1.5885,-1.5885,-1.5885,-1.5885,-1.5885,-1.5885,-1.5885,-1.5885,-1.5885,-1.5885,-1.5885,-1.5885,-1.5897,-1.5934,-1.5934,-1.6042,-1.6296,-1.6573,-1.6891,-1.7325,-1.7303,-1.6762,-1.551,-1.5451,-1.4857,-1.3545,-1.2354,-1.1631,-1.1511,-1.0361,-1.0361,-1.1511,-1.0361,-0.9754,-0.9632,-0.9747,-0.9578,-0.9268,-0.9476,-0.9517,-0.9415,-0.9551,-0.9693,-0.9822,-0.9822,-0.9822,-0.9822,-0.9822,-0.9822,-0.9822,-0.6387,-0.6387,-0.6387,-0.6387,-0.6387,-0.6387,-0.6387,-0.6387,-0.6419,-0.6567,-0.6578,-0.6627,-0.6747,-0.6741,-0.6703,-0.6665,-0.6573,-0.6452,-0.6425,-0.6425,-0.6414,-0.6387,-0.6387,-0.6387,-0.6387,-0.6387,-0.6387,-0.6387,-0.6387,-0.6387,-0.6387,-0.6387,-0.6387,-0.6387,-0.6387,-0.6387,-0.6387,-0.6387,-0.6387,-0.6387,-0.6387,-0.6441,-0.6578,-0.6578,-0.7198,-0.817,-0.8456,-0.9175,-1.0261,-1.1514,-1.2754,-1.3783,-1.4062,-1.4148,-1.4191,-1.4191,-1.4191,-1.4234,-1.4395,-1.4309,-1.4342,-1.506,-1.5102,-1.5072,-1.5414,-1.569,-1.5885,-1.5885,-1.5885,-1.5885,-1.5885,-1.5885,-1.5885,-1.5885,-1.5885,-1.5885,-1.5885,-1.5885,-1.5994,-1.6174,-1.6198,-1.6337,-1.6585,-1.6851,-1.6726,-1.609,-1.5994,-1.5451,-1.4202,-1.4083,-1.3485,-1.2174,-1.1872,-1.1209,-1.024,-0.9943,-0.9943,-1.0179,-0.9943,-0.9802,-0.9774,-0.9693,-0.9605,-0.951,-0.9456,-0.9483,-0.9564,-0.9598,-0.9693,-0.9822,-0.9822,-0.9822,-0.9822,-0.9822,-0.9822,-0.9822,-0.6387,-0.6387,-0.6387,-0.6387,-0.6387,-0.6387,-0.6387,-0.6387,-0.643,-0.6605,-0.6567,-0.6622,-0.6861,-0.6785,-0.6714,-0.6709,-0.6752,-0.673,-0.6616,-0.6665,-0.6643,-0.6478,-0.6473,-0.6446,-0.6387,-0.6387,-0.6387,-0.6387,-0.6387,-0.6387,-0.6387,-0.6387,-0.6387,-0.6387,-0.6387,-0.6419,-0.6473,-0.6473,-0.6556,-0.6611,-0.6611,-0.6649,-0.6709,-0.6709,-0.7107,-0.7802,-0.8448,-0.9472,-1.0704,-1.1348,-1.1982,-1.2536,-1.2536,-1.2536,-1.2536,-1.2516,-1.2906,-1.3423,-1.3738,-1.4072,-1.4548,-1.5306,-1.5398,-1.5316,-1.5624,-1.588,-1.607,-1.5951,-1.6004,-1.607,-1.5951,-1.5885,-1.5885,-1.5885,-1.603,-1.6097,-1.6097,-1.6223,-1.6344,-1.6482,-1.6506,-1.659,-1.6863,-1.6493,-1.602,-1.5618,-1.5035,-1.4143,-1.2826,-1.2766,-1.2165,-1.0846,-1.0785,-1.0482,-0.9822,-0.9754,-0.972,-0.972,-0.972,-0.9646,-0.9503,-0.9503,-0.9462,-0.9395,-0.9462,-0.9537,-0.9612,-0.968,-0.9754,-0.9822,-0.9822,-0.9822,-0.9822,-0.9822,-0.9822,-0.9822,-0.6387,-0.6387,-0.6392,-0.6414,-0.6419,-0.6425,-0.6446,-0.6446,-0.6495,-0.6665,-0.6578,-0.6632,-0.6975,-0.6796,-0.6692,-0.6796,-0.6964,-0.6986,-0.6812,-0.6899,-0.6855,-0.6627,-0.6638,-0.6584,-0.6387,-0.6425,-0.643,-0.6387,-0.6408,-0.6408,-0.6387,-0.6408,-0.6419,-0.6419,-0.6419,-0.6484,-0.6649,-0.6649,-0.6709,-0.6801,-0.6801,-0.6817,-0.6834,-0.6834,-0.6951,-0.7298,-0.8366,-0.9588,-1.072,-1.072,-1.072,-1.0775,-1.094,-1.0852,-1.0819,-1.123,-1.191,-1.2644,-1.3166,-1.4008,-1.4806,-1.5456,-1.5612,-1.5648,-1.5951,-1.6123,-1.6172,-1.6006,-1.6163,-1.6229,-1.6042,-1.6025,-1.603,-1.603,-1.6229,-1.639,-1.6363,-1.6562,-1.669,-1.6686,-1.6529,-1.6466,-1.6483,-1.558,-1.4955,-1.4906,-1.3963,-1.2766,-1.145,-1.139,-1.0906,-0.9822,-0.9822,-0.9822,-0.9822,-0.9707,-0.9632,-0.9612,-0.9612,-0.9476,-0.9289,-0.9334,-0.934,-0.9337,-0.951,-0.9625,-0.9652,-0.9774,-0.9822,-0.9822,-0.9822,-0.9822,-0.9822,-0.9822,-0.9822,-0.9822,-0.6387,-0.6387,-0.6419,-0.6578,-0.6594,-0.6632,-0.6736,-0.6752,-0.6796,-0.6921,-0.6828,-0.685,-0.7161,-0.6921,-0.6785,-0.6801,-0.6736,-0.6725,-0.6796,-0.6817,-0.6763,-0.6627,-0.6719,-0.6671,-0.6392,-0.6643,-0.6649,-0.6387,-0.6489,-0.6489,-0.6387,-0.6495,-0.6594,-0.6594,-0.6594,-0.6665,-0.6779,-0.6779,-0.6785,-0.6801,-0.6801,-0.6866,-0.6959,-0.6959,-0.7672,-0.8646,-0.8831,-0.9702,-1.0795,-1.0795,-1.0795,-1.0955,-1.2024,-1.1661,-1.123,-1.3359,-1.3511,-1.3221,-1.4667,-1.4999,-1.5144,-1.5975,-1.6016,-1.6004,-1.648,-1.6242,-1.603,-1.6195,-1.6252,-1.6368,-1.6565,-1.658,-1.6585,-1.6585,-1.6634,-1.6633,-1.6634,-1.6658,-1.6692,-1.6708,-1.5943,-1.5093,-1.4262,-1.3975,-1.3457,-1.2286,-1.2053,-1.139,-1.0126,-1.0065,-1.0004,-0.9822,-0.9822,-0.9822,-0.9822,-0.9802,-0.9734,-0.9612,-0.9612,-0.9591,-0.9544,-0.9435,-0.951,-0.9727,-0.9646,-0.968,-0.9795,-0.9815,-0.9822,-0.9822,-0.9822,-0.9822,-0.9822,-0.9822,-0.9822,-0.9822,-0.6616,-0.6584,-0.6578,-0.6698,-0.6719,-0.6741,-0.6796,-0.6747,-0.6747,-0.6866,-0.6774,-0.6763,-0.6937,-0.6926,-0.6904,-0.6904,-0.6915,-0.6915,-0.6904,-0.6964,-0.6948,-0.6828,-0.6877,-0.6823,-0.6643,-0.6747,-0.6747,-0.6638,-0.6698,-0.666,-0.6489,-0.6665,-0.6719,-0.6719,-0.6719,-0.679,-0.6904,-0.6904,-0.6942,-0.6997,-0.6997,-0.7029,-0.7133,-0.7133,-0.7442,-0.7931,-0.7931,-0.8345,-0.8861,-0.8861,-0.8913,-0.9144,-1.0421,-1.0457,-1.0372,-1.2238,-1.3063,-1.3491,-1.4213,-1.5049,-1.5832,-1.6189,-1.6332,-1.6405,-1.6654,-1.6529,-1.6353,-1.6483,-1.6645,-1.6762,-1.6704,-1.669,-1.6726,-1.6726,-1.6819,-1.6939,-1.6912,-1.6936,-1.6657,-1.5942,-1.4845,-1.4025,-1.3706,-1.2898,-1.2175,-1.1744,-1.1027,-1.0361,-0.9822,-0.9822,-0.9822,-0.9822,-0.9822,-0.9822,-0.9822,-0.9741,-0.9673,-0.9605,-0.9523,-0.9483,-0.9483,-0.9415,-0.9496,-0.97,-0.9639,-0.9693,-0.9822,-0.9822,-0.9822,-0.9822,-0.9822,-0.9822,-0.9822,-0.9822,-0.9876,-0.9889]}]]